Date StartTime U_cm/s V_cm/s W_cm/s Ustd_cm/s Vstd_cm/s Wstd_cm/s Uvar_(cm/s)^2 Vvar_(cm/s)^2 Wvar_(cm/s)^2 KE_(m/s)^2 TurbulentKE_(m/s)^2 HorizWindSpeed_cm/s FrictionSpeec_cm/s DragCoef SpeedOfSound_m/s SonicTemperature_C Pressure_mb 
09/07/2013  00:00:00      -80.511      -55.775       -5.703       38.624       31.022       17.016     1491.822      962.393      289.539        0.618        0.137       97.943       20.454        0.044      343.070       18.924      862.432
09/07/2013  00:01:00      -52.852      -53.202       -1.342       36.600       31.723       22.676     1339.593     1006.345      514.223        0.424        0.143       74.992       24.274        0.105      342.999       18.804      862.434
09/07/2013  00:02:00      -71.165      -64.146        7.317       50.159       33.391       22.646     2515.880     1114.954      512.827        0.669        0.207       95.808       23.073        0.058      342.961       18.739      862.437
09/07/2013  00:03:00     -106.008      -65.986       -3.869       43.546       42.063       26.143     1896.216     1769.338      683.454        0.998        0.217      124.868       22.676        0.033      342.947       18.713      862.452
09/07/2013  00:04:00      -79.766      -87.510        2.359       39.415       62.931       23.361     1553.579     3960.298      545.726        1.004        0.303      118.408       15.588        0.017      342.912       18.653      862.464
09/07/2013  00:05:00      -41.970      -51.956        9.848       63.976       36.277       29.692     4092.874     1316.010      881.611        0.542        0.315       66.790       32.702        0.240      342.904       18.639      862.466
09/07/2013  00:06:00      -97.115      -55.515        5.512       40.310       49.199       29.415     1624.932     2420.510      865.233        0.873        0.246      111.862       20.470        0.033      342.855       18.558      862.460
09/07/2013  00:07:00      -68.753      -53.033        9.814       41.583       38.667       23.182     1729.149     1495.115      537.405        0.570        0.188       86.830       21.046        0.059      342.868       18.579      862.470
09/07/2013  00:08:00      -93.953      -28.772       -5.123       17.906       21.180       13.477      320.642      448.580      181.641        0.532        0.048       98.260        9.193        0.009      342.882       18.604      862.475
09/07/2013  00:09:00     -104.380      -14.026       -2.983       27.003       24.681       15.725      729.156      609.171      247.277        0.634        0.079      105.318       11.173        0.011      342.968       18.749      862.474
09/07/2013  00:10:00      -94.386      -30.168       -2.205       29.847       23.767       17.362      890.827      564.860      301.430        0.579        0.088       99.090       15.579        0.025      342.930       18.685      862.475
09/07/2013  00:11:00     -106.029      -45.410       -7.353       16.747       24.643       12.064      280.468      607.299      145.531        0.720        0.052      115.343        6.622        0.003      342.921       18.671      862.483
09/07/2013  00:12:00     -105.218      -26.507       -1.767       19.871       28.428       16.040      394.871      808.166      257.291        0.662        0.073      108.506        9.630        0.008      342.828       18.511      862.471
09/07/2013  00:13:00     -109.750      -29.005       -5.329       26.925       29.642       18.091      724.951      878.651      327.268        0.742        0.097      113.518       16.531        0.021      342.750       18.378      862.468
09/07/2013  00:14:00     -125.166      -34.091       -5.609       33.807       35.188       19.309     1142.904     1238.187      372.841        0.981        0.138      129.726       17.022        0.017      342.666       18.236      862.459
09/07/2013  00:15:00     -101.423      -58.235      -12.795       33.108       24.375       18.912     1096.124      594.156      357.665        0.794        0.102      116.952       13.989        0.014      342.690       18.275      862.453
09/07/2013  00:16:00      -78.761      -37.691        0.253       21.492       32.383       15.833      461.901     1048.649      250.691        0.469        0.088       87.315       10.958        0.016      342.641       18.192      862.458
09/07/2013  00:17:00     -115.008      -18.651       -9.851       27.829       19.967       13.392      774.461      398.693      179.335        0.751        0.068      116.511       10.205        0.008      342.655       18.217      862.458
09/07/2013  00:18:00     -119.582       -2.326       -7.920       38.906       18.237       19.694     1513.669      332.587      387.860        0.830        0.112      119.605       16.813        0.020      342.584       18.095      862.460
09/07/2013  00:19:00     -109.390        1.591       -8.312       43.464       31.121       18.327     1889.148      968.514      335.892        0.762        0.160      109.402       13.242        0.015      342.496       17.947      862.456
09/07/2013  00:20:00     -156.284        9.672      -17.158       20.776       23.800       15.801      431.630      566.428      249.661        1.303        0.062      156.583        8.145        0.003      342.424       17.824      862.456
09/07/2013  00:21:00     -159.911      -15.834      -20.966       41.821       44.147       24.364     1748.973     1948.958      593.580        1.528        0.215      160.693       23.436        0.021      342.365       17.725      862.446
09/07/2013  00:22:00     -147.236       -4.206      -13.731       35.354       32.606       21.761     1249.889     1063.119      473.546        1.233        0.139      147.296       19.357        0.017      342.290       17.598      862.437
09/07/2013  00:23:00     -140.050        0.325      -13.444       29.547       28.168       17.349      873.051      793.429      300.971        1.088        0.098      140.050       14.105        0.010      342.278       17.575      862.436
09/07/2013  00:24:00     -114.173        5.138       -6.166       52.320       34.788       24.987     2737.414     1210.226      624.325        0.884        0.229      114.289       24.276        0.045      342.249       17.526      862.434
09/07/2013  00:25:00      -98.427       20.331       -8.420       35.159       31.744       18.737     1236.151     1007.693      351.069        0.638        0.130      100.505       13.042        0.017      342.254       17.535      862.431
09/07/2013  00:26:00      -99.437      -12.464       -0.980       54.384       41.259       25.870     2957.617     1702.343      669.249        0.769        0.266      100.215       28.336        0.080      342.223       17.482      862.455
09/07/2013  00:27:00     -141.199      -32.287       -5.331       48.661       50.079       29.667     2367.872     2507.943      880.116        1.338        0.288      144.843       27.364        0.036      342.234       17.503      862.471
09/07/2013  00:28:00     -105.931      -33.759       -0.881       39.450       49.330       22.906     1556.289     2433.494      524.693        0.844        0.226      111.180       20.317        0.033      342.233       17.499      862.475
09/07/2013  00:29:00     -149.746      -54.807       -6.043       31.795       50.889       22.472     1010.935     2589.650      504.980        1.478        0.205      159.461       19.255        0.015      342.227       17.487      862.490
09/07/2013  00:30:00     -148.086       10.642      -20.727       58.967       41.165       21.848     3477.111     1694.561      477.343        1.406        0.282      148.468       25.761        0.030      342.264       17.552      862.477
09/07/2013  00:31:00     -196.681       -8.364      -23.243       40.303       50.167       29.379     1624.323     2516.740      863.114        2.215        0.250      196.858       25.614        0.017      342.246       17.521      862.471
09/07/2013  00:32:00     -158.884      -18.401      -15.827       35.804       41.002       27.305     1281.937     1681.187      745.572        1.477        0.185      159.946       25.236        0.025      342.216       17.470      862.476
09/07/2013  00:33:00     -155.622        0.316      -19.729       27.510       33.044       16.916      756.807     1091.894      286.157        1.337        0.107      155.622       10.786        0.005      342.241       17.512      862.463
09/07/2013  00:34:00     -148.266       20.562      -22.378       40.493       54.952       22.713     1639.719     3019.744      515.892        1.404        0.259      149.685       19.995        0.018      342.252       17.532      862.456
09/07/2013  00:35:00     -156.660       15.067      -14.125       52.797       41.295       29.810     2787.491     1705.310      888.618        1.517        0.269      157.383       28.672        0.033      342.278       17.573      862.459
09/07/2013  00:36:00     -184.698      -24.618      -12.879       61.011       44.713       26.816     3722.289     1999.258      719.097        2.066        0.322      186.331       30.042        0.026      342.258       17.539      862.442
09/07/2013  00:37:00     -184.620      -36.646      -16.006       44.328       32.213       27.070     1964.969     1037.648      732.790        1.971        0.187      188.222       27.734        0.022      342.199       17.441      862.435
09/07/2013  00:38:00     -161.648        6.749      -13.189       54.500       36.372       30.389     2970.254     1322.916      923.465        1.578        0.261      161.788       29.822        0.034      342.149       17.357      862.436
09/07/2013  00:39:00      -94.809       -8.400       -4.941       53.795       47.502       25.613     2893.896     2256.468      656.022        0.744        0.290       95.181       25.343        0.071      342.102       17.277      862.427
09/07/2013  00:40:00     -136.767       -7.325      -13.404       43.723       35.111       24.239     1911.700     1232.780      587.552        1.133        0.187      136.963       24.481        0.032      342.205       17.451      862.431
09/07/2013  00:41:00     -153.134      -27.154       -5.976       48.195       31.608       19.788     2322.715      999.079      391.576        1.397        0.186      155.523       16.218        0.011      342.171       17.395      862.428
09/07/2013  00:42:00     -133.526      -36.030       -7.781       39.592       32.128       22.070     1567.500     1032.228      487.076        1.114        0.154      138.301       20.652        0.022      342.255       17.536      862.422
09/07/2013  00:43:00     -141.364      -57.429       -7.851       26.225       29.407       20.776      687.776      864.771      431.635        1.266        0.099      152.584       13.935        0.008      342.278       17.576      862.432
09/07/2013  00:44:00     -113.250      -77.462       -5.480       44.328       40.608       29.715     1965.015     1649.015      882.966        1.168        0.225      137.208       23.991        0.031      342.293       17.600      862.427
09/07/2013  00:45:00     -149.046      -73.827      -11.699       20.893       16.519       13.969      436.514      272.863      195.145        1.435        0.045      166.329       12.047        0.005      342.278       17.576      862.444
09/07/2013  00:46:00     -168.514      -71.139       -7.684       23.532       20.295       17.059      553.741      411.870      291.011        1.739        0.063      182.915       11.960        0.004      342.288       17.591      862.445
09/07/2013  00:47:00     -112.849      -60.926        2.977       48.071       32.335       25.277     2310.802     1045.580      638.915        1.022        0.200      128.245       26.851        0.044      342.335       17.673      862.451
09/07/2013  00:48:00     -137.822      -40.311      -11.001       25.519       30.519       18.418      651.217      931.403      339.215        1.133        0.096      143.596       13.050        0.008      342.334       17.670      862.457
09/07/2013  00:49:00     -149.302      -47.500      -11.038       25.774       29.726       18.567      664.302      883.620      344.748        1.328        0.095      156.676        7.901        0.003      342.368       17.730      862.457
09/07/2013  00:50:00     -125.681      -34.932       -8.464       34.160       23.301       21.229     1166.919      542.945      450.689        0.962        0.108      130.445       18.675        0.020      342.334       17.671      862.477
09/07/2013  00:51:00     -149.474      -28.697       -9.110       30.699       37.799       19.666      942.448     1428.799      386.770        1.300        0.138      152.204       16.217        0.011      342.335       17.673      862.489
09/07/2013  00:52:00     -136.521      -12.220       -8.800       44.360       35.231       23.155     1967.854     1241.193      536.150        1.130        0.187      137.066       22.937        0.028      342.330       17.664      862.494
09/07/2013  00:53:00     -143.843      -12.690      -13.082       42.595       36.155       18.105     1814.353     1307.210      327.775        1.224        0.172      144.402       13.557        0.009      342.376       17.741      862.507
09/07/2013  00:54:00     -147.659      -34.846       -9.322       37.322       32.259       23.947     1392.900     1040.675      573.471        1.306        0.150      151.715       22.862        0.023      342.328       17.659      862.512
09/07/2013  00:55:00     -145.542      -24.861       -5.989       52.882       44.318       29.009     2796.465     1964.112      841.497        1.372        0.280      147.651       28.073        0.036      342.314       17.636      862.509
09/07/2013  00:56:00     -150.736       -3.626      -16.348       52.548       30.388       23.583     2761.290      923.461      556.144        1.362        0.212      150.780       24.862        0.027      342.317       17.642      862.515
09/07/2013  00:57:00     -154.355      -40.631       -7.549       53.566       43.230       28.699     2869.277     1868.845      823.649        1.555        0.278      159.613       31.671        0.039      342.345       17.690      862.511
09/07/2013  00:58:00     -172.168      -42.098      -15.991       43.919       37.122       24.815     1928.914     1378.048      615.804        1.780        0.196      177.240       22.805        0.017      342.293       17.600      862.499
09/07/2013  00:59:00     -163.674      -21.973      -18.553       46.764       29.901       20.451     2186.852      894.081      418.256        1.556        0.175      165.142       24.930        0.023      342.274       17.568      862.508
09/07/2013  01:00:00     -130.000      -32.649       -7.968       39.718       24.902       20.233     1577.496      620.096      409.386        1.032        0.130      134.037       19.381        0.021      342.237       17.506      862.509
09/07/2013  01:01:00     -122.696      -33.225       -8.729       20.329       32.978       16.405      413.288     1087.547      269.133        0.900        0.088      127.115        9.260        0.005      342.287       17.591      862.515
09/07/2013  01:02:00     -120.709      -45.407      -15.623       26.601       31.465       19.556      707.612      990.063      382.428        0.948        0.104      128.967       15.316        0.014      342.375       17.740      862.526
09/07/2013  01:03:00     -133.494      -30.922       -6.190       39.780       30.618       20.596     1582.421      937.438      424.191        1.088        0.147      137.029       17.552        0.016      342.435       17.842      862.531
09/07/2013  01:04:00     -126.105       -6.010       -5.401       31.439       23.086       21.459      988.420      532.955      460.471        0.897        0.099      126.248       20.890        0.027      342.381       17.752      862.532
09/07/2013  01:05:00     -102.019      -10.180       -2.925       26.096       21.215       15.910      681.019      450.095      253.141        0.595        0.069      102.526       13.863        0.018      342.399       17.781      862.542
09/07/2013  01:06:00      -57.945      -29.020        3.515       27.439       18.154       14.544      752.920      329.569      211.525        0.275        0.065       64.806       14.395        0.049      342.454       17.876      862.556
09/07/2013  01:07:00      -18.275      -14.458        9.107       24.808       16.978       11.472      615.448      288.253      131.609        0.083        0.052       23.303        9.276        0.158      342.458       17.881      862.566
09/07/2013  01:08:00      -25.179      -23.830        5.627       28.244       19.881       13.122      797.720      395.267      172.183        0.130        0.068       34.668       14.687        0.179      342.444       17.857      862.569
09/07/2013  01:09:00      -49.115      -48.329        0.359       44.656       24.090       17.755     1994.199      580.318      315.237        0.382        0.144       68.905       11.726        0.029      342.368       17.730      862.583
09/07/2013  01:10:00      -45.134      -48.169        1.662       31.658       33.777       20.382     1002.259     1140.886      415.430        0.346        0.128       66.010       17.536        0.071      342.214       17.468      862.589
09/07/2013  01:11:00      -75.042      -75.662       -3.164       35.143       27.799       17.324     1235.044      772.793      300.137        0.684        0.115      106.564       21.790        0.042      342.224       17.485      862.583
09/07/2013  01:12:00      -42.030      -46.500        9.157       40.639       33.860       24.845     1651.527     1146.488      617.263        0.371        0.171       62.680       27.341        0.190      342.147       17.353      862.573
09/07/2013  01:13:00      -50.026      -57.947       14.284       44.763       30.549       23.841     2003.727      933.226      568.373        0.478        0.175       76.554       26.421        0.119      342.136       17.334      862.574
09/07/2013  01:14:00      -63.399      -59.621        4.928       41.119       30.110       23.538     1690.739      906.585      554.044        0.537        0.158       87.029       22.544        0.067      342.189       17.426      862.591
09/07/2013  01:15:00      -79.164      -76.041        0.037       31.897       34.698       19.728     1017.395     1203.934      389.201        0.733        0.131      109.769       15.984        0.021      342.189       17.425      862.589
09/07/2013  01:16:00      -57.245      -56.783        5.759       34.633       21.916       16.835     1199.433      480.310      283.425        0.425        0.098       80.631       13.379        0.028      342.198       17.440      862.593
09/07/2013  01:17:00      -91.298      -86.732       -2.349       41.890       22.288       20.091     1754.744      496.777      403.662        0.926        0.133      125.928       19.947        0.025      342.156       17.367      862.589
09/07/2013  01:18:00      -80.473      -60.568       -1.718       37.941       31.723       24.462     1439.514     1006.339      598.413        0.660        0.152      100.719       22.422        0.050      342.099       17.273      862.597
09/07/2013  01:19:00      -76.546      -58.350       -5.614       40.450       28.498       16.032     1636.177      812.119      257.038        0.600        0.135       96.250       11.867        0.015      342.112       17.294      862.600
09/07/2013  01:20:00      -44.409      -62.400        6.764       40.862       34.890       23.633     1669.704     1217.283      558.503        0.468        0.172       76.590       26.700        0.122      342.049       17.188      862.605
09/07/2013  01:21:00      -46.653      -57.847        6.429       38.105       31.270       21.310     1451.966      977.786      454.098        0.422        0.144       74.316       17.817        0.057      342.021       17.139      862.608
09/07/2013  01:22:00      -53.302      -66.784        1.213       30.686       29.035       13.612      941.630      843.017      185.280        0.464        0.098       85.447       11.413        0.018      342.038       17.168      862.610
09/07/2013  01:23:00      -86.105      -77.334       -0.986       44.938       40.104       26.353     2019.401     1608.367      694.504        0.886        0.216      115.736       21.351        0.034      342.040       17.171      862.606
09/07/2013  01:24:00      -94.816     -101.288        3.478       46.425       47.877       32.322     2155.267     2292.229     1044.687        1.238        0.275      138.742       28.514        0.042      341.993       17.091      862.612
09/07/2013  01:25:00      -93.601      -85.048       -0.886       44.118       39.812       28.771     1946.410     1585.001      827.771        1.018        0.218      126.469       23.127        0.033      342.032       17.159      862.623
09/07/2013  01:26:00      -88.451      -68.225        5.226       60.748       42.353       27.006     3690.365     1793.788      729.298        0.936        0.311      111.706       28.882        0.067      341.991       17.088      862.619
09/07/2013  01:27:00      -60.358      -76.617        5.303       53.309       47.207       29.178     2841.831     2228.485      851.360        0.773        0.296       97.536       27.220        0.078      341.969       17.050      862.612
09/07/2013  01:28:00      -66.309      -67.720       10.184       57.690       27.670       27.498     3328.127      765.646      756.162        0.697        0.242       94.778       30.303        0.102      341.976       17.063      862.603
09/07/2013  01:29:00      -60.404      -48.290        9.655       45.510       26.785       23.369     2071.204      717.439      546.108        0.470        0.167       77.335       23.888        0.095      341.920       16.970      862.605
09/07/2013  01:30:00      -67.817      -45.617        5.137       36.311       23.207       17.470     1318.480      538.579      305.212        0.443        0.108       81.732       18.481        0.051      341.907       16.945      862.609
09/07/2013  01:31:00      -81.459      -46.993       -5.129       31.666       26.425       18.987     1002.767      698.273      360.516        0.547        0.103       94.042       16.230        0.030      341.883       16.905      862.598
09/07/2013  01:32:00     -125.667      -35.325       -2.609       33.871       23.517       18.027     1147.256      553.068      324.959        0.954        0.101      130.537       16.291        0.016      341.832       16.818      862.591
09/07/2013  01:33:00     -145.207      -46.120       -5.735       38.834       31.087       19.957     1508.049      966.414      398.264        1.306        0.144      152.356       19.803        0.017      341.799       16.762      862.588
09/07/2013  01:34:00     -151.196      -48.343        2.806       46.206       27.642       22.694     2134.955      764.054      515.013        1.431        0.171      158.736       22.606        0.020      341.761       16.699      862.599
09/07/2013  01:35:00     -161.486      -67.322        4.328       40.887       30.771       21.540     1671.712      946.842      463.971        1.686        0.154      174.957       18.540        0.011      341.771       16.715      862.602
09/07/2013  01:36:00     -147.344      -53.605       -4.390       28.564       24.481       15.546      815.880      599.329      241.664        1.313        0.083      156.792       13.394        0.007      341.708       16.610      862.605
09/07/2013  01:37:00     -160.425      -61.399       -1.017       36.582       30.038       16.882     1338.236      902.295      285.011        1.602        0.126      171.773       13.968        0.007      341.703       16.600      862.608
09/07/2013  01:38:00     -119.357      -41.224        0.777       37.967       24.399       21.629     1441.529      595.326      467.807        0.922        0.125      126.275       22.048        0.030      341.692       16.582      862.629
09/07/2013  01:39:00     -117.215      -34.332        1.549       30.937       26.696       15.471      957.128      712.672      239.361        0.841        0.095      122.139       16.553        0.018      341.701       16.595      862.636
09/07/2013  01:40:00     -111.983      -53.300       -5.744       32.202       19.680       17.595     1036.954      387.301      309.590        0.857        0.087      124.021       17.840        0.021      341.755       16.688      862.623
09/07/2013  01:41:00      -78.105      -44.857        1.336       39.449       25.135       22.001     1556.236      631.762      484.062        0.539        0.134       90.070       21.344        0.056      341.712       16.616      862.616
09/07/2013  01:42:00      -87.097      -38.007       -1.936       34.117       23.070       19.908     1163.990      532.206      396.334        0.556        0.105       95.029       11.240        0.014      341.692       16.581      862.601
09/07/2013  01:43:00      -86.474      -46.102       -0.644       43.501       25.348       15.773     1892.358      642.536      248.801        0.619        0.139       97.996       18.703        0.036      341.750       16.678      862.582
09/07/2013  01:44:00     -111.953      -37.290       -8.876       14.286       18.390       16.506      204.096      338.210      272.461        0.741        0.041      118.000        6.222        0.003      341.765       16.704      862.569
09/07/2013  01:45:00     -122.657      -34.942      -12.193       16.544       19.141       13.426      273.706      366.388      180.251        0.862        0.041      127.537        7.236        0.003      341.733       16.650      862.557
09/07/2013  01:46:00     -103.047      -16.376       -4.427       42.842       24.166       20.956     1835.408      583.982      439.170        0.688        0.143      104.340       23.646        0.051      341.626       16.468      862.563
09/07/2013  01:47:00     -104.529       -8.703       -1.751       40.540       29.619       20.474     1643.519      877.286      419.205        0.697        0.147      104.891       22.055        0.044      341.512       16.275      862.565
09/07/2013  01:48:00      -91.667      -17.035        2.484       37.537       28.112       20.191     1408.999      790.305      407.657        0.565        0.130       93.236       21.063        0.051      341.459       16.186      862.551
09/07/2013  01:49:00     -115.554      -42.294       -6.218       24.111       26.908       17.543      581.321      724.036      307.758        0.840        0.081      123.051       14.422        0.014      341.552       16.344      862.551
09/07/2013  01:50:00     -123.818      -57.827       -0.871       37.344       27.015       19.345     1394.601      729.830      374.247        1.059        0.125      136.656       20.724        0.023      341.666       16.537      862.557
09/07/2013  01:51:00     -106.760      -59.767        2.894       44.056       27.509       17.611     1940.893      756.740      310.163        0.899        0.150      122.352       21.151        0.030      341.621       16.462      862.543
09/07/2013  01:52:00      -88.851      -50.310        3.819       27.035       22.148       20.097      730.886      490.535      403.879        0.603        0.081      102.106       15.182        0.022      341.539       16.322      862.533
09/07/2013  01:53:00      -67.572      -51.643        0.498       31.475       24.663       17.160      990.656      608.269      294.456        0.456        0.095       85.047       15.546        0.033      341.541       16.325      862.537
09/07/2013  01:54:00      -70.484      -49.899        4.086       42.274       27.398       20.056     1787.080      750.628      402.261        0.521        0.147       86.359       22.050        0.065      341.543       16.329      862.539
09/07/2013  01:55:00      -66.040      -44.301        0.188       44.878       29.433       19.565     2014.034      866.301      382.793        0.479        0.163       79.523       21.071        0.070      341.537       16.318      862.540
09/07/2013  01:56:00      -56.107      -50.293        2.792       34.097       30.400       18.589     1162.636      924.164      345.554        0.406        0.122       75.348       13.991        0.034      341.578       16.387      862.533
09/07/2013  01:57:00      -48.455      -29.711        5.767       31.446       25.085       17.146      988.841      629.282      293.980        0.259        0.096       56.839       12.705        0.050      341.534       16.314      862.535
09/07/2013  01:58:00      -55.310      -49.183        2.612       32.835       27.026       19.000     1078.112      730.421      360.995        0.383        0.108       74.015       18.062        0.060      341.539       16.321      862.537
09/07/2013  01:59:00      -79.766      -57.199       -0.746       28.389       23.365       17.927      805.941      545.932      321.390        0.565        0.084       98.155       13.597        0.019      341.536       16.317      862.522
09/07/2013  02:00:00      -39.797      -41.191        3.470       29.403       20.645       16.208      864.562      426.218      262.711        0.242        0.078       57.276       12.440        0.047      341.532       16.309      862.513
09/07/2013  02:01:00      -39.049      -44.358        4.980       27.455       23.618       17.876      753.800      557.831      319.550        0.257        0.082       59.097       13.521        0.052      341.584       16.396      862.517
09/07/2013  02:02:00       -5.757      -17.198       10.187       33.520       18.748       13.184     1123.605      351.481      173.828        0.104        0.082       18.136       14.357        0.627      341.610       16.441      862.511
09/07/2013  02:03:00      -53.178      -42.486       -1.304       40.164       26.080       15.004     1613.180      680.188      225.117        0.358        0.126       68.066       18.356        0.073      341.597       16.419      862.499
09/07/2013  02:04:00      -62.122      -41.542        5.710       34.396       21.580       17.439     1183.060      465.686      304.130        0.378        0.098       74.732       18.507        0.061      341.602       16.429      862.512
09/07/2013  02:05:00      -86.054      -50.463        1.055       23.318       20.319       15.291      543.729      412.881      233.822        0.557        0.060       99.759       13.580        0.019      341.619       16.456      862.504
09/07/2013  02:06:00      -55.210      -30.988        3.958       35.728       21.056       18.774     1276.477      443.353      352.481        0.305        0.104       63.312       16.128        0.065      341.575       16.383      862.503
09/07/2013  02:07:00      -80.472      -50.769        3.535       35.103       28.816       24.662     1232.245      830.346      608.220        0.587        0.134       95.149       22.893        0.058      341.517       16.285      862.489
09/07/2013  02:08:00     -118.363      -46.637       -5.519       17.512       16.621       12.041      306.657      276.264      144.996        0.847        0.036      127.219        9.061        0.005      341.707       16.608      862.489
09/07/2013  02:09:00     -105.118      -37.083       -1.426       34.299       28.661       17.337     1176.387      821.460      300.557        0.736        0.115      111.467       18.065        0.026      341.582       16.395      862.488
09/07/2013  02:10:00     -121.423      -59.806       -2.215       40.532       22.788       15.593     1642.812      519.310      243.133        1.036        0.120      135.353       12.560        0.009      341.625       16.467      862.477
09/07/2013  02:11:00     -118.981      -37.111       -1.964       31.655       23.462       17.918     1002.037      550.470      321.072        0.871        0.094      124.634       18.570        0.022      341.558       16.353      862.473
09/07/2013  02:12:00     -128.076      -33.742      -11.705       17.281       15.219       14.255      298.636      231.615      203.193        0.921        0.037      132.446        9.726        0.005      341.552       16.343      862.472
09/07/2013  02:13:00     -109.093      -21.112       -9.776       25.229       21.821       12.969      636.500      476.167      168.194        0.686        0.064      111.117       11.638        0.011      341.484       16.227      862.471
09/07/2013  02:14:00      -91.540       -4.034      -12.237       27.383       21.699       13.789      749.833      470.850      190.138        0.498        0.071       91.629       12.307        0.018      341.354       16.007      862.468
09/07/2013  02:15:00      -87.805      -14.325      -12.177       23.460       24.426       14.539      550.374      596.618      211.376        0.471        0.068       88.966       12.048        0.018      341.446       16.163      862.462
09/07/2013  02:16:00      -67.164      -14.772       -8.000       19.441       17.441       11.959      377.955      304.198      143.019        0.281        0.041       68.769        5.624        0.007      341.469       16.202      862.471
09/07/2013  02:17:00      -69.860      -27.595      -12.748       18.466       21.502       13.701      341.008      462.352      187.720        0.340        0.050       75.113       10.729        0.020      341.465       16.195      862.465
09/07/2013  02:18:00      -74.996      -42.201      -19.867       23.584       18.517       18.308      556.184      342.888      335.195        0.452        0.062       86.055       10.059        0.014      341.354       16.009      862.457
09/07/2013  02:19:00      -73.865      -44.346      -10.943       30.264       23.495       15.611      915.891      552.013      243.688        0.463        0.086       86.154       12.760        0.022      341.327       15.963      862.451
09/07/2013  02:20:00      -88.079      -30.933      -12.733       23.028       17.586       12.592      530.295      309.267      158.562        0.494        0.050       93.353        8.435        0.008      341.288       15.896      862.448
09/07/2013  02:21:00      -48.876      -35.229       -4.143       29.630       17.373       15.561      877.961      301.815      242.134        0.253        0.071       60.249       13.445        0.050      341.214       15.769      862.445
09/07/2013  02:22:00      -88.976      -21.043       -2.376       30.432       16.458       13.773      926.109      270.866      189.695        0.488        0.069       91.430       11.857        0.017      341.168       15.691      862.432
09/07/2013  02:23:00     -111.693      -32.029      -10.493       15.501       17.715       14.064      240.274      313.836      197.792        0.718        0.038      116.195        4.926        0.002      341.217       15.778      862.415
09/07/2013  02:24:00     -129.704      -51.681      -14.846       15.072       10.426       10.170      227.166      108.694      103.437        1.008        0.022      139.621        3.012        0.000      341.146       15.656      862.401
09/07/2013  02:25:00     -123.084      -52.630      -14.122       15.208       22.760       13.360      231.281      518.030      178.497        0.952        0.046      133.864        7.625        0.003      341.125       15.621      862.404
09/07/2013  02:26:00      -97.527      -55.018       -5.135       22.590       24.711       19.032      510.317      610.657      362.234        0.702        0.074      111.975       13.208        0.014      341.129       15.628      862.402
09/07/2013  02:27:00      -80.789      -78.243       -1.862       38.146       37.123       24.766     1455.104     1378.098      613.355        0.805        0.172      112.467       24.483        0.047      341.048       15.491      862.403
09/07/2013  02:28:00      -60.809      -30.799       -4.309       28.675       22.664       17.406      822.258      513.636      302.956        0.315        0.082       68.164       13.524        0.039      341.123       15.618      862.406
09/07/2013  02:29:00      -56.364      -48.644      -11.773       28.401       18.736       16.437      806.598      351.023      270.175        0.355        0.071       74.452       13.786        0.034      341.125       15.621      862.420
09/07/2013  02:30:00      -33.896      -36.269        1.436       37.281       18.876       19.111     1389.906      356.287      365.243        0.229        0.106       49.642       21.327        0.185      341.149       15.660      862.444
09/07/2013  02:31:00      -48.224      -22.918      -14.031       18.088       18.943       17.048      327.162      358.828      290.644        0.201        0.049       53.393       11.632        0.047      341.300       15.917      862.460
09/07/2013  02:32:00      -49.156      -33.771      -15.836       19.783       22.218       16.880      391.385      493.638      284.921        0.249        0.058       59.639       14.156        0.056      341.401       16.087      862.471
09/07/2013  02:33:00      -59.170      -31.374      -10.183       13.046       14.979        7.870      170.188      224.364       61.939        0.252        0.023       66.973        3.847        0.003      341.317       15.945      862.496
09/07/2013  02:34:00      -57.736      -23.238       -4.774       13.406        9.520        6.796      179.718       90.638       46.181        0.211        0.016       62.237        5.237        0.007      341.313       15.939      862.506
09/07/2013  02:35:00      -63.021      -21.374       -8.588        7.220       11.355        7.379       52.130      128.937       54.443        0.237        0.012       66.547        3.150        0.002      341.354       16.008      862.507
09/07/2013  02:36:00      -78.823      -35.291       -6.638       12.995       10.489       10.547      168.857      110.028      111.230        0.395        0.020       86.362        6.508        0.006      341.370       16.035      862.503
09/07/2013  02:37:00      -93.478      -44.852      -17.076       10.694       14.982        9.539      114.357      224.454       90.984        0.574        0.021      103.682        8.989        0.008      341.347       15.996      862.503
09/07/2013  02:38:00      -99.338      -42.901      -13.720        9.859       12.065        9.769       97.209      145.568       95.434        0.612        0.017      108.206        6.605        0.004      341.333       15.974      862.515
09/07/2013  02:39:00      -87.921      -56.352       -5.643       17.801       17.216       10.499      316.871      296.390      110.228        0.583        0.036      104.430        4.973        0.002      341.370       16.034      862.510
09/07/2013  02:40:00      -59.786      -53.459       -2.396       25.675       22.658       18.171      659.221      513.402      330.188        0.397        0.075       80.201        9.961        0.015      341.315       15.941      862.512
09/07/2013  02:41:00      -96.262      -64.454       -3.423       31.655       28.776       19.028     1002.052      828.041      362.080        0.781        0.110      115.848       13.858        0.014      341.256       15.842      862.517
09/07/2013  02:42:00      -96.849      -58.367       -7.053       15.146       17.135       14.063      229.390      293.609      197.780        0.678        0.036      113.077        8.077        0.005      341.243       15.820      862.527
09/07/2013  02:43:00      -70.611      -52.570        1.601       39.484       22.829       13.504     1558.981      521.176      182.355        0.501        0.113       88.032       16.605        0.036      341.377       16.048      862.530
09/07/2013  02:44:00      -28.632      -30.927        6.191       26.541       19.067       16.771      704.442      363.556      281.273        0.158        0.067       42.146       15.034        0.127      341.279       15.881      862.537
09/07/2013  02:45:00      -39.673      -25.332        2.155       29.237       17.147       14.885      854.784      294.008      221.566        0.180        0.069       47.070       14.009        0.089      341.188       15.728      862.544
09/07/2013  02:46:00      -26.175      -25.505        2.281       26.958       14.894       14.830      726.708      221.822      219.934        0.125        0.058       36.546       13.784        0.142      341.266       15.858      862.547
09/07/2013  02:47:00      -72.176      -50.990       -7.232       30.434       24.332       15.127      926.243      592.068      228.833        0.480        0.087       88.371       13.800        0.024      341.314       15.941      862.540
09/07/2013  02:48:00      -84.738      -50.292       -3.593       31.282       21.972       19.984      978.583      482.774      399.380        0.579        0.093       98.538       17.771        0.033      341.260       15.849      862.526
09/07/2013  02:49:00      -67.208      -53.987        2.579       42.216       30.308       20.305     1782.176      918.568      412.279        0.527        0.156       86.206       19.764        0.053      341.223       15.787      862.524
09/07/2013  02:50:00      -62.138      -52.750        5.354       38.570       27.432       21.864     1487.638      752.541      478.036        0.469        0.136       81.509       20.245        0.062      341.212       15.768      862.527
09/07/2013  02:51:00      -93.999      -86.584        1.780       46.931       36.111       24.214     2202.493     1304.026      586.340        1.021        0.205      127.799       24.974        0.038      341.223       15.786      862.516
09/07/2013  02:52:00     -109.412      -54.712       -4.778       61.008       39.260       21.312     3721.969     1541.358      454.184        1.035        0.286      122.329       25.023        0.042      341.185       15.724      862.509
09/07/2013  02:53:00      -88.637      -65.740        1.683       47.738       31.498       22.661     2278.882      992.142      513.504        0.798        0.189      110.356       18.171        0.027      341.203       15.753      862.508
09/07/2013  02:54:00      -85.691      -60.662       -0.702       32.347       32.455       14.884     1046.333     1053.299      221.535        0.667        0.116      104.990       14.389        0.019      341.082       15.549      862.516
09/07/2013  02:55:00      -86.706      -37.920       -0.443       36.209       28.365       17.365     1311.116      804.564      301.561        0.569        0.121       94.635       14.559        0.024      341.047       15.489      862.526
09/07/2013  02:56:00      -72.982      -24.652       11.329       49.547       26.373       20.847     2454.901      695.542      434.578        0.482        0.179       77.033       19.073        0.061      341.068       15.525      862.537
09/07/2013  02:57:00     -117.863      -51.270       -5.580       21.464       16.110       14.224      460.709      259.519      202.334        0.874        0.046      128.531        8.165        0.004      341.106       15.588      862.554
09/07/2013  02:58:00     -113.382      -55.473       -6.879       25.636       18.454       14.032      657.223      340.546      196.885        0.859        0.060      126.225        6.886        0.003      341.133       15.635      862.564
09/07/2013  02:59:00     -135.845      -49.778       -7.188       20.234       21.463       14.893      409.409      460.679      221.810        1.104        0.055      144.678       10.023        0.005      341.063       15.515      862.566
09/07/2013  03:00:00     -102.129      -56.655       -1.952       44.924       36.184       21.631     2018.204     1309.288      467.909        0.872        0.190      116.791       24.245        0.043      341.069       15.527      862.566
09/07/2013  03:01:00      -25.036      -36.838        9.649       39.100       37.973       22.199     1528.848     1441.944      492.779        0.277        0.173       44.540       22.044        0.245      341.031       15.461      862.567
09/07/2013  03:02:00      -51.072      -67.208        6.789       41.670       31.681       21.008     1736.355     1003.674      441.336        0.518        0.159       84.411       23.798        0.079      341.100       15.580      862.570
09/07/2013  03:03:00      -56.594      -46.024        7.894       42.343       29.894       21.251     1792.946      893.681      451.588        0.426        0.157       72.946       18.696        0.066      341.131       15.632      862.557
09/07/2013  03:04:00      -58.290      -42.477        4.667       42.106       22.984       23.886     1772.929      528.280      570.542        0.405        0.144       72.125       23.183        0.103      341.047       15.488      862.540
09/07/2013  03:05:00      -33.389      -25.352       12.552       34.864       21.235       15.608     1215.512      450.937      243.607        0.191        0.096       41.924       12.906        0.095      341.014       15.432      862.535
09/07/2013  03:06:00       -4.982      -20.686       15.233       25.997       24.286       20.384      675.830      589.822      415.510        0.118        0.084       21.277       15.207        0.511      341.044       15.483      862.534
09/07/2013  03:07:00      -19.525      -26.789        9.230       27.607       19.965       18.493      762.131      398.621      341.992        0.134        0.075       33.149       15.962        0.232      340.975       15.366      862.522
09/07/2013  03:08:00      -27.525      -36.621        7.873       25.269       14.408       15.154      638.534      207.604      229.645        0.162        0.054       45.812       12.602        0.076      341.039       15.475      862.512
09/07/2013  03:09:00      -12.985      -20.363        1.552       20.106       13.941       14.661      404.263      194.342      214.954        0.070        0.041       24.151        7.598        0.099      341.045       15.486      862.513
09/07/2013  03:10:00        3.887      -26.086        0.191       12.075       11.065       16.340      145.796      122.438      267.003        0.062        0.027       26.374        8.492        0.104      341.100       15.579      862.526
09/07/2013  03:11:00      -23.415      -49.485        2.037       16.502       11.476        7.711      272.323      131.698       59.457        0.173        0.023       54.745        8.952        0.027      341.148       15.658      862.521
09/07/2013  03:12:00      -42.806      -44.100        0.539       18.912       24.046       11.453      357.666      578.208      131.174        0.242        0.053       61.458       13.152        0.046      341.136       15.639      862.509
09/07/2013  03:13:00      -50.330      -20.124        0.806       30.996       12.106        9.554      960.769      146.558       91.286        0.207        0.060       54.204        9.675        0.032      341.073       15.534      862.501
09/07/2013  03:14:00      -75.403      -31.346       -9.545       15.256       12.205       10.555      232.743      148.956      111.413        0.363        0.025       81.659        7.535        0.009      341.103       15.584      862.508
09/07/2013  03:15:00      -64.784      -41.267       -6.326       25.361       14.954       13.831      643.166      223.631      191.288        0.350        0.053       76.811       12.754        0.028      340.980       15.377      862.511
09/07/2013  03:16:00      -62.179      -42.470      -10.969       15.169       12.919       12.761      230.101      166.902      162.840        0.317        0.028       75.299        8.119        0.012      341.048       15.489      862.507
09/07/2013  03:17:00      -53.794      -41.734       -4.300       24.987       15.891       13.038      624.356      252.509      169.982        0.285        0.052       68.085       10.238        0.023      340.970       15.358      862.507
09/07/2013  03:18:00      -71.618      -35.767       -9.425       12.543       11.996        8.015      157.332      143.903       64.234        0.343        0.018       80.053        6.952        0.008      341.005       15.417      862.513
09/07/2013  03:19:00      -81.461      -38.715      -14.207       19.323       11.454        9.597      373.381      131.189       92.102        0.447        0.030       90.193        5.191        0.003      341.013       15.431      862.512
09/07/2013  03:20:00      -93.270      -55.917      -11.865       21.771       14.434       13.369      473.966      208.349      178.725        0.641        0.043      108.747        8.234        0.006      340.922       15.278      862.499
09/07/2013  03:21:00      -90.643      -61.102       -8.630       26.934       17.084       17.885      725.424      291.872      319.883        0.668        0.067      109.314        9.267        0.007      340.946       15.317      862.489
09/07/2013  03:22:00      -84.659      -54.239       -9.522       23.815       16.874       14.475      567.161      284.719      209.512        0.563        0.053      100.544        8.684        0.007      340.951       15.326      862.483
09/07/2013  03:23:00      -81.497      -61.642       -0.023       36.119       39.316       25.688     1304.585     1545.739      659.858        0.698        0.176      102.184       18.909        0.034      340.904       15.247      862.485
09/07/2013  03:24:00     -108.219      -44.094       -5.512       25.626       20.592       16.984      656.687      424.014      288.473        0.753        0.068      116.858        7.574        0.004      340.886       15.215      862.499
09/07/2013  03:25:00     -112.600      -67.359       -7.322       37.770       30.563       21.335     1426.599      934.069      455.181        1.004        0.141      131.210       19.982        0.023      340.845       15.147      862.487
09/07/2013  03:26:00     -105.725      -74.350       -2.396       32.740       24.206       22.368     1071.885      585.950      500.349        0.943        0.108      129.251       20.847        0.026      340.841       15.140      862.482
09/07/2013  03:27:00      -98.279      -64.257       -2.656       33.491       30.753       18.320     1121.656      945.744      335.609        0.810        0.120      117.421       12.104        0.011      340.813       15.092      862.476
09/07/2013  03:28:00      -68.473      -49.495        3.611       43.899       25.748       22.040     1927.119      662.952      485.770        0.511        0.154       84.488       20.202        0.057      340.746       14.979      862.477
09/07/2013  03:29:00      -57.362      -52.954        4.824       52.456       35.587       23.846     2751.653     1266.456      568.622        0.535        0.229       78.067       24.690        0.100      340.768       15.017      862.467
09/07/2013  03:30:00      -86.165      -61.182        7.444       36.400       32.322       24.879     1324.926     1044.680      618.940        0.711        0.149      105.677       21.607        0.042      340.852       15.159      862.448
09/07/2013  03:31:00     -101.569      -86.645       -4.000       39.547       33.228       22.511     1563.983     1104.110      506.746        1.051        0.159      133.505       20.620        0.024      340.867       15.184      862.438
09/07/2013  03:32:00      -97.691      -67.339        1.214       33.788       29.593       17.810     1141.635      875.736      317.192        0.821        0.117      118.651       12.357        0.011      340.812       15.090      862.423
09/07/2013  03:33:00      -92.378      -49.485        6.078       48.716       36.925       25.919     2373.279     1363.446      671.792        0.771        0.220      104.797       25.431        0.059      340.770       15.020      862.404
09/07/2013  03:34:00      -99.888      -54.942       -2.931       31.719       32.813       18.170     1006.095     1076.703      330.138        0.771        0.121      114.001       18.203        0.025      340.769       15.018      862.387
09/07/2013  03:35:00      -92.683      -46.012       -4.529       21.011       20.469        9.801      441.479      418.982       96.069        0.584        0.048      103.476        6.759        0.004      340.775       15.029      862.378
09/07/2013  03:36:00      -71.729      -41.730        1.739       31.107       20.271       14.504      967.644      410.918      210.369        0.424        0.079       82.985        9.567        0.013      340.767       15.014      862.377
09/07/2013  03:37:00      -65.784      -40.014       -2.688       38.223       20.647       15.825     1460.966      426.284      250.443        0.404        0.107       76.998       16.098        0.044      340.711       14.920      862.368
09/07/2013  03:38:00      -99.596      -26.238       -3.239       20.534       16.793       11.560      421.654      281.990      133.626        0.573        0.042      102.994       10.764        0.011      340.738       14.966      862.351
09/07/2013  03:39:00      -92.300      -34.948        2.858       23.241       17.468       17.237      540.146      305.144      297.130        0.545        0.057       98.695       16.782        0.029      340.715       14.927      862.353
09/07/2013  03:40:00      -93.754      -41.062        2.253       23.391       19.469       18.018      547.140      379.038      324.657        0.587        0.063      102.352       14.674        0.021      340.666       14.844      862.367
09/07/2013  03:41:00      -36.338      -29.429        4.723       44.980       22.679       17.040     2023.224      514.318      290.346        0.252        0.141       46.760       21.427        0.210      340.617       14.762      862.375
09/07/2013  03:42:00      -54.446      -40.412        5.438       40.762       28.284       20.010     1661.541      799.969      400.416        0.374        0.143       67.805       22.127        0.106      340.612       14.754      862.369
09/07/2013  03:43:00      -95.804      -77.081        4.623       41.059       31.983       22.063     1685.809     1022.898      486.788        0.917        0.160      122.963       21.590        0.031      340.711       14.920      862.356
09/07/2013  03:44:00      -96.875      -60.112       -1.885       59.196       33.553       23.341     3504.184     1125.827      544.812        0.909        0.259      114.009       22.497        0.039      340.691       14.886      862.354
09/07/2013  03:45:00      -81.524      -51.374       -2.601       22.817       22.108       13.597      520.597      488.783      184.885        0.524        0.060       96.361       11.696        0.015      340.718       14.933      862.361
09/07/2013  03:46:00      -91.393      -32.550       -9.343       16.665       23.417       10.306      277.726      548.348      106.214        0.522        0.047       97.016        3.803        0.002      340.747       14.981      862.365
09/07/2013  03:47:00     -106.325      -34.156       -5.898       13.544       17.183       10.805      183.436      295.256      116.753        0.655        0.030      111.677        8.431        0.006      340.675       14.858      862.367
09/07/2013  03:48:00     -111.100      -54.661       -2.213       26.746       23.389       16.282      715.375      547.023      265.101        0.843        0.076      123.819       16.574        0.018      340.625       14.775      862.365
09/07/2013  03:49:00     -122.920      -73.544       -3.353       27.973       19.911       16.777      782.474      396.430      281.471        1.099        0.073      143.241       14.494        0.010      340.603       14.737      862.357
09/07/2013  03:50:00     -132.998      -61.977       -3.306       21.984       26.682       18.219      483.297      711.912      331.918        1.153        0.076      146.729        8.931        0.004      340.514       14.588      862.338
09/07/2013  03:51:00     -149.920      -48.234       -4.298       21.638       19.325       11.980      468.217      373.444      143.525        1.290        0.049      157.488        9.427        0.004      340.508       14.577      862.331
09/07/2013  03:52:00     -114.076      -35.249       -3.559       36.295       26.746       20.997     1317.326      715.331      440.865        0.837        0.124      119.398       19.791        0.027      340.425       14.436      862.344
09/07/2013  03:53:00      -98.133      -39.262       -0.115       31.821       24.654       19.214     1012.563      607.821      369.179        0.658        0.099      105.695       17.949        0.029      340.377       14.356      862.342
09/07/2013  03:54:00     -102.162      -24.034       -7.174       25.670       18.809       16.730      658.943      353.778      279.894        0.618        0.065      104.950       13.145        0.016      340.415       14.418      862.347
09/07/2013  03:55:00     -120.106      -34.414       -1.545       25.177       20.198       16.197      633.868      407.968      262.337        0.846        0.065      124.939       15.102        0.015      340.418       14.425      862.351
09/07/2013  03:56:00      -96.684      -17.707       -0.635       37.441       25.295       14.465     1401.856      639.844      209.237        0.596        0.113       98.292       17.421        0.031      340.425       14.437      862.341
09/07/2013  03:57:00     -108.952      -12.896       -3.635       23.240       16.436       14.926      540.113      270.147      222.792        0.654        0.052      109.713       13.000        0.014      340.378       14.358      862.328
09/07/2013  03:58:00     -113.954      -21.927       -8.762       16.413       16.478       12.806      269.398      271.540      164.003        0.712        0.035      116.044        8.260        0.005      340.389       14.378      862.321
09/07/2013  03:59:00     -115.617      -29.867       -7.474       23.769       21.804       12.199      564.951      475.415      148.819        0.775        0.059      119.412        9.926        0.007      340.422       14.430      862.316
09/07/2013  04:00:00     -102.184      -51.031       -3.184       32.565       28.156       20.776     1060.448      792.744      431.655        0.767        0.114      114.218       11.490        0.010      340.387       14.373      862.311
09/07/2013  04:01:00      -66.309      -36.952       -5.611       42.636       29.332       22.806     1817.838      860.347      520.101        0.450        0.160       75.910       19.934        0.069      340.332       14.279      862.293
09/07/2013  04:02:00      -99.723      -67.863        1.598       43.345       34.535       23.347     1878.758     1192.688      545.101        0.908        0.181      120.624       20.216        0.028      340.311       14.244      862.289
09/07/2013  04:03:00     -127.616      -58.890       -0.824       39.242       24.340       21.487     1539.939      592.442      461.696        1.117        0.130      140.548       23.670        0.028      340.268       14.171      862.285
09/07/2013  04:04:00     -133.589      -64.105       -4.740       30.386       25.350       19.134      923.298      642.617      366.103        1.195        0.097      148.174       15.648        0.011      340.233       14.111      862.270
09/07/2013  04:05:00     -134.899      -53.489       -5.168       24.002       27.156       16.143      576.117      737.450      260.589        1.133        0.079      145.117       13.116        0.008      340.278       14.188      862.262
09/07/2013  04:06:00     -126.410      -68.382      -11.100       19.267       18.103       15.681      371.232      327.720      245.901        1.086        0.047      143.721        6.082        0.002      340.249       14.139      862.262
09/07/2013  04:07:00      -92.995      -36.783       -6.269       32.603       35.921       19.403     1062.977     1290.338      376.468        0.638        0.136      100.005       13.965        0.019      340.232       14.109      862.264
09/07/2013  04:08:00      -94.833      -45.566       -4.129       49.066       30.266       25.053     2407.453      916.042      627.659        0.752        0.198      105.212        6.931        0.004      340.229       14.106      862.252
09/07/2013  04:09:00     -106.287      -42.950        0.495       26.617       34.548       19.506      708.445     1193.561      380.479        0.771        0.114      114.637       18.105        0.025      340.236       14.117      862.253
09/07/2013  04:10:00      -88.632      -34.335       -4.495       33.949       31.582       16.930     1152.533      997.418      286.628        0.575        0.122       95.051       15.425        0.026      340.248       14.137      862.256
09/07/2013  04:11:00     -133.388       -9.104       -2.362       45.789       27.888       27.335     2096.643      777.755      747.181        1.075        0.181      133.698       29.099        0.047      340.332       14.280      862.254
09/07/2013  04:12:00     -161.613      -33.365      -14.319       22.894       28.735       15.737      524.153      825.680      247.668        1.452        0.080      165.021       11.382        0.005      340.437       14.457      862.250
09/07/2013  04:13:00     -141.068      -52.392       -9.854       20.827       20.783       13.947      433.758      431.948      194.519        1.190        0.053      150.483        4.305        0.001      340.344       14.299      862.249
09/07/2013  04:14:00      -87.383      -69.187        4.850       41.209       27.584       20.615     1698.214      760.888      424.963        0.766        0.144      111.457       17.695        0.025      340.374       14.351      862.244
09/07/2013  04:15:00      -47.427      -67.236        1.428       39.643       41.251       21.704     1571.534     1701.661      471.084        0.526        0.187       82.280       15.446        0.035      340.342       14.296      862.226
09/07/2013  04:16:00     -112.198      -57.181       -0.767       37.689       36.459       22.737     1420.440     1329.235      516.982        0.956        0.163      125.929       19.787        0.025      340.320       14.259      862.216
09/07/2013  04:17:00     -135.626      -64.349      -12.726       19.912       20.476       12.198      396.502      419.273      148.803        1.183        0.048      150.117        6.818        0.002      340.309       14.241      862.214
09/07/2013  04:18:00     -102.426      -78.060       -7.171       34.547       27.735       19.108     1193.508      769.228      365.103        0.948        0.116      128.780       12.958        0.010      340.252       14.144      862.212
09/07/2013  04:19:00      -84.647      -58.960       -2.222       31.606       25.141       16.531      998.934      632.094      273.287        0.627        0.095      103.158       13.902        0.018      340.257       14.154      862.214
09/07/2013  04:20:00      -93.765      -37.904      -15.709       16.511       13.492       13.477      272.621      182.042      181.642        0.556        0.032      101.136        8.294        0.007      340.315       14.249      862.230
09/07/2013  04:21:00      -79.863      -26.697       -5.950       27.059       21.234       12.940      732.186      450.892      167.455        0.424        0.068       84.207       12.064        0.021      340.298       14.221      862.238
09/07/2013  04:22:00     -124.499      -54.529      -10.778       19.098       13.079       13.375      364.743      171.063      178.879        0.965        0.036      135.917        5.299        0.002      340.384       14.369      862.226
09/07/2013  04:23:00     -106.377      -54.485       -5.513       14.142       17.953       13.080      200.004      322.322      171.090        0.750        0.035      119.519        8.817        0.005      340.353       14.315      862.231
09/07/2013  04:24:00      -93.487      -60.408      -11.294       28.660       18.146       15.684      821.378      329.261      245.979        0.696        0.070      111.306        5.570        0.003      340.384       14.368      862.232
09/07/2013  04:25:00      -65.305      -47.914        1.877       33.263       26.971       18.100     1106.419      727.416      327.625        0.436        0.108       80.997       16.396        0.041      340.319       14.257      862.234
09/07/2013  04:26:00      -54.399      -32.957        4.609       29.222       20.324       19.744      853.933      413.085      389.822        0.286        0.083       63.604       18.452        0.084      340.314       14.249      862.240
09/07/2013  04:27:00      -76.816      -41.393       -2.929       23.315       15.732       13.446      543.586      247.483      180.808        0.430        0.049       87.259       11.333        0.017      340.364       14.335      862.256
09/07/2013  04:28:00      -63.767      -34.059        2.229       34.528       16.792       17.245     1192.214      281.964      297.392        0.350        0.089       72.293       19.386        0.072      340.321       14.260      862.268
09/07/2013  04:29:00      -34.160      -29.327        7.086       30.731       23.266       15.971      944.390      541.323      255.063        0.191        0.087       45.022       11.445        0.065      340.399       14.392      862.269
09/07/2013  04:30:00      -22.367      -15.371        3.964       25.604       13.995       11.906      655.584      195.861      141.760        0.087        0.050       27.140       11.641        0.184      340.414       14.419      862.275
09/07/2013  04:31:00       -9.047      -11.538        7.866       22.499       17.119       12.711      506.184      293.067      161.574        0.062        0.048       14.661       11.140        0.577      340.434       14.453      862.290
09/07/2013  04:32:00      -84.557      -43.016       -6.464       26.672       15.670       13.218      711.417      245.560      174.712        0.509        0.057       94.870       12.491        0.017      340.419       14.426      862.294
09/07/2013  04:33:00      -48.845      -33.998        4.137       35.002       24.243       21.421     1225.121      587.733      458.844        0.291        0.114       59.512       21.638        0.132      340.374       14.351      862.289
09/07/2013  04:34:00      -81.902      -60.373        0.245       46.548       28.997       24.831     2166.748      840.815      616.562        0.699        0.181      101.748       27.234        0.072      340.374       14.350      862.275
09/07/2013  04:35:00      -66.138      -52.156        7.783       33.074       26.134       19.098     1093.903      682.973      364.723        0.465        0.107       84.229       20.485        0.059      340.427       14.440      862.271
09/07/2013  04:36:00      -91.378      -73.350        1.803       34.417       20.630       16.789     1184.522      425.586      281.860        0.781        0.095      117.176       14.394        0.015      340.456       14.490      862.281
09/07/2013  04:37:00      -65.532      -50.712        4.933       26.431       23.707       15.597      698.598      562.012      243.278        0.420        0.075       82.862       14.890        0.032      340.428       14.440      862.288
09/07/2013  04:38:00      -66.695      -55.479        0.005       27.343       20.325       17.658      747.657      413.116      311.800        0.450        0.074       86.753       13.937        0.026      340.554       14.655      862.293
09/07/2013  04:39:00      -67.804      -33.392       -3.453       31.474       17.149       13.386      990.640      294.083      179.197        0.359        0.073       75.580       13.308        0.031      340.540       14.631      862.296
09/07/2013  04:40:00      -68.083      -40.437       -3.924       18.573       19.166       14.004      344.966      367.355      196.114        0.360        0.045       79.186       10.023        0.016      340.558       14.662      862.308
09/07/2013  04:41:00      -57.444      -40.215        3.682       24.129       19.705       15.030      582.206      388.288      225.915        0.306        0.060       70.122       11.919        0.029      340.528       14.610      862.311
09/07/2013  04:42:00      -51.293      -23.807        2.621       32.112       21.098       15.637     1031.152      445.116      244.509        0.246        0.086       56.548       16.397        0.084      340.442       14.467      862.309
09/07/2013  04:43:00      -84.851      -35.565       -4.594       26.609       15.861       14.314      708.036      251.556      204.884        0.482        0.058       92.003       14.129        0.024      340.468       14.507      862.302
09/07/2013  04:44:00      -66.448        1.226       -3.287       28.266       20.571       17.121      798.950      423.155      293.139        0.297        0.076       66.459       18.839        0.080      340.323       14.265      862.293
09/07/2013  04:45:00      -79.471        0.895       -7.867       17.540        9.971        7.593      307.643       99.420       57.648        0.342        0.023       79.476        5.426        0.005      340.248       14.137      862.282
09/07/2013  04:46:00      -60.017       -6.507       -1.819       24.506       13.979       11.618      600.551      195.414      134.966        0.229        0.047       60.369       10.886        0.033      340.199       14.055      862.272
09/07/2013  04:47:00      -72.403      -14.654       -6.383       22.211       16.513       15.315      493.350      272.673      234.549        0.325        0.050       73.871       13.962        0.036      340.148       13.968      862.269
09/07/2013  04:48:00      -92.194      -20.748       -9.839       26.016       19.224       13.860      676.837      369.545      192.091        0.513        0.062       94.499       11.358        0.014      340.303       14.231      862.242
09/07/2013  04:49:00      -99.031      -28.078       -7.627       15.461       17.884       11.246      239.048      319.824      126.483        0.567        0.034      102.935        8.864        0.007      340.296       14.218      862.221
09/07/2013  04:50:00      -49.001      -31.149       -1.933       25.406       16.985       13.033      645.475      288.474      169.851        0.224        0.055       58.064        9.941        0.029      340.305       14.233      862.210
09/07/2013  04:51:00      -48.318      -32.145       -4.799       19.734       13.097       12.503      389.419      171.538      156.325        0.205        0.036       58.033        8.071        0.019      340.391       14.379      862.208
09/07/2013  04:52:00      -69.358      -29.519      -11.107       11.157       13.476        8.694      124.489      181.610       75.581        0.309        0.019       75.378        4.808        0.004      340.349       14.307      862.214
09/07/2013  04:53:00      -62.797      -36.856       -7.478       15.366       10.105        7.741      236.126      102.102       59.925        0.288        0.020       72.814        6.072        0.007      340.315       14.251      862.228
09/07/2013  04:54:00      -56.996      -27.065       -5.010       14.440       12.133       11.409      208.520      147.220      130.169        0.225        0.024       63.096        7.722        0.015      340.332       14.281      862.252
09/07/2013  04:55:00      -53.833      -36.970       -6.611       15.920       16.646        8.998      253.441      277.079       80.962        0.246        0.031       65.305        6.752        0.011      340.363       14.333      862.272
09/07/2013  04:56:00      -42.645      -29.241       -7.142       27.549       10.418        9.885      758.927      108.540       97.718        0.184        0.048       51.708        6.656        0.017      340.344       14.299      862.281
09/07/2013  04:57:00      -33.046      -32.352       -0.779       24.472       20.195       14.740      598.867      407.826      217.264        0.168        0.061       46.246       11.768        0.065      340.297       14.221      862.291
09/07/2013  04:58:00      -35.010      -33.397        3.423       35.103       25.003       13.833     1232.214      625.157      191.344        0.220        0.102       48.384       10.984        0.052      340.339       14.292      862.289
09/07/2013  04:59:00      -23.931      -51.692        6.645       27.231       39.086       18.155      741.513     1527.746      329.603        0.294        0.130       56.962       13.429        0.056      340.439       14.460      862.286
09/07/2013  05:00:00      -61.249      -10.223       -2.092       43.982       25.622       24.006     1934.383      656.495      576.283        0.351        0.158       62.097       26.092        0.177      340.328       14.273      862.283
09/07/2013  05:01:00     -115.611      -51.914       -2.675       25.446       25.658       17.000      647.504      658.352      288.995        0.883        0.080      126.732       12.028        0.009      340.373       14.348      862.280
09/07/2013  05:02:00      -93.654      -46.956       -3.341       38.181       19.788       18.635     1457.812      391.547      347.271        0.659        0.110      104.766       19.253        0.034      340.258       14.153      862.287
09/07/2013  05:03:00      -91.707      -52.707       -6.831       18.867       20.944       11.946      355.973      438.635      142.696        0.609        0.047      105.774        9.781        0.009      340.294       14.215      862.291
09/07/2013  05:04:00      -99.325      -19.039       -7.372       16.368       18.525        9.469      267.912      343.169       89.653        0.549        0.035      101.134        6.861        0.005      340.262       14.160      862.295
09/07/2013  05:05:00      -83.116      -24.936       -6.621       22.751       21.878       12.054      517.592      478.630      145.299        0.436        0.057       86.776        8.890        0.010      340.235       14.115      862.296
09/07/2013  05:06:00      -81.134      -22.528       -1.187       26.587       20.629       15.620      706.855      425.563      243.972        0.423        0.069       84.204       13.988        0.028      340.143       13.959      862.301
09/07/2013  05:07:00      -92.058      -34.045       -7.485       14.761       15.285       11.342      217.873      233.619      128.633        0.513        0.029       98.152        3.614        0.001      340.215       14.081      862.310
09/07/2013  05:08:00      -47.115      -50.467       -3.110       27.393       23.522       18.187      750.351      553.263      330.762        0.321        0.082       69.041       13.029        0.036      340.276       14.185      862.322
09/07/2013  05:09:00      -38.277      -50.430        4.129       32.273       27.145       18.152     1041.549      736.866      329.509        0.307        0.105       63.312       15.054        0.057      340.267       14.169      862.328
09/07/2013  05:10:00      -63.336      -53.163        1.161       29.295       26.685       18.050      858.190      712.104      325.812        0.437        0.095       82.691       12.463        0.023      340.302       14.230      862.336
09/07/2013  05:11:00      -95.140      -46.307       -1.330       26.779       26.070       14.887      717.101      679.630      221.617        0.641        0.081      105.811       10.371        0.010      340.254       14.147      862.345
09/07/2013  05:12:00     -104.472      -43.649        0.395       31.902       27.377       18.210     1017.717      749.482      331.612        0.746        0.105      113.224       16.552        0.021      340.181       14.023      862.338
09/07/2013  05:13:00      -95.561      -61.309        0.281       20.202       30.279       15.227      408.133      916.824      231.866        0.722        0.078      113.537       11.523        0.010      340.184       14.030      862.327
09/07/2013  05:14:00      -95.846      -79.428       -5.561       35.219       37.340       18.955     1240.379     1394.281      359.291        0.926        0.150      124.480       20.585        0.027      340.151       13.973      862.311
09/07/2013  05:15:00      -79.305      -54.454        0.277       35.649       20.332       16.387     1270.886      413.372      268.536        0.560        0.098       96.201       18.049        0.035      340.147       13.967      862.301
09/07/2013  05:16:00      -61.773      -52.354        6.964       42.959       27.686       19.509     1845.472      766.511      380.587        0.480        0.150       80.974       22.178        0.075      340.162       13.992      862.303
09/07/2013  05:17:00      -32.045      -63.631       16.669       45.399       39.813       26.174     2061.057     1585.103      685.071        0.484        0.217       71.244       30.220        0.180      340.179       14.020      862.314
09/07/2013  05:18:00     -114.049      -92.541        0.624       43.310       45.039       29.693     1875.779     2028.541      881.650        1.318        0.239      146.870       26.239        0.032      340.215       14.081      862.326
09/07/2013  05:19:00     -123.648      -73.547      -10.548       33.527       36.673       23.372     1124.077     1344.887      546.235        1.191        0.151      143.868       19.265        0.018      340.155       13.980      862.331
09/07/2013  05:20:00      -88.647      -60.709        2.422       51.274       41.886       26.093     2628.978     1754.399      680.859        0.831        0.253      107.442       23.480        0.048      340.084       13.860      862.340
09/07/2013  05:21:00     -111.544     -100.620        0.257       42.764       38.668       26.826     1828.740     1495.219      719.651        1.330        0.202      150.221       27.792        0.034      340.044       13.793      862.337
09/07/2013  05:22:00     -117.418     -111.304       -1.078       41.329       39.346       31.669     1708.092     1548.090     1002.896        1.522        0.213      161.788       25.542        0.025      339.998       13.716      862.333
09/07/2013  05:23:00     -140.873      -85.828       -5.214       39.656       28.398       26.530     1572.589      806.421      703.841        1.516        0.154      164.959       15.999        0.009      340.036       13.780      862.327
09/07/2013  05:24:00     -144.588      -65.606       -1.520       31.737       38.156       20.851     1007.213     1455.876      434.748        1.405        0.145      158.776       17.446        0.012      340.011       13.737      862.322
09/07/2013  05:25:00     -113.615      -31.753        6.728       35.893       24.142       19.567     1288.274      582.847      382.875        0.811        0.113      117.969       17.383        0.022      339.988       13.698      862.322
09/07/2013  05:26:00     -110.577      -57.999       -2.358       27.623       26.226       17.174      763.026      687.789      294.957        0.867        0.087      124.864        9.480        0.006      340.058       13.817      862.327
09/07/2013  05:27:00     -111.514      -45.224       -2.211       32.459       30.821       18.577     1053.588      949.922      345.091        0.842        0.117      120.335       15.657        0.017      340.058       13.816      862.330
09/07/2013  05:28:00      -75.008      -40.934        2.487       34.241       24.469       21.505     1172.412      598.733      462.485        0.477        0.112       85.451       19.083        0.050      340.044       13.794      862.324
09/07/2013  05:29:00      -51.415      -28.554        3.647       28.762       21.788       16.831      827.257      474.700      283.280        0.253        0.079       58.812       13.666        0.054      340.039       13.785      862.325
09/07/2013  05:30:00      -61.327      -37.320        1.695       36.197       22.526       15.114     1310.226      507.431      228.424        0.360        0.102       71.790       12.361        0.030      340.010       13.735      862.335
09/07/2013  05:31:00      -76.762      -55.874       -1.044       29.644       28.642       18.716      878.794      820.356      350.284        0.553        0.102       94.943       14.165        0.022      340.025       13.760      862.343
09/07/2013  05:32:00     -104.291      -70.314       -1.566       31.963       26.582       20.201     1021.616      706.590      408.062        0.898        0.107      125.780       15.000        0.014      340.057       13.814      862.344
09/07/2013  05:33:00     -101.635      -69.450        0.849       38.775       27.767       23.387     1503.491      771.008      546.939        0.899        0.141      123.097       21.418        0.030      340.055       13.811      862.351
09/07/2013  05:34:00      -88.108      -56.463        2.140       49.303       30.278       21.214     2430.796      916.747      450.047        0.738        0.190      104.647       21.413        0.042      340.012       13.741      862.357
09/07/2013  05:35:00     -111.886      -63.992        3.150       31.445       23.540       20.152      988.810      554.131      406.115        0.929        0.097      128.893       16.749        0.017      340.087       13.865      862.359
09/07/2013  05:36:00      -87.828      -62.993        5.371       55.233       35.291       23.381     3050.662     1245.464      546.655        0.828        0.242      108.082       27.948        0.067      340.157       13.984      862.356
09/07/2013  05:37:00      -25.121      -26.868       13.487       29.414       26.087       17.799      865.170      680.554      316.796        0.170        0.093       36.783       16.027        0.190      340.063       13.824      862.355
09/07/2013  05:38:00      -64.767      -51.906        7.026       31.739       24.954       18.801     1007.336      622.720      353.492        0.446        0.099       83.000       14.460        0.030      340.074       13.846      862.370
09/07/2013  05:39:00      -88.525      -43.863       -0.632       21.749       16.234       12.483      473.013      263.545      155.815        0.533        0.045       98.796        5.595        0.003      340.054       13.810      862.369
09/07/2013  05:40:00      -94.728      -28.922       -7.724       17.691       20.385       11.996      312.979      415.560      143.913        0.537        0.044       99.045        8.972        0.008      340.069       13.835      862.367
09/07/2013  05:41:00     -100.470      -26.957       -4.163       19.524       20.283       15.706      381.176      411.399      246.694        0.594        0.052      104.024       11.586        0.012      340.077       13.849      862.367
09/07/2013  05:42:00     -112.138      -25.931      -12.350       14.061       14.513       12.222      197.709      210.623      149.369        0.698        0.028      115.097        9.443        0.007      340.045       13.795      862.366
09/07/2013  05:43:00     -108.517      -27.523      -10.828       13.833       14.855       10.451      191.347      220.664      109.229        0.659        0.026      111.952        5.238        0.002      340.045       13.794      862.351
09/07/2013  05:44:00      -99.194      -22.495      -10.834       13.895       14.604        9.736      193.079      213.272       94.784        0.548        0.025      101.713        5.390        0.003      340.001       13.720      862.329
09/07/2013  05:45:00     -105.828      -25.119      -13.984       15.817        9.300        7.634      250.168       86.496       58.272        0.621        0.020      108.768        4.110        0.001      339.977       13.681      862.323
09/07/2013  05:46:00     -101.985      -27.921      -10.635       12.496       15.132       11.607      156.140      228.970      134.723        0.591        0.026      105.738        7.096        0.005      339.993       13.708      862.322
09/07/2013  05:47:00      -72.339      -22.096       -0.095       22.639       27.871       17.325      512.530      776.809      300.153        0.366        0.079       75.639       14.876        0.039      340.002       13.722      862.311
09/07/2013  05:48:00      -65.830      -29.588       -1.926       15.550       21.450       12.391      241.800      460.121      153.534        0.303        0.043       72.174       10.128        0.020      340.036       13.778      862.304
09/07/2013  05:49:00      -87.935      -26.802       -5.203       14.395       15.819       11.707      207.216      250.239      137.049        0.454        0.030       91.929        9.137        0.010      339.991       13.705      862.299
09/07/2013  05:50:00      -84.142      -35.985       -2.328       13.492       16.708        9.886      182.035      279.171       97.739        0.447        0.028       91.514        6.832        0.006      339.959       13.650      862.299
09/07/2013  05:51:00     -107.593      -23.928      -10.631       16.176       13.741       10.722      261.673      188.812      114.960        0.641        0.028      110.221        8.141        0.005      339.941       13.620      862.305
09/07/2013  05:52:00     -121.466      -39.860       -3.131       18.109       18.113       14.254      327.926      328.088      203.163        0.861        0.043      127.839       11.579        0.008      339.981       13.688      862.295
09/07/2013  05:53:00      -86.122      -53.165       -0.087       29.394       22.722       16.822      864.015      516.276      282.964        0.595        0.083      101.210       12.955        0.016      339.940       13.618      862.292
09/07/2013  05:54:00     -103.972      -39.777       -1.294       17.861       19.143       11.974      319.017      366.465      143.384        0.661        0.041      111.321       10.676        0.009      340.003       13.724      862.299
09/07/2013  05:55:00      -89.991      -49.604       -0.698       19.123       19.264       16.241      365.693      371.098      263.786        0.578        0.050      102.757        6.502        0.004      339.914       13.574      862.308
09/07/2013  05:56:00      -70.003      -51.619       -1.874       29.389       19.723       14.022      863.706      389.007      196.620        0.451        0.072       86.977       11.834        0.019      339.869       13.499      862.320
09/07/2013  05:57:00      -83.395      -44.451       -4.058       16.544       11.920       12.897      273.689      142.083      166.325        0.476        0.029       94.502        9.261        0.010      339.781       13.351      862.343
09/07/2013  05:58:00      -65.795      -45.539       -3.739       16.681       12.372       11.278      278.271      153.058      127.195        0.349        0.028       80.017        4.603        0.003      339.832       13.436      862.363
09/07/2013  05:59:00      -52.804      -41.705        3.024       22.357       21.005       13.337      499.839      441.202      177.874        0.283        0.056       67.287       11.788        0.031      339.774       13.339      862.385
09/07/2013  06:00:00      -35.764      -44.974       -4.458       20.112       16.651       13.224      404.503      277.249      174.876        0.209        0.043       57.461        9.604        0.028      339.871       13.500      862.410
09/07/2013  06:01:00      -47.867      -33.476        0.294       39.184       19.720       17.689     1535.405      388.887      312.914        0.282        0.112       58.411       21.019        0.129      339.797       13.377      862.431
09/07/2013  06:02:00      -43.685      -34.852       -0.378       30.388       22.684       15.380      923.453      514.546      236.534        0.240        0.084       55.884        8.951        0.026      339.830       13.432      862.446
09/07/2013  06:03:00      -26.131      -41.194        4.074       27.696       25.807       16.189      767.093      666.026      262.097        0.205        0.085       48.783       13.549        0.077      339.805       13.390      862.452
09/07/2013  06:04:00      -48.658      -49.006       -6.218       37.459       24.537       12.051     1403.179      602.087      145.230        0.348        0.108       69.060       13.756        0.040      339.818       13.412      862.458
09/07/2013  06:05:00      -58.936      -49.782        3.789       29.440       20.133       19.838      866.742      405.329      393.532        0.382        0.083       77.147       19.564        0.064      339.875       13.509      862.472
09/07/2013  06:06:00      -63.905      -30.602        1.658       37.900       21.000       15.685     1436.445      440.987      246.025        0.357        0.106       70.855        8.763        0.015      339.914       13.574      862.486
09/07/2013  06:07:00      -64.931      -35.197       -0.786       34.002       19.693       15.719     1156.149      387.820      247.100        0.362        0.090       73.857        7.529        0.010      339.888       13.531      862.497
09/07/2013  06:08:00      -61.598      -41.376       -4.052       29.393       21.964       17.248      863.920      482.417      297.510        0.358        0.082       74.204       17.272        0.054      339.968       13.666      862.496
09/07/2013  06:09:00      -78.338      -57.148       -6.499       20.758       32.149       15.604      430.903     1033.539      243.493        0.558        0.085       96.968       12.021        0.015      340.020       13.752      862.485
09/07/2013  06:10:00      -69.558      -54.527        0.375       35.368       30.443       17.453     1250.920      926.767      304.600        0.515        0.124       88.383       17.492        0.039      339.959       13.650      862.469
09/07/2013  06:11:00      -83.299      -48.237       -3.941       27.686       21.078       13.250      766.538      444.297      175.553        0.533        0.069       96.257        9.163        0.009      339.961       13.653      862.452
09/07/2013  06:12:00      -79.788      -47.000       -7.475       23.813       24.048       17.400      567.057      578.315      302.743        0.504        0.072       92.602       12.735        0.019      339.893       13.538      862.448
09/07/2013  06:13:00      -68.784      -50.574        2.751       44.503       25.346       23.511     1980.546      642.410      552.745        0.524        0.159       85.375       26.449        0.096      339.804       13.388      862.443
09/07/2013  06:14:00      -99.575      -55.920       -4.444       32.830       21.662       19.107     1077.790      469.246      365.074        0.749        0.096      114.202       14.291        0.016      339.814       13.405      862.435
09/07/2013  06:15:00     -117.461      -45.807       -7.473       17.179       18.237       12.687      295.119      332.588      160.959        0.837        0.039      126.076        9.086        0.005      339.795       13.375      862.431
09/07/2013  06:16:00     -120.386      -58.305       -4.740       18.374       23.027       12.745      337.591      530.261      162.445        0.947        0.052      133.762        9.344        0.005      339.806       13.391      862.426
09/07/2013  06:17:00     -101.159      -44.618       -8.449       27.753       25.745       13.450      770.251      662.781      180.894        0.695        0.081      110.562        9.267        0.007      339.699       13.213      862.445
09/07/2013  06:18:00      -70.201      -44.753        5.999       39.164       29.185       20.117     1533.852      851.768      404.692        0.488        0.140       83.253       19.045        0.052      339.711       13.232      862.467
09/07/2013  06:19:00     -118.145      -46.422       -2.493       27.430       26.908       16.459      752.395      724.018      270.890        0.893        0.087      126.937       15.483        0.015      339.686       13.191      862.488
09/07/2013  06:20:00     -106.085      -34.269        1.553       35.547       37.507       27.436     1263.560     1406.801      752.725        0.793        0.171      111.483       26.480        0.056      339.578       13.007      862.515
09/07/2013  06:21:00     -112.707      -62.720       -8.436       46.071       33.723       17.824     2122.497     1137.268      317.710        1.014        0.179      128.983       17.328        0.018      339.706       13.223      862.547
09/07/2013  06:22:00     -117.695      -29.764      -12.833       34.961       28.193       14.834     1222.266      794.835      220.052        0.857        0.112      121.401       10.215        0.007      339.694       13.203      862.560
09/07/2013  06:23:00     -103.610      -40.204       -5.095       21.567       20.059       15.270      465.136      402.379      233.181        0.674        0.055      111.137       11.490        0.011      339.680       13.180      862.562
09/07/2013  06:24:00     -123.628      -42.915      -11.776       18.200       21.505       14.277      331.250      462.465      203.839        0.913        0.050      130.865        5.809        0.002      339.724       13.254      862.555
09/07/2013  06:25:00     -127.105      -40.901      -12.069       30.138       26.545       18.447      908.317      704.632      340.288        0.996        0.098      133.524        8.146        0.004      339.731       13.264      862.547
09/07/2013  06:26:00     -122.011      -48.472        2.642       41.440       24.998       19.370     1717.311      624.909      375.190        0.998        0.136      131.287       17.933        0.019      339.728       13.262      862.551
09/07/2013  06:27:00      -86.598      -64.553       -3.686       29.465       28.903       17.440      868.213      835.389      304.158        0.684        0.100      108.010       15.433        0.020      339.722       13.251      862.554
09/07/2013  06:28:00     -108.025      -56.749       -7.756       16.696       22.429       12.005      278.742      503.039      144.122        0.794        0.046      122.024        5.418        0.002      339.741       13.281      862.554
09/07/2013  06:29:00      -68.285      -76.216       -6.182       27.501       28.579       14.975      756.293      816.751      224.262        0.615        0.090      102.332        6.276        0.004      339.742       13.284      862.555
09/07/2013  06:30:00      -69.945      -54.665       -7.060       26.061       20.002       14.293      679.155      400.067      204.280        0.461        0.064       88.773       11.191        0.016      339.776       13.341      862.559
09/07/2013  06:31:00      -47.802      -28.065        5.629       34.449       21.978       17.711     1186.757      483.031      313.674        0.254        0.099       55.432       16.235        0.086      339.691       13.199      862.562
09/07/2013  06:32:00      -53.253      -39.229        5.557       34.541       23.043       18.621     1193.110      530.983      346.745        0.324        0.104       66.142       20.097        0.092      339.652       13.134      862.567
09/07/2013  06:33:00      -71.175      -47.762       -1.288       35.689       24.098       18.136     1273.690      580.717      328.919        0.477        0.109       85.715       20.129        0.055      339.723       13.253      862.566
09/07/2013  06:34:00      -98.229      -48.045       -2.796       17.261       15.689       13.932      297.932      246.134      194.093        0.635        0.037      109.349       11.716        0.011      339.730       13.264      862.563
09/07/2013  06:35:00      -83.385      -33.276       -7.134       22.716       15.305       15.023      516.016      234.243      225.704        0.454        0.049       89.780        7.364        0.007      339.694       13.204      862.560
09/07/2013  06:36:00      -62.604      -42.307       -1.513       26.854       20.916       16.591      721.124      437.464      275.276        0.357        0.072       75.559       17.286        0.052      339.748       13.293      862.573
09/07/2013  06:37:00      -77.890      -35.448       -5.093       13.802       13.935        8.106      190.491      194.178       65.699        0.390        0.023       85.577        2.939        0.001      339.772       13.334      862.584
09/07/2013  06:38:00      -70.902      -35.197        2.778       19.655       16.472       13.407      386.328      271.322      179.756        0.356        0.042       79.158       12.515        0.025      339.755       13.306      862.582
09/07/2013  06:39:00     -106.781      -29.013       -9.204       12.262       10.194        7.994      150.357      103.919       63.897        0.632        0.016      110.652        3.435        0.001      339.730       13.265      862.585
09/07/2013  06:40:00     -114.478      -43.080       -4.793       16.822       17.053        8.193      282.978      290.798       67.125        0.781        0.032      122.316        4.128        0.001      339.719       13.246      862.585
09/07/2013  06:41:00      -92.827      -45.360       -2.257       40.019       15.997       15.419     1601.535      255.905      237.761        0.639        0.105      103.317       15.484        0.022      339.687       13.192      862.589
09/07/2013  06:42:00      -94.864      -45.271       -8.321       35.245       21.481       14.938     1242.194      461.415      223.146        0.652        0.096      105.113        7.743        0.005      339.700       13.213      862.602
09/07/2013  06:43:00     -110.575      -51.377      -10.695       24.714       18.462       13.151      610.771      340.863      172.955        0.805        0.056      121.928        8.918        0.005      339.661       13.149      862.604
09/07/2013  06:44:00      -37.849      -27.961       -4.233       30.680       32.406       18.869      941.286     1050.118      356.057        0.229        0.117       47.057       14.838        0.099      339.710       13.230      862.612
09/07/2013  06:45:00     -112.424      -54.308      -10.912       25.807       19.095       13.177      666.020      364.619      173.645        0.846        0.060      124.854        4.244        0.001      339.711       13.231      862.611
09/07/2013  06:46:00     -107.763      -34.971      -11.075       26.113       29.076       17.612      681.906      845.424      310.166        0.740        0.092      113.295       11.039        0.009      339.672       13.166      862.609
09/07/2013  06:47:00     -125.041      -34.587       -6.964       17.791       19.505       13.451      316.532      380.428      180.923        0.888        0.044      129.736        4.689        0.001      339.584       13.018      862.604
09/07/2013  06:48:00     -129.227      -37.573       -1.665       24.199       24.940       15.662      585.597      621.991      245.302        0.978        0.073      134.578       13.483        0.010      339.608       13.056      862.603
09/07/2013  06:49:00     -120.279      -33.437       -0.627       18.041       18.844       12.535      325.488      355.099      157.129        0.821        0.042      124.840        8.546        0.005      339.623       13.083      862.617
09/07/2013  06:50:00     -100.983      -46.619       -4.371       22.033       20.240       12.228      485.442      409.646      149.514        0.672        0.052      111.224       12.894        0.013      339.610       13.063      862.621
09/07/2013  06:51:00      -76.268      -43.990       -3.378       28.563       16.481       14.235      815.868      271.622      202.622        0.453        0.065       88.045       13.476        0.023      339.662       13.149      862.627
09/07/2013  06:52:00      -80.734      -29.843       -2.810       13.144       16.222       11.799      172.766      263.161      139.215        0.400        0.029       86.073        9.491        0.012      339.682       13.182      862.619
09/07/2013  06:53:00      -78.911      -28.874       -4.138       14.542       11.537        7.695      211.475      133.099       59.212        0.374        0.020       84.028        5.411        0.004      339.760       13.315      862.610
09/07/2013  06:54:00      -59.484      -40.330       -9.042       19.421       10.137       10.210      377.192      102.767      104.234        0.292        0.029       71.867        6.827        0.009      339.759       13.312      862.602
09/07/2013  06:55:00       -7.003      -23.844        5.935       25.875       21.347       15.848      669.531      455.693      251.166        0.101        0.069       24.851       17.585        0.501      339.787       13.361      862.611
09/07/2013  06:56:00      -32.170      -54.897        2.208       37.122       26.486       20.125     1378.063      701.500      405.025        0.327        0.124       63.628       18.143        0.081      339.745       13.291      862.625
09/07/2013  06:57:00      -35.095      -74.477        5.009       40.040       39.739       19.501     1603.232     1579.180      380.299        0.518        0.178       82.332       13.935        0.029      339.721       13.250      862.633
09/07/2013  06:58:00      -66.810      -58.288       -4.983       33.758       31.883       21.969     1139.633     1016.537      482.645        0.526        0.132       88.663        8.927        0.010      339.715       13.240      862.641
09/07/2013  06:59:00      -30.501      -18.154        2.051       27.711       24.326       19.545      767.913      591.732      381.999        0.150        0.087       35.495       19.599        0.305      339.747       13.293      862.635
09/07/2013  07:00:00      -59.306      -50.835        1.782       27.655       26.854       17.077      764.825      721.120      291.639        0.394        0.089       78.112       13.570        0.030      339.777       13.344      862.631
09/07/2013  07:01:00      -51.467      -44.887        1.195       34.913       24.868       21.144     1218.927      618.433      447.082        0.347        0.114       68.291       19.899        0.085      339.742       13.284      862.627
09/07/2013  07:02:00      -73.576      -76.419       -0.550       24.977       20.605       16.086      623.865      424.587      258.771        0.628        0.065      106.082       12.846        0.015      339.740       13.281      862.623
09/07/2013  07:03:00      -68.496      -61.850       -7.545       24.961       25.350       19.935      623.074      642.625      397.417        0.512        0.083       92.288       15.055        0.027      339.771       13.333      862.624
09/07/2013  07:04:00      -67.027      -51.867        1.671       49.918       37.929       21.512     2491.774     1438.639      462.780        0.579        0.220       84.751       23.577        0.077      339.786       13.357      862.637
09/07/2013  07:05:00      -65.473      -61.484        0.097       38.938       35.260       16.295     1516.161     1243.261      265.521        0.555        0.151       89.816       19.103        0.045      339.761       13.316      862.646
09/07/2013  07:06:00      -86.582      -72.792       -4.569       37.110       30.703       20.548     1377.169      942.690      422.221        0.778        0.137      113.115       17.338        0.023      339.752       13.302      862.641
09/07/2013  07:07:00      -91.251      -77.060       -3.010       44.382       24.324       23.667     1969.756      591.681      560.114        0.870        0.156      119.436       22.596        0.036      339.735       13.273      862.649
09/07/2013  07:08:00      -72.229      -56.220        3.558       51.522       36.340       25.876     2654.484     1320.592      669.557        0.652        0.232       91.530       27.679        0.091      339.734       13.271      862.668
09/07/2013  07:09:00      -94.167      -77.222       -3.464       42.002       41.693       20.445     1764.142     1738.268      418.001        0.938        0.196      121.782       13.894        0.013      339.673       13.166      862.681
09/07/2013  07:10:00      -85.968      -75.964       -3.768       40.209       38.840       24.634     1616.783     1508.509      606.831        0.845        0.187      114.721       25.163        0.048      339.693       13.201      862.684
09/07/2013  07:11:00     -112.460      -87.450      -10.817       24.095       29.004       21.356      580.579      841.230      456.076        1.114        0.094      142.460       18.148        0.016      339.670       13.161      862.696
09/07/2013  07:12:00     -130.036     -111.620       -8.586       35.119       28.701       25.701     1233.345      823.756      660.555        1.608        0.136      171.372       25.309        0.022      339.688       13.194      862.704
09/07/2013  07:13:00     -109.697      -83.683       -8.318       35.095       33.209       23.046     1231.635     1102.807      531.117        1.098        0.143      137.972       18.453        0.018      339.663       13.150      862.707
09/07/2013  07:14:00      -91.347      -93.386       -3.297       33.838       36.761       22.833     1144.989     1351.365      521.348        1.005        0.151      130.634       19.829        0.023      339.690       13.196      862.707
09/07/2013  07:15:00      -97.141      -75.123       -8.559       30.215       23.894       14.899      912.964      570.928      221.971        0.843        0.085      122.800       11.879        0.009      339.688       13.192      862.707
09/07/2013  07:16:00      -70.530      -62.490        0.132       33.915       33.360       19.169     1150.227     1112.906      367.470        0.575        0.132       94.231       18.243        0.037      339.720       13.247      862.713
09/07/2013  07:17:00      -64.400      -54.600       -2.299       44.090       27.875       17.075     1943.930      777.003      291.540        0.507        0.151       84.430       20.727        0.060      339.774       13.338      862.726
09/07/2013  07:18:00      -56.571      -79.160        1.377       36.941       25.534       23.202     1364.673      652.010      538.352        0.601        0.128       97.296       22.320        0.053      339.721       13.247      862.726
09/07/2013  07:19:00      -68.176      -58.374       -1.998       27.176       22.294       22.914      738.527      497.004      525.054        0.491        0.088       89.752       14.103        0.025      339.751       13.301      862.740
09/07/2013  07:20:00      -65.030      -79.490        2.070       31.488       31.977       26.240      991.463     1022.553      688.523        0.663        0.135      102.701       25.266        0.061      339.766       13.324      862.749
09/07/2013  07:21:00      -92.218      -81.916      -12.608       37.408       28.496       17.351     1399.335      812.021      301.069        0.894        0.126      123.347       16.804        0.019      339.771       13.335      862.735
09/07/2013  07:22:00      -67.380      -57.936       -6.428       26.788       22.549       18.280      717.585      508.443      334.168        0.475        0.078       88.863       13.688        0.024      339.825       13.424      862.734
09/07/2013  07:23:00      -39.035      -38.612       -1.202       24.895       17.292       13.717      619.739      299.028      188.161        0.206        0.055       54.905       12.573        0.052      339.864       13.488      862.737
09/07/2013  07:24:00      -17.680      -22.219        5.613       15.133       13.578       10.593      229.021      184.371      112.209        0.068        0.026       28.395        7.962        0.079      339.948       13.631      862.733
09/07/2013  07:25:00      -17.115      -18.719        1.682       13.278        7.292        7.709      176.305       53.174       59.430        0.047        0.014       25.364        4.543        0.032      339.941       13.621      862.740
09/07/2013  07:26:00      -33.260      -11.102       -3.030        8.073       15.845        6.359       65.167      251.050       40.442        0.080        0.018       35.064        3.594        0.011      339.960       13.651      862.746
09/07/2013  07:27:00      -50.158      -23.876       -1.731       26.058       13.617        9.291      678.993      185.419       86.322        0.202        0.048       55.551        5.607        0.010      339.987       13.698      862.745
09/07/2013  07:28:00      -21.445      -23.094        4.260       23.542       18.244       13.440      554.241      332.853      180.637        0.104        0.053       31.515       12.289        0.152      340.066       13.831      862.758
09/07/2013  07:29:00      -61.743      -45.171        2.270       30.358       31.037       18.063      921.615      963.281      326.261        0.403        0.111       76.503       16.590        0.047      339.972       13.671      862.761
09/07/2013  07:30:00      -55.547      -43.271        0.128       30.211       24.685       16.959      912.683      609.339      287.613        0.338        0.090       70.412       16.385        0.054      339.981       13.689      862.770
09/07/2013  07:31:00      -45.051       -6.312        3.243       22.941       12.341       11.816      526.285      152.295      139.622        0.145        0.041       45.491       11.832        0.068      340.050       13.803      862.780
09/07/2013  07:32:00      -33.079       -8.273       -2.518       18.323       11.563        7.289      335.718      133.710       53.125        0.085        0.026       34.098        4.083        0.014      340.098       13.884      862.784
09/07/2013  07:33:00      -48.787       -9.397       -3.883       11.749       10.554        8.747      138.044      111.386       76.502        0.140        0.016       49.684        6.049        0.015      340.127       13.933      862.782
09/07/2013  07:34:00      -59.421      -18.509       -8.449       10.128        7.052        7.565      102.582       49.736       57.223        0.208        0.010       62.237        5.373        0.007      340.199       14.054      862.782
09/07/2013  07:35:00      -29.006      -11.233       -1.040        9.874        6.077        5.963       97.486       36.927       35.562        0.057        0.008       31.105        1.814        0.003      340.264       14.162      862.786
09/07/2013  07:36:00      -22.201       -8.823       -0.563        6.781        6.308        5.930       45.988       39.792       35.170        0.035        0.006       23.890        3.275        0.019      340.308       14.238      862.784
09/07/2013  07:37:00      -32.976      -15.286       -4.517        7.255        9.111        7.785       52.632       83.003       60.613        0.077        0.010       36.347        4.896        0.018      340.360       14.327      862.782
09/07/2013  07:38:00      -36.877      -29.732      -13.816       10.999        9.292        6.858      120.969       86.334       47.035        0.134        0.013       47.370        5.522        0.014      340.370       14.343      862.788
09/07/2013  07:39:00      -30.499      -15.654       -5.697       10.580       13.340       10.721      111.946      177.949      114.932        0.081        0.020       34.282        8.863        0.067      340.416       14.421      862.795
09/07/2013  07:40:00      -13.828        0.782       11.992       14.264        9.920       20.373      203.473       98.416      415.067        0.053        0.036       13.850       13.440        0.942      340.805       15.080      862.793
09/07/2013  07:41:00       -5.131        7.844       23.887       28.321       16.475       18.383      802.088      271.437      337.935        0.103        0.071        9.373       13.272        2.005      340.706       14.914      862.796
09/07/2013  07:42:00       29.397      -18.737        3.662       24.383       21.081       22.938      594.539      444.389      526.138        0.140        0.078       34.861       16.808        0.232      340.314       14.248      862.787
09/07/2013  07:43:00       12.010      -17.147        2.317       22.101       21.914       19.986      488.471      480.240      399.454        0.091        0.068       20.935        5.004        0.057      340.391       14.380      862.791
09/07/2013  07:44:00       16.730       -4.879       -5.164       29.047       21.530       23.157      843.743      463.543      536.249        0.109        0.092       17.427       14.066        0.651      340.358       14.324      862.799
09/07/2013  07:45:00       13.392      -40.120        2.959       20.761       25.931       22.766      431.012      672.409      518.293        0.171        0.081       42.296       17.835        0.178      340.378       14.356      862.804
09/07/2013  07:46:00       33.517      -19.139        4.931       28.632       36.075       24.216      819.777     1301.421      586.405        0.211        0.135       38.597       13.159        0.116      340.265       14.166      862.806
09/07/2013  07:47:00       23.444      -20.189        4.506       31.340       23.965       27.615      982.187      574.345      762.593        0.165        0.116       30.939       15.530        0.252      340.498       14.559      862.813
09/07/2013  07:48:00        6.063      -34.237       -7.131       24.551       17.230       17.355      602.740      296.886      301.213        0.123        0.060       34.770       13.735        0.156      340.342       14.297      862.819
09/07/2013  07:49:00      -12.313        3.454       14.467       17.436       28.836       24.841      304.006      831.516      617.088        0.106        0.088       12.788       23.411        3.352      340.635       14.792      862.821
09/07/2013  07:50:00       45.211        7.257       28.534       37.128       18.770       23.772     1378.472      352.315      565.107        0.260        0.115       45.790       20.262        0.196      340.676       14.862      862.828
09/07/2013  07:51:00       -0.944       17.914       38.837       21.035       16.516       13.912      442.485      272.768      193.541        0.137        0.045       17.938        5.746        0.103      341.011       15.428      862.834
09/07/2013  07:52:00        0.893       -3.081       19.558       19.188       16.476       12.918      368.189      271.458      166.868        0.060        0.040        3.208        9.872        9.472      341.072       15.531      862.831
09/07/2013  07:53:00       12.067       -9.043       15.792       31.740       12.925       17.806     1007.399      167.066      317.059        0.098        0.075       15.079       13.943        0.855      340.850       15.155      862.836
09/07/2013  07:54:00       16.696      -12.100        8.818       34.003       18.652       22.460     1156.193      347.896      504.439        0.126        0.100       20.620       11.578        0.315      340.672       14.855      862.843
09/07/2013  07:55:00       12.914       -9.834       10.973       25.693       19.826       20.014      660.153      393.065      400.566        0.092        0.073       16.232       13.012        0.643      340.873       15.194      862.859
09/07/2013  07:56:00      -21.886      -17.039      -10.864       24.358       19.811       17.762      593.292      392.481      315.471        0.109        0.065       27.737       12.087        0.190      340.629       14.783      862.874
09/07/2013  07:57:00      -24.715        2.124        6.580        9.168       19.028       11.131       84.058      362.078      123.895        0.061        0.029       24.807       12.121        0.239      340.711       14.921      862.889
09/07/2013  07:58:00      -37.661        8.795       -2.638       13.259       11.530       10.171      175.810      132.937      103.443        0.096        0.021       38.674        8.419        0.047      340.819       15.103      862.894
09/07/2013  07:59:00      -18.517       -1.357        2.387        8.382        6.883        6.415       70.259       47.375       41.150        0.025        0.008       18.566        5.649        0.093      340.940       15.308      862.912
09/07/2013  08:00:00      -21.976       10.620       19.393        8.770       10.357       10.631       76.917      107.264      113.016        0.063        0.015       24.407        7.636        0.098      340.925       15.281      862.921
09/07/2013  08:01:00       -0.028       -9.576       15.642       19.363       18.579       16.644      374.937      345.166      277.016        0.067        0.050        9.576       15.432        2.597      341.036       15.471      862.934
09/07/2013  08:02:00        6.801      -27.243        1.296       16.477       20.401       16.336      271.488      416.206      266.853        0.087        0.048       28.079        6.013        0.046      340.800       15.070      862.945
09/07/2013  08:03:00      -11.712       -8.007        3.790       14.598        9.977        8.647      213.099       99.541       74.773        0.030        0.019       14.188        6.635        0.219      340.929       15.288      862.955
09/07/2013  08:04:00       -2.959       -8.948       -7.843       12.448       14.725        9.565      154.949      216.817       91.498        0.031        0.023        9.425        7.868        0.697      340.936       15.300      862.964
09/07/2013  08:05:00       16.122      -13.773       14.663       21.241       21.238       22.512      451.186      451.043      506.811        0.104        0.070       21.203       18.283        0.743      341.197       15.742      862.973
09/07/2013  08:06:00       46.103      -22.125       13.909       31.432       26.184       27.202      987.964      685.579      739.943        0.261        0.121       51.137       14.481        0.080      340.937       15.303      862.979
09/07/2013  08:07:00       36.880      -25.641        1.221       33.938       28.732       24.111     1151.800      825.505      581.339        0.229        0.128       44.918       15.462        0.118      340.895       15.231      862.982
09/07/2013  08:08:00       13.973      -18.778       -6.766       11.356       21.718       19.833      128.967      471.677      393.335        0.079        0.050       23.406        4.018        0.029      340.996       15.403      862.977
09/07/2013  08:09:00       -5.106       -2.116       15.368        6.467        6.207        5.786       41.822       38.530       33.479        0.019        0.006        5.527        3.462        0.392      341.677       16.557      862.971
09/07/2013  08:10:00      -18.964        0.836        2.890        5.668       10.332        7.692       32.129      106.759       59.171        0.028        0.010       18.982        6.976        0.135      341.091       15.563      862.971
09/07/2013  08:11:00      -23.581        0.995        2.713        9.660        7.187        7.652       93.309       51.651       58.553        0.038        0.010       23.602        6.730        0.081      341.164       15.687      862.969
09/07/2013  08:12:00       31.345      -31.634        3.634       21.531       24.236       20.780      463.583      587.367      431.807        0.174        0.074       44.533       14.516        0.106      340.930       15.289      862.974
09/07/2013  08:13:00        8.550      -11.680       -7.898       16.685       16.563       13.445      278.391      274.322      180.769        0.050        0.037       14.475        6.788        0.220      341.178       15.710      862.988
09/07/2013  08:14:00       -5.910        0.844        4.328       10.210        5.085       15.120      104.238       25.861      228.612        0.021        0.018        5.970        6.452        1.168      341.621       16.460      862.991
09/07/2013  08:15:00        5.275       -1.658        7.505       13.430       10.669       16.220      180.361      113.831      263.100        0.032        0.028        5.529       11.100        4.031      341.666       16.537      862.994
09/07/2013  08:16:00       14.370        5.224        5.570       26.117       12.287       19.833      682.082      150.974      393.338        0.075        0.061       15.290        6.387        0.174      341.384       16.059      863.001
09/07/2013  08:17:00       -7.368      -26.588      -13.401       18.536       23.626       10.863      343.577      558.192      118.002        0.098        0.051       27.590        2.768        0.010      341.168       15.694      863.004
09/07/2013  08:18:00      -11.813      -22.367        7.902       12.163       20.006       14.848      147.946      400.230      220.461        0.074        0.038       25.294       11.806        0.218      341.482       16.224      863.011
09/07/2013  08:19:00      -13.836      -15.007       16.881       18.459       16.938       10.428      340.744      286.912      108.740        0.072        0.037       20.412        9.908        0.236      341.683       16.567      863.007
09/07/2013  08:20:00       22.097      -14.148       -2.883       32.442       20.944       19.009     1052.505      438.648      361.339        0.127        0.093       26.238       11.181        0.182      341.297       15.912      863.004
09/07/2013  08:21:00       37.374      -17.743       -1.605       24.128       21.461       20.263      582.143      460.576      410.583        0.158        0.073       41.371       13.216        0.102      341.153       15.667      863.004
09/07/2013  08:22:00       27.010       -5.535       17.361       34.140       16.628       25.724     1165.566      276.488      661.702        0.158        0.105       27.571       21.326        0.598      341.688       16.575      863.009
09/07/2013  08:23:00        4.869        0.418       24.261       17.432       11.957       11.011      303.868      142.962      121.237        0.059        0.028        4.887        7.970        2.659      342.113       17.298      863.007
09/07/2013  08:24:00        5.544      -14.464        2.192       23.130       24.214       20.262      535.015      586.321      410.540        0.089        0.077       15.490       14.098        0.828      341.586       16.403      863.002
09/07/2013  08:25:00        9.791      -32.385       -5.813       17.288       24.580       16.002      298.859      604.179      256.050        0.117        0.058       33.832        9.410        0.077      341.266       15.859      863.003
09/07/2013  08:26:00      -12.606      -19.243      -15.735       21.183       23.935       18.589      448.704      572.886      345.551        0.107        0.068       23.005       13.161        0.327      341.360       16.019      862.994
09/07/2013  08:27:00       -3.441       -5.918       -3.541       30.971       22.513       20.770      959.229      506.841      431.373        0.098        0.095        6.846       11.906        3.025      341.479       16.222      862.997
09/07/2013  08:28:00       15.968       -5.303        2.823       27.060       26.193       19.831      732.225      686.073      393.253        0.105        0.091       16.826       10.746        0.408      341.538       16.321      862.994
09/07/2013  08:29:00       20.399      -14.769       12.840       44.670       18.304       24.453     1995.379      335.031      597.932        0.186        0.146       25.184        3.967        0.025      341.562       16.363      862.992
09/07/2013  08:30:00       11.482       -6.470       20.470       20.268       13.776       20.638      410.798      189.788      425.947        0.081        0.051       13.180       15.812        1.439      342.105       17.283      862.990
09/07/2013  08:31:00       21.842       27.043       -5.149       14.156       18.180       16.822      200.395      330.513      282.992        0.102        0.041       34.762       10.362        0.089      341.695       16.586      862.986
09/07/2013  08:32:00       17.434       -2.756       16.443       24.429       34.948       23.419      596.775     1221.366      548.445        0.147        0.118       17.651       22.453        1.618      341.834       16.821      862.997
09/07/2013  08:33:00       39.047      -24.913        9.099       24.963       24.352       22.240      623.163      593.016      494.596        0.197        0.086       46.318       12.079        0.068      341.403       16.092      863.001
09/07/2013  08:34:00       26.162        0.596      -21.861       17.060       23.820       13.797      291.057      567.395      190.355        0.111        0.052       26.169       11.668        0.199      341.659       16.526      863.003
09/07/2013  08:35:00       11.444      -12.182       -1.652       26.676       17.282       18.097      711.624      298.655      327.486        0.081        0.067       16.714        6.837        0.167      341.788       16.745      862.999
09/07/2013  08:36:00       43.078       -8.741        9.148       22.144       14.539       20.461      490.378      211.395      418.642        0.157        0.056       43.956        4.139        0.009      341.808       16.778      863.005
09/07/2013  08:37:00        6.390       -0.511       15.684       19.587       36.491       28.978      383.660     1331.559      839.724        0.142        0.128        6.410       27.424       18.303      342.240       17.511      863.001
09/07/2013  08:38:00       17.539      -25.387        7.383       24.131       26.249       25.805      582.301      688.985      665.873        0.147        0.097       30.856       15.404        0.249      342.071       17.224      862.993
09/07/2013  08:39:00      -19.320      -11.970       -1.913       18.778       22.050       19.792      352.606      486.210      391.706        0.088        0.062       22.727       13.022        0.328      341.975       17.061      862.993
09/07/2013  08:40:00       -7.217      -28.055       11.667       25.644       21.203       17.087      657.602      449.571      291.974        0.119        0.070       28.968        8.240        0.081      341.950       17.020      862.995
09/07/2013  08:41:00       15.193      -38.762        1.797       21.889       23.849       17.083      479.109      568.779      291.835        0.154        0.067       41.633       16.457        0.156      341.980       17.071      862.999
09/07/2013  08:42:00        5.155       -1.447       -9.940       20.659       21.223       19.156      426.775      450.418      366.960        0.069        0.062        5.354       10.539        3.875      341.831       16.817      863.003
09/07/2013  08:43:00        6.498       -6.612       -5.992       23.223       22.078       23.928      539.304      487.427      572.564        0.086        0.080        9.270       11.289        1.483      342.164       17.383      863.000
09/07/2013  08:44:00      -11.341      -13.246        5.467       19.203       18.619       18.223      368.743      346.678      332.080        0.069        0.052       17.438       10.758        0.381      341.901       16.935      862.994
09/07/2013  08:45:00        0.526       -6.570        3.117       23.858       16.823       19.591      569.221      283.020      383.803        0.064        0.062        6.591       10.727        2.649      342.111       17.291      862.994
09/07/2013  08:46:00       24.587        2.386       10.568       18.824       18.832       21.397      354.344      354.659      457.837        0.094        0.058       24.702       12.044        0.238      342.310       17.631      862.998
09/07/2013  08:47:00       19.832      -13.943        4.027       23.908       14.885       18.898      571.585      221.576      357.118        0.088        0.058       24.243       11.989        0.245      342.089       17.254      863.001
09/07/2013  08:48:00       13.521       -5.161       -0.400       23.868       24.085       20.628      569.697      580.107      425.499        0.089        0.079       14.473       12.276        0.720      342.160       17.375      862.994
09/07/2013  08:49:00        9.508        8.588       11.673       12.435       20.010       11.410      154.621      400.417      130.190        0.049        0.034       12.812        9.492        0.549      342.616       18.151      862.994
09/07/2013  08:50:00       18.847        4.325        0.786       24.707       20.636       18.432      610.427      425.850      339.740        0.087        0.069       19.337        8.220        0.181      342.312       17.634      862.998
09/07/2013  08:51:00       -3.965       16.902        2.772       17.492       26.453       21.809      305.963      699.742      475.647        0.089        0.074       17.361       19.169        1.219      342.470       17.902      862.998
09/07/2013  08:52:00       18.703       14.847       19.773       31.852       12.375       22.508     1014.519      153.145      506.603        0.132        0.084       23.879       10.665        0.199      342.738       18.359      863.009
09/07/2013  08:53:00       40.314       24.313        2.166       17.706       18.995       22.544      313.489      360.810      508.246        0.170        0.059       47.078        6.777        0.021      342.410       17.799      863.017
09/07/2013  08:54:00        5.626       10.977       -0.933       25.260       13.324       16.356      638.080      177.535      267.529        0.062        0.054       12.334       11.678        0.896      342.732       18.349      863.039
09/07/2013  08:55:00       25.354      -14.349       -0.155       27.212       21.550       21.635      740.489      464.395      468.064        0.126        0.084       29.133       18.684        0.411      342.538       18.018      863.050
09/07/2013  08:56:00       -3.915       11.842        5.827       33.007       24.389       22.211     1089.432      594.816      493.332        0.118        0.109       12.473       17.071        1.873      342.540       18.022      863.054
09/07/2013  08:57:00      -22.408        5.088       12.689       11.706       16.509       10.357      137.038      272.558      107.262        0.060        0.026       22.978        5.949        0.067      342.835       18.523      863.063
09/07/2013  08:58:00       31.746       21.049       18.723       33.276       19.357       14.837     1107.297      374.678      220.142        0.175        0.085       38.090       15.267        0.161      343.151       19.061      863.069
09/07/2013  08:59:00       55.347       28.651       11.938       21.666       17.452       20.836      469.433      304.564      434.141        0.262        0.060       62.323       12.490        0.040      342.735       18.353      863.071
09/07/2013  09:00:00       51.431        5.701       22.402       36.823       28.559       22.560     1355.935      815.590      508.958        0.293        0.134       51.746       21.280        0.169      342.841       18.534      863.073
09/07/2013  09:01:00       39.714       33.209        9.439       30.605       31.372       28.722      936.675      984.188      824.932        0.276        0.137       51.769       22.103        0.182      342.720       18.328      863.066
09/07/2013  09:02:00       41.929       27.320       13.165       29.782       27.613       26.722      886.996      762.460      714.073        0.252        0.118       50.044       10.035        0.040      343.122       19.011      863.061
09/07/2013  09:03:00       49.243       27.526       20.103       21.314       30.167       29.792      454.301      910.032      887.545        0.292        0.113       56.414       10.727        0.036      342.908       18.647      863.070
09/07/2013  09:04:00       76.536       28.725        9.537       22.553       18.675       20.182      508.628      348.738      407.310        0.402        0.063       81.749       11.608        0.020      342.885       18.607      863.076
09/07/2013  09:05:00       17.348       14.265       11.051       28.896       26.055       21.203      835.000      678.878      449.587        0.129        0.098       22.460       23.182        1.065      343.384       19.458      863.074
09/07/2013  09:06:00       14.112      -14.930       20.264       23.655       23.436       22.071      559.574      549.240      487.134        0.121        0.080       20.544       14.913        0.527      342.834       18.520      863.075
09/07/2013  09:07:00       17.280      -53.076        3.995       35.402       28.289       25.383     1253.272      800.282      644.293        0.291        0.135       55.818       11.643        0.044      342.224       17.484      863.071
09/07/2013  09:08:00       43.471      -18.231       25.823       27.116       35.431       30.685      735.290     1255.344      941.569        0.291        0.147       47.139       18.694        0.157      342.949       18.717      863.071
09/07/2013  09:09:00       26.572      -49.903       -3.944       31.181       30.186       28.791      972.280      911.183      828.902        0.296        0.136       56.537       24.231        0.184      342.440       17.850      863.066
09/07/2013  09:10:00       34.621       18.316       26.179       30.882       47.128       23.493      953.672     2221.018      551.925        0.297        0.186       39.167       12.151        0.096      342.616       18.150      863.057
09/07/2013  09:11:00       22.199       40.804       24.260       36.543       28.165       36.375     1335.423      793.260     1323.160        0.310        0.173       46.451       24.774        0.284      342.870       18.584      863.048
09/07/2013  09:12:00       33.346       41.508       27.826       26.193       29.324       36.712      686.096      859.921     1347.783        0.325        0.145       53.244       21.792        0.168      342.824       18.503      863.036
09/07/2013  09:13:00       22.936        4.549       23.803       15.542       14.070       19.898      241.558      197.960      395.949        0.097        0.042       23.383       12.725        0.296      342.935       18.694      863.029
09/07/2013  09:14:00       87.354       37.788       -2.209       34.777       22.908       24.293     1209.419      524.767      590.170        0.569        0.116       95.177       14.562        0.023      342.870       18.581      863.021
09/07/2013  09:15:00      104.685       74.542       18.570       37.885       23.019       30.859     1435.242      529.895      952.301        0.989        0.146      128.512       17.001        0.018      342.971       18.753      863.011
09/07/2013  09:16:00       81.624       62.368       15.310       26.946       19.715       22.187      726.064      388.688      492.262        0.620        0.080      102.724       17.782        0.030      342.997       18.798      863.007
09/07/2013  09:17:00       44.781       30.146        5.153       23.948       19.116       23.661      573.528      365.423      559.840        0.222        0.075       53.982        9.687        0.032      343.251       19.231      863.009
09/07/2013  09:18:00       64.583       36.172       10.085       26.338       20.657       31.013      693.672      426.713      961.817        0.383        0.104       74.022        7.767        0.011      343.169       19.093      863.015
09/07/2013  09:19:00       16.037        0.920        2.228       33.653       15.013       17.977     1132.534      225.376      323.176        0.097        0.084       16.063       10.908        0.461      342.951       18.719      863.023
09/07/2013  09:20:00       27.432      -48.213       -6.014       22.503       28.410       18.978      506.384      807.151      360.153        0.239        0.084       55.471        8.694        0.025      342.672       18.246      863.021
09/07/2013  09:21:00        4.864       -3.569       13.503       24.244       22.869       17.408      587.781      522.974      303.027        0.082        0.071        6.033       13.719        5.171      343.203       19.149      863.028
09/07/2013  09:22:00       34.785      -40.756       11.389       20.434       33.151       26.058      417.546     1098.999      679.018        0.260        0.110       53.582       21.471        0.161      342.862       18.569      863.038
09/07/2013  09:23:00       41.429      -24.346       15.394       35.186       23.980       31.329     1238.078      575.046      981.509        0.267        0.140       48.054       11.693        0.059      343.002       18.808      863.046
09/07/2013  09:24:00       32.800      -31.202       23.854       42.638       28.772       26.708     1817.986      827.839      713.298        0.299        0.168       45.270       22.891        0.256      342.995       18.796      863.049
09/07/2013  09:25:00       19.231      -42.149       -1.444       24.234       33.706       23.137      587.287     1136.094      535.320        0.220        0.113       46.329       10.948        0.056      342.758       18.393      863.054
09/07/2013  09:26:00       37.410       48.060       37.521       33.948       32.066       31.874     1152.459     1028.207     1015.966        0.416        0.160       60.904       11.156        0.034      343.323       19.354      863.069
09/07/2013  09:27:00       67.988       54.526       15.032       26.719       27.718       25.308      713.925      768.299      640.515        0.497        0.106       87.152       13.328        0.023      343.238       19.207      863.075
09/07/2013  09:28:00       33.157       43.504       49.242       24.171       28.869       16.776      584.244      833.425      281.437        0.356        0.085       54.699        7.966        0.021      343.558       19.753      863.078
09/07/2013  09:29:00       -5.884        4.030       11.738       21.685       24.388       28.164      470.236      594.787      793.195        0.102        0.093        7.132       16.967        5.660      343.695       19.990      863.094
09/07/2013  09:30:00       20.249      -57.333        5.585       33.635       28.907       25.049     1131.289      835.603      627.469        0.316        0.130       60.804       22.229        0.134      342.861       18.566      863.109
09/07/2013  09:31:00       48.382      -17.611        5.349       19.978       23.258       27.219      399.136      540.922      740.884        0.218        0.084       51.488        7.043        0.019      342.866       18.576      863.120
09/07/2013  09:32:00       23.488       15.741       28.073       30.596       40.241       28.878      936.092     1619.375      833.924        0.249        0.169       28.275       30.405        1.156      343.194       19.135      863.124
09/07/2013  09:33:00       74.721      -11.748        7.892       32.746       22.310       34.055     1072.297      497.715     1159.736        0.426        0.136       75.639       18.347        0.059      343.120       19.009      863.131
09/07/2013  09:34:00       18.290      -17.804       18.505       35.344       35.015       24.926     1249.209     1226.078      621.308        0.204        0.155       25.524       26.840        1.106      343.920       20.374      863.120
09/07/2013  09:35:00      -14.499      -25.815        3.425       31.473       28.105       29.671      990.571      789.901      880.374        0.177        0.133       29.608       20.704        0.489      343.555       19.749      863.115
09/07/2013  09:36:00       25.475        7.265       16.800       19.513       17.439       15.561      380.773      304.117      242.141        0.096        0.046       26.491        8.207        0.096      343.935       20.398      863.115
09/07/2013  09:37:00       42.888       26.769       21.185       37.981       40.587       28.253     1442.563     1647.342      798.228        0.345        0.194       50.556       18.678        0.136      343.500       19.656      863.113
09/07/2013  09:38:00       41.508       32.479        7.461       33.260       26.629       26.627     1106.251      709.096      708.996        0.268        0.126       52.705       22.527        0.183      343.817       20.198      863.110
09/07/2013  09:39:00       43.504       57.551       33.099       40.049       37.988       27.343     1603.945     1443.124      747.664        0.505        0.190       72.144       16.361        0.051      343.921       20.375      863.102
09/07/2013  09:40:00        9.090       -7.059       10.645       25.421       30.689       19.401      646.214      941.828      376.381        0.110        0.098       11.509       22.298        3.754      343.537       19.719      863.088
09/07/2013  09:41:00      -54.138        2.995        0.664       17.974       15.249        9.842      323.062      232.534       96.873        0.180        0.033       54.221       10.150        0.035      343.425       19.528      863.085
09/07/2013  09:42:00      -18.916       10.843       36.031       16.347       11.225       10.257      267.215      125.998      105.203        0.114        0.025       21.804        6.566        0.091      344.526       21.406      863.078
09/07/2013  09:43:00       31.884       -6.026       32.699       36.115       21.099       19.688     1304.308      445.170      387.608        0.213        0.107       32.449       18.313        0.319      344.131       20.733      863.078
09/07/2013  09:44:00        6.946       19.009       38.971       23.607       28.456       20.518      557.287      809.765      420.973        0.186        0.089       20.238       16.006        0.625      343.965       20.447      863.069
09/07/2013  09:45:00       37.954        4.812       31.401       27.127       31.470       30.609      735.885      990.351      936.938        0.256        0.133       38.258       23.725        0.385      343.634       19.885      863.078
09/07/2013  09:46:00       39.979        5.188       29.004       29.159       20.101       24.649      850.234      404.032      607.565        0.216        0.093       40.314       12.026        0.089      343.557       19.753      863.070
09/07/2013  09:47:00       13.293       -0.024       14.973       23.202       20.492       24.135      538.332      419.907      582.490        0.097        0.077       13.293       17.309        1.695      343.964       20.448      863.065
09/07/2013  09:48:00        7.893        6.893        3.813       10.994       11.834       15.107      120.875      140.033      228.221        0.031        0.024       10.479        6.542        0.390      344.048       20.590      863.062
09/07/2013  09:49:00       17.326       -1.687       20.763       14.218       13.678       15.427      202.144      187.081      238.005        0.068        0.031       17.408       10.570        0.369      344.176       20.810      863.052
09/07/2013  09:50:00      -14.540      -20.471       18.951       12.655       12.906       16.207      160.146      166.565      262.679        0.079        0.029       25.109        5.119        0.042      343.973       20.462      863.046
09/07/2013  09:51:00      -20.191        1.838        7.646       18.683        8.466       14.955      349.065       71.674      223.649        0.056        0.032       20.275       13.574        0.448      344.277       20.983      863.056
09/07/2013  09:52:00      -48.031       11.008       -3.659        7.949       12.276       11.304       63.184      150.701      127.770        0.139        0.017       49.277        6.281        0.016      343.657       19.924      863.065
09/07/2013  09:53:00      -38.069        1.280       -2.315       19.741       11.647        9.737      389.725      135.648       94.806        0.104        0.031       38.091        7.121        0.035      343.814       20.191      863.058
09/07/2013  09:54:00      -22.840        9.743       -1.576       20.205       15.202       15.901      408.243      231.110      252.840        0.076        0.045       24.831        8.481        0.117      343.817       20.198      863.048
09/07/2013  09:55:00      -27.125       -7.699       -6.290       12.228       13.818       12.457      149.532      190.942      155.179        0.067        0.025       28.196        4.681        0.028      343.963       20.446      863.038
09/07/2013  09:56:00      -40.904        4.735       -9.210       13.186       12.910       14.135      173.876      166.673      199.806        0.116        0.027       41.177       10.696        0.067      343.896       20.331      863.021
09/07/2013  09:57:00      -21.554       -1.774       -8.756       13.794       10.989        9.500      190.270      120.755       90.250        0.047        0.020       21.627        3.513        0.026      344.273       20.974      863.011
09/07/2013  09:58:00      -25.808        7.703       16.053       41.812       13.939       23.779     1748.268      194.300      565.433        0.175        0.125       26.933       23.665        0.772      344.372       21.145      862.993
09/07/2013  09:59:00       -4.536       38.637        6.716       28.046       36.027       24.472      786.556     1297.951      598.878        0.212        0.134       38.902       18.264        0.220      344.422       21.228      862.981
09/07/2013  10:00:00       15.560       12.146       14.141       19.272       19.607       19.732      371.418      384.428      389.351        0.087        0.057       19.740       12.794        0.420      344.805       21.885      862.969
09/07/2013  10:01:00      -11.395        5.881       27.380       16.681       14.209       12.899      278.254      201.892      166.386        0.078        0.032       12.823       11.109        0.751      345.261       22.668      862.958
09/07/2013  10:02:00        9.088       -5.148       14.611       22.486       25.123       29.278      505.629      631.149      857.187        0.116        0.100       10.445       21.203        4.121      344.626       21.581      862.941
09/07/2013  10:03:00       16.656       26.528       31.994       33.088       23.622       29.813     1094.802      557.979      888.796        0.227        0.127       31.323       18.399        0.345      344.944       22.124      862.938
09/07/2013  10:04:00       50.429       31.461       19.866       18.328       13.563       20.358      335.903      183.956      414.441        0.243        0.047       59.438        9.464        0.025      344.082       20.648      862.934
09/07/2013  10:05:00       30.817       41.277       38.814       24.921       20.460       19.080      621.080      418.593      364.056        0.278        0.070       51.512       14.987        0.085      344.541       21.431      862.934
09/07/2013  10:06:00       41.059       22.157       14.208       26.912       27.002       19.496      724.246      729.087      380.080        0.211        0.092       46.656       12.496        0.072      344.222       20.886      862.939
09/07/2013  10:07:00       -0.603      -28.301       -8.307       11.277       22.022       11.953      127.174      484.988      142.862        0.081        0.038       28.307        5.641        0.040      344.185       20.825      862.938
09/07/2013  10:08:00        3.803        2.954      -10.855       10.733       11.769       11.928      115.193      138.499      142.267        0.027        0.020        4.816        8.818        3.353      344.619       21.566      862.935
09/07/2013  10:09:00        8.658        8.045       -1.606       18.256       23.387       18.204      333.273      546.932      331.400        0.068        0.061       11.819        6.416        0.295      344.518       21.394      862.921
09/07/2013  10:10:00       35.695        3.384       -0.559       21.936       25.882       27.179      481.189      669.865      738.702        0.159        0.094       35.855       12.316        0.118      344.104       20.686      862.906
09/07/2013  10:11:00       27.868       -3.482        4.941       31.362       24.607       36.925      983.549      605.498     1363.425        0.188        0.148       28.084       21.317        0.576      344.361       21.125      862.885
09/07/2013  10:12:00       41.377      -24.319       15.417       28.130       28.637       34.407      791.292      820.078     1183.818        0.267        0.140       47.994       21.109        0.193      344.239       20.917      862.874
09/07/2013  10:13:00       51.080      -15.616        3.526       42.451       33.662       36.084     1802.121     1133.136     1302.021        0.355        0.212       53.414       28.477        0.284      344.257       20.948      862.858
09/07/2013  10:14:00       16.317      -42.559       -5.498       38.672       43.702       28.418     1495.503     1909.888      807.596        0.316        0.211       45.579       10.553        0.054      344.150       20.764      862.843
09/07/2013  10:15:00       20.378      -58.465      -22.274       32.809       33.188       24.160     1076.463     1101.453      583.723        0.355        0.138       61.915       17.393        0.079      344.131       20.732      862.829
09/07/2013  10:16:00      -16.054      -32.437       -5.212       18.022       15.281       16.575      324.789      233.515      274.718        0.108        0.042       36.192       10.058        0.077      344.166       20.791      862.819
09/07/2013  10:17:00       39.756      -16.039       24.067       21.153       20.429       22.039      447.437      417.329      485.719        0.188        0.068       42.869       15.582        0.132      344.410       21.208      862.821
09/07/2013  10:18:00       13.843       14.134       22.827       20.584       26.835       22.750      423.718      720.143      517.568        0.129        0.083       19.784       10.387        0.276      344.574       21.491      862.824
09/07/2013  10:19:00        6.625       10.992        5.235       12.931       10.517       18.535      167.213      110.609      343.553        0.041        0.031       12.834       10.172        0.628      344.925       22.091      862.825
09/07/2013  10:20:00       12.379        0.309       11.933       11.052       13.850       18.101      122.157      191.809      327.636        0.047        0.032       12.383        5.201        0.176      345.079       22.354      862.833
09/07/2013  10:21:00       -8.925      -17.385       -1.116       16.924       14.998       11.607      286.435      224.929      134.713        0.051        0.032       19.542       10.379        0.282      344.665       21.646      862.835
09/07/2013  10:22:00       -1.159      -21.252       -1.164       17.083       18.477       11.367      291.821      341.382      129.200        0.061        0.038       21.284       11.427        0.288      344.770       21.825      862.833
09/07/2013  10:23:00       -2.989      -10.518       15.752       14.700       18.980       12.958      216.076      360.231      167.897        0.056        0.037       10.934       10.408        0.906      345.365       22.844      862.830
09/07/2013  10:24:00      -36.965       16.991       18.478       19.688       16.485       18.925      387.636      271.752      358.140        0.151        0.051       40.683       12.470        0.094      345.221       22.596      862.820
09/07/2013  10:25:00      -50.516        4.239      -10.885       11.066        9.955        8.812      122.460       99.093       77.659        0.149        0.015       50.694        4.674        0.009      344.643       21.608      862.818
09/07/2013  10:26:00      -62.267        6.711       -7.282       17.542       27.141        9.208      307.708      736.607       84.787        0.255        0.056       62.627        5.515        0.008      344.589       21.515      862.811
09/07/2013  10:27:00      -85.027       15.154       -9.527       10.592       22.103       12.083      112.189      488.554      146.005        0.415        0.037       86.367       11.610        0.018      344.512       21.383      862.801
09/07/2013  10:28:00      -59.735       -5.295       -6.722       16.603        9.266        6.422      275.670       85.852       41.243        0.202        0.020       59.970        4.832        0.006      344.572       21.487      862.807
09/07/2013  10:29:00       -8.144        8.191       27.754       31.644       22.328       25.991     1001.347      498.527      675.528        0.154        0.109       11.551       20.764        3.232      345.088       22.369      862.808
09/07/2013  10:30:00       11.508        5.049       24.777       23.550       22.687       22.303      554.622      514.700      497.440        0.117        0.078       12.567       17.052        1.841      345.135       22.450      862.802
09/07/2013  10:31:00        2.124       -3.500       17.161       15.039       28.520       20.786      226.168      813.393      432.046        0.089        0.074        4.094       20.884       26.023      345.315       22.758      862.806
09/07/2013  10:32:00      -11.801        1.146       20.896       12.832        7.038       11.363      164.652       49.539      129.110        0.046        0.017       11.856        7.532        0.404      345.692       23.405      862.800
09/07/2013  10:33:00        6.747      -15.108       13.386       22.529       19.260       24.783      507.556      370.957      614.176        0.097        0.075       16.546       19.087        1.331      345.098       22.387      862.803
09/07/2013  10:34:00        3.400      -27.697        6.347       16.305       25.883       18.899      265.855      669.929      357.182        0.106        0.065       27.905        9.818        0.124      344.983       22.190      862.808
09/07/2013  10:35:00      -23.576       -0.987       13.282       24.070       13.462       16.446      579.374      181.231      270.481        0.088        0.052       23.597        9.220        0.153      345.602       23.251      862.805
09/07/2013  10:36:00        0.674        7.956       40.909       36.299       40.622       28.833     1317.603     1650.160      831.351        0.277        0.190        7.984       26.024       10.624      345.273       22.687      862.804
09/07/2013  10:37:00        6.084       -3.633       35.227       31.230       35.880       28.069      975.311     1287.349      787.855        0.217        0.153        7.086       23.514       11.013      345.148       22.473      862.787
09/07/2013  10:38:00       34.884      -23.291       36.693       41.910       50.000       30.745     1756.435     2500.049      945.250        0.415        0.260       41.945       34.651        0.682      344.947       22.128      862.791
09/07/2013  10:39:00        8.229       40.310       49.915       26.411       35.309       22.245      697.564     1246.699      494.819        0.331        0.122       41.141       13.137        0.102      345.670       23.366      862.785
09/07/2013  10:40:00       41.982       19.652       28.244       36.994       23.703       27.657     1368.572      561.818      764.909        0.282        0.135       46.354       19.895        0.184      345.644       23.323      862.777
09/07/2013  10:41:00        6.182       12.020       11.636       23.104       18.263       19.732      533.776      333.544      389.336        0.079        0.063       13.516       13.666        1.022      345.730       23.469      862.770
09/07/2013  10:42:00       15.884       21.954        3.835       24.090       31.650       25.666      580.326     1001.718      658.762        0.149        0.112       27.098       13.314        0.241      345.234       22.619      862.766
09/07/2013  10:43:00      -27.975       14.649        2.886       31.559       31.259       26.994      995.942      977.130      728.689        0.185        0.135       31.579       25.689        0.662      345.216       22.587      862.750
09/07/2013  10:44:00      -19.550      -10.635       -5.083       19.083       15.717       10.404      364.144      247.033      108.245        0.062        0.036       22.256        9.199        0.171      345.525       23.118      862.746
09/07/2013  10:45:00       33.468       -7.647        6.725       26.490       21.740       27.739      701.733      472.620      769.430        0.158        0.097       34.330       15.178        0.195      345.275       22.689      862.752
09/07/2013  10:46:00       43.226      -12.953       22.067       33.888       28.235       31.161     1148.394      797.236      971.000        0.272        0.146       45.125       23.294        0.266      345.254       22.656      862.745
09/07/2013  10:47:00       43.130       13.619       29.991       54.158       84.596       41.103     2933.054     7156.516     1689.434        0.736        0.589       45.229       31.596        0.488      345.133       22.447      862.739
09/07/2013  10:48:00       59.353       62.739       49.851       51.409       48.010       33.507     2642.934     2304.934     1122.698        0.801        0.304       86.365       19.972        0.053      345.524       23.116      862.734
09/07/2013  10:49:00       30.310        1.341       47.434       46.060       51.257       29.756     2121.525     2627.331      885.448        0.440        0.282       30.340       20.582        0.460      345.325       22.775      862.727
09/07/2013  10:50:00       52.698      -77.200       -5.214       37.700       44.181       33.368     1421.259     1951.955     1113.454        0.662        0.224       93.472       17.172        0.034      344.882       22.016      862.735
09/07/2013  10:51:00       56.758      -39.007       11.269       46.877       43.912       36.506     2197.481     1928.274     1332.722        0.516        0.273       68.870       31.453        0.209      345.095       22.383      862.720
09/07/2013  10:52:00       -6.881      -18.153       31.638       19.960       48.116       31.277      398.411     2315.115      978.238        0.253        0.185       19.414       33.377        2.956      345.993       23.922      862.720
09/07/2013  10:53:00       10.454      -12.470       33.788       34.757       55.276       27.435     1208.069     3055.480      752.657        0.321        0.251       16.272       22.567        1.923      346.015       23.959      862.708
09/07/2013  10:54:00       40.322      -78.397        8.827       45.982       55.633       37.425     2114.332     3095.071     1400.608        0.723        0.331       88.158       27.344        0.096      345.365       22.845      862.699
09/07/2013  10:55:00       37.223      -26.769       43.077       48.419       42.357       42.921     2344.370     1794.116     1842.247        0.497        0.299       45.849       27.104        0.349      345.636       23.307      862.702
09/07/2013  10:56:00       66.128       -2.318       31.862       49.143       61.294       37.082     2415.057     3756.985     1375.073        0.647        0.377       66.168       26.955        0.166      345.154       22.483      862.692
09/07/2013  10:57:00       86.686       87.025       20.149       49.799       31.952       25.138     2479.985     1020.903      631.934        0.981        0.207      122.833       18.970        0.024      345.322       22.771      862.697
09/07/2013  10:58:00       18.340       30.078        3.543       20.951       28.824       24.398      438.945      830.827      595.241        0.156        0.093       35.228       12.359        0.123      345.555       23.169      862.696
09/07/2013  10:59:00      -15.640       14.415       16.971       24.912       17.961       20.510      620.631      322.608      420.678        0.105        0.068       21.270        4.558        0.046      345.922       23.800      862.679
09/07/2013  11:00:00      -24.980        2.156       16.178       16.532       21.186       21.982      273.319      448.859      483.215        0.105        0.060       25.073       17.978        0.514      345.832       23.644      862.671
09/07/2013  11:01:00      -20.267       -8.377       -2.838       15.678       14.798        9.934      245.810      218.967       98.690        0.053        0.028       21.931        9.200        0.176      345.715       23.443      862.648
09/07/2013  11:02:00      -74.682      -23.093       -9.692       22.130       22.684       11.943      489.720      514.541      142.631        0.368        0.057       78.171       10.606        0.018      345.459       23.003      862.633
09/07/2013  11:03:00      -71.179      -17.717       -0.233       26.785       22.580       21.161      717.456      509.848      447.798        0.353        0.084       73.351       17.829        0.059      345.541       23.146      862.617
09/07/2013  11:04:00      -12.094      -17.267       14.055       24.659       22.596       22.269      608.048      510.601      495.908        0.113        0.081       21.081       19.979        0.898      346.104       24.113      862.596
09/07/2013  11:05:00        2.735       18.579       30.874       26.280       31.540       28.434      690.630      994.755      808.475        0.190        0.125       18.779       26.893        2.051      345.698       23.415      862.574
09/07/2013  11:06:00       25.037      -14.152        5.276       21.117       21.904       17.202      445.910      479.806      295.902        0.104        0.061       28.760       10.735        0.139      345.397       22.898      862.554
09/07/2013  11:07:00       11.132       12.260        9.968       26.229       13.722       22.937      687.985      188.283      526.100        0.089        0.070       16.560       17.969        1.177      345.967       23.877      862.526
09/07/2013  11:08:00      -11.653       -2.966       27.739       25.042       21.644       16.735      627.089      468.460      280.046        0.114        0.069       12.024       10.395        0.747      346.383       24.592      862.517
09/07/2013  11:09:00       19.513        0.437       10.274       23.116       18.315       20.906      534.355      335.430      437.079        0.090        0.065       19.518       13.241        0.460      345.620       23.283      862.509
09/07/2013  11:10:00       35.938        0.436       12.417       18.349       14.908       25.178      336.671      222.258      633.923        0.132        0.060       35.941        7.039        0.038      345.483       23.046      862.514
09/07/2013  11:11:00       31.560        2.995       23.442       22.954       18.956       20.837      526.884      359.342      434.170        0.144        0.066       31.702       16.260        0.263      345.834       23.647      862.509
09/07/2013  11:12:00       45.333       19.258        3.582       81.242       31.595       33.008     6600.197      998.269     1089.500        0.556        0.434       49.253       30.429        0.382      345.792       23.576      862.506
09/07/2013  11:13:00      125.872       75.267       26.933       56.898       56.139       42.288     3237.341     3151.611     1788.314        1.520        0.409      146.659       39.636        0.073      346.002       23.936      862.501
09/07/2013  11:14:00       74.812       21.091       41.277       39.486       62.862       56.954     1559.121     3951.572     3243.750        0.825        0.438       77.728       43.709        0.316      345.962       23.867      862.490
09/07/2013  11:15:00       52.690       74.043       12.021       33.819       41.741       34.987     1143.723     1742.283     1224.105        0.626        0.206       90.877       27.188        0.090      346.253       24.368      862.485
09/07/2013  11:16:00       28.286       14.442        4.578       36.309       37.649       36.661     1318.327     1417.453     1344.011        0.255        0.204       31.759       16.296        0.263      346.184       24.251      862.475
09/07/2013  11:17:00      108.771       75.164       20.774       49.357       38.325       32.006     2436.074     1468.791     1024.398        1.142        0.246      132.215       14.170        0.011      346.066       24.046      862.470
09/07/2013  11:18:00      112.748      113.575       -8.040       66.068       53.091       50.786     4364.965     2818.680     2579.234        1.772        0.488      160.036       38.433        0.058      346.231       24.329      862.461
09/07/2013  11:19:00      158.251      108.846        9.608       62.321       47.335       35.942     3883.920     2240.627     1291.847        2.220        0.371      192.070       23.876        0.015      346.127       24.148      862.453
09/07/2013  11:20:00      110.222       79.294       16.072       30.881       28.029       30.954      953.654      785.633      958.144        1.070        0.135      135.781       16.848        0.015      345.887       23.740      862.449
09/07/2013  11:21:00       57.688       19.808       15.911       31.554       55.553       24.379      995.683     3086.151      594.328        0.432        0.234       60.994       10.677        0.031      345.891       23.747      862.436
09/07/2013  11:22:00       43.413      -27.676       13.822       49.854       51.100       36.068     2485.423     2611.176     1300.937        0.462        0.320       51.484       29.479        0.328      345.801       23.590      862.426
09/07/2013  11:23:00       60.520      -12.751       15.397       40.487       36.716       42.398     1639.196     1348.095     1797.573        0.442        0.239       61.849       30.482        0.243      345.544       23.151      862.415
09/07/2013  11:24:00       54.089       -1.801       30.181       45.407       45.431       30.899     2061.828     2063.991      954.747        0.446        0.254       54.119       32.466        0.360      345.880       23.728      862.399
09/07/2013  11:25:00       57.784      -24.424       16.555       47.016       51.652       37.337     2210.546     2667.927     1394.058        0.524        0.314       62.733       34.202        0.297      345.627       23.294      862.387
09/07/2013  11:26:00       27.961       12.765       31.754       31.903       37.905       27.159     1017.812     1436.802      737.614        0.257        0.160       30.737       18.468        0.361      346.154       24.197      862.380
09/07/2013  11:27:00       26.595       24.349        9.983       25.253       29.443       34.314      637.699      866.912     1177.427        0.204        0.134       36.057       18.854        0.273      346.064       24.042      862.383
09/07/2013  11:28:00       40.835       28.288       17.474       41.918       44.636       40.293     1757.140     1992.390     1623.554        0.407        0.269       49.676       25.968        0.273      346.076       24.064      862.366
09/07/2013  11:29:00       23.264       -4.175        9.038       32.167       34.606       32.089     1034.714     1197.585     1029.731        0.195        0.163       23.635       16.247        0.473      345.822       23.628      862.366
09/07/2013  11:30:00       -3.018       15.633       11.124       24.945       23.961       29.718      622.266      574.149      883.154        0.123        0.104       15.922       12.552        0.622      346.429       24.671      862.364
09/07/2013  11:31:00        9.926       26.583       33.694       36.517       28.888       30.981     1333.483      834.528      959.850        0.253        0.156       28.376       26.058        0.843      346.830       25.360      862.360
09/07/2013  11:32:00       16.124        6.781       41.536       26.384       26.038       21.274      696.117      677.980      452.600        0.193        0.091       17.492       14.748        0.711      346.938       25.546      862.351
09/07/2013  11:33:00       11.498       13.915       59.323       40.460       20.270       22.326     1637.025      410.878      498.431        0.320        0.127       18.051       19.891        1.214      347.039       25.720      862.350
09/07/2013  11:34:00      -21.869       11.709       30.281       21.071       14.068       13.350      443.969      197.901      178.215        0.118        0.041       24.807        8.032        0.105      347.087       25.803      862.335
09/07/2013  11:35:00        0.509       -0.947       15.262       17.976       28.507       23.132      323.126      812.665      535.078        0.095        0.084        1.075       15.207      200.113      346.992       25.640      862.324
09/07/2013  11:36:00       -8.464       19.069       38.745       27.634       34.450       33.335      763.634     1186.791     1111.231        0.250        0.153       20.863       26.663        1.633      347.216       26.026      862.300
09/07/2013  11:37:00       19.120       -3.438       27.151       33.535       36.000       30.508     1124.572     1296.000      930.713        0.223        0.168       19.427       24.278        1.562      347.041       25.724      862.296
09/07/2013  11:38:00       50.840       -0.067       21.469       57.286       85.881       48.489     3281.713     7375.581     2351.152        0.802        0.650       50.840       35.537        0.489      346.632       25.019      862.273
09/07/2013  11:39:00       31.330       -9.050       17.654       55.116       48.307       34.072     3037.761     2333.607     1160.902        0.395        0.327       32.611       31.697        0.945      346.721       25.172      862.274
09/07/2013  11:40:00        5.441        3.443       44.648       19.211       44.260       29.364      369.078     1958.942      862.274        0.261        0.160        6.439       15.656        5.912      346.856       25.406      862.268
09/07/2013  11:41:00       49.603      -28.959       -0.686       38.190       46.616       27.581     1458.453     2173.034      760.732        0.384        0.220       57.437       22.005        0.147      346.339       24.517      862.261
09/07/2013  11:42:00        8.394      -37.573        7.056       20.925       25.619       21.146      437.844      656.353      447.166        0.154        0.077       38.499       19.353        0.253      346.844       25.385      862.251
09/07/2013  11:43:00       32.094      -89.438       10.109       35.404       39.976       33.757     1253.448     1598.104     1139.567        0.656        0.200       95.022       27.306        0.083      346.831       25.362      862.235
09/07/2013  11:44:00        6.688      -51.279       31.190       43.275       71.283       47.848     1872.684     5081.315     2289.383        0.644        0.462       51.714       46.302        0.802      347.121       25.861      862.214
09/07/2013  11:45:00       94.686     -124.769       12.107       72.130       73.900       46.476     5202.723     5461.263     2160.050        1.875        0.641      156.629       35.876        0.052      346.653       25.055      862.189
09/07/2013  11:46:00       88.943      -87.747       -3.466       53.913       84.878       40.344     2906.573     7204.321     1627.638        1.368        0.587      124.941       40.532        0.105      346.552       24.881      862.176
09/07/2013  11:47:00       30.778     -101.279        2.639       38.038       56.788       29.419     1446.886     3224.840      865.449        0.837        0.277      105.852       32.125        0.092      346.796       25.302      862.162
09/07/2013  11:48:00       23.758       29.286       39.736       45.022       35.514       30.133     2026.955     1261.217      908.024        0.360        0.210       37.711       24.408        0.419      347.311       26.190      862.157
09/07/2013  11:49:00       13.058       64.368       13.987       34.729       46.407       31.450     1206.069     2153.621      989.115        0.443        0.217       65.679       30.576        0.217      347.285       26.144      862.135
09/07/2013  11:50:00      100.450       64.859        3.171       64.169       44.050       46.063     4117.612     1940.364     2121.769        1.124        0.409      119.570       30.401        0.065      347.137       25.888      862.121
09/07/2013  11:51:00       39.663       65.074        8.445       57.509       52.750       42.447     3307.333     2782.611     1801.758        0.688        0.395       76.209       25.159        0.109      347.238       26.063      862.108
09/07/2013  11:52:00       91.323       50.097       14.647       46.955       27.593       31.710     2204.738      761.365     1005.503        0.752        0.199      104.162       22.101        0.045      347.001       25.653      862.102
09/07/2013  11:53:00       56.023        4.553       -5.854       33.988       23.246       20.585     1155.215      540.361      423.758        0.266        0.106       56.208       10.836        0.037      346.479       24.756      862.090
09/07/2013  11:54:00       -5.743        3.840       20.583       21.825       23.279       14.670      476.316      541.904      215.205        0.085        0.062        6.908       12.423        3.234      346.948       25.563      862.070
09/07/2013  11:55:00       -7.315      133.011       -4.671       57.156       94.937       42.465     3266.806     9012.991     1803.248        1.592        0.704      133.212       50.336        0.143      346.925       25.523      862.062
09/07/2013  11:56:00      -45.068       63.236        3.770       42.925       41.588       33.918     1842.571     1729.564     1150.440        0.538        0.236       77.652       35.452        0.208      347.518       26.546      862.039
09/07/2013  11:57:00       27.344       12.849       36.463       36.633       21.758       34.601     1341.973      473.404     1197.247        0.263        0.151       30.212       20.626        0.466      347.532       26.570      862.032
09/07/2013  11:58:00       14.411        3.617       -2.113       21.361       32.638       15.169      456.278     1065.251      230.095        0.099        0.088       14.858       12.545        0.713      347.344       26.246      862.024
09/07/2013  11:59:00       42.320       -2.470       18.312       23.869       35.440       25.465      569.747     1255.963      648.470        0.230        0.124       42.392       19.927        0.221      346.485       24.766      862.015
09/07/2013  12:00:00       43.530      -19.506      -11.347       32.811       47.996       29.551     1076.584     2303.620      873.289        0.333        0.213       47.700       24.030        0.254      346.717       25.164      861.996
09/07/2013  12:01:00       40.447      -22.384       10.898       41.897       36.246       31.664     1755.355     1313.740     1002.606        0.316        0.204       46.227       25.743        0.310      346.893       25.471      861.992
09/07/2013  12:02:00       16.503       46.256       51.603       30.309       32.360       30.617      918.626     1047.195      937.406        0.399        0.145       49.112       23.787        0.235      347.003       25.659      861.969
09/07/2013  12:03:00       22.324      -14.850       41.302       42.691       51.642       35.293     1822.497     2666.851     1245.563        0.408        0.287       26.812       22.182        0.684      347.240       26.068      861.960
09/07/2013  12:04:00       95.599      -13.165       12.775       36.731       24.932       26.619     1349.134      621.588      708.581        0.608        0.134       96.502       14.362        0.022      346.397       24.616      861.954
09/07/2013  12:05:00       26.718      -33.421      -10.382       22.731       23.267       18.604      516.715      541.344      346.113        0.167        0.070       42.789       13.220        0.095      346.159       24.206      861.938
09/07/2013  12:06:00       33.326      -15.899        6.264       24.648       27.190       26.671      607.541      739.290      711.349        0.173        0.103       36.924       16.218        0.193      346.733       25.193      861.926
09/07/2013  12:07:00       28.595       15.947       12.258       30.162       23.712       25.091      909.726      562.251      629.554        0.166        0.105       32.741       16.385        0.250      347.122       25.864      861.920
09/07/2013  12:08:00       31.546       -9.226        9.859       39.866       39.083       29.803     1589.305     1527.510      888.195        0.259        0.200       32.868       19.479        0.351      347.212       26.019      861.907
09/07/2013  12:09:00      110.866       17.010       18.587       81.413       74.130       52.061     6628.095     5495.214     2710.364        1.388        0.742      112.163       43.262        0.149      346.602       24.965      861.897
09/07/2013  12:10:00       95.986       65.157       46.832       87.641       89.188       58.379     7680.879     7954.486     3408.105        1.734        0.952      116.012       38.512        0.110      347.029       25.700      861.877
09/07/2013  12:11:00       18.954       16.331       40.626       32.395       51.041       33.845     1049.417     2605.149     1145.484        0.354        0.240       25.019       33.372        1.779      347.361       26.276      861.880
09/07/2013  12:12:00        5.725       38.682       67.131       33.717       53.203       37.183     1136.822     2830.568     1382.584        0.569        0.267       39.104       32.784        0.703      347.136       25.886      861.879
09/07/2013  12:13:00       36.169      -20.202       10.671       32.448       46.922       37.124     1052.861     2201.662     1378.212        0.323        0.232       41.428       37.158        0.804      346.928       25.528      861.875
09/07/2013  12:14:00       41.961      -45.764        4.004       34.274       29.095       29.686     1174.705      846.533      881.246        0.339        0.145       62.089       22.037        0.126      346.523       24.832      861.850
09/07/2013  12:15:00       58.217      -38.552       -6.716       27.169       27.631       18.093      738.129      763.449      327.360        0.337        0.091       69.825       15.163        0.047      346.228       24.325      861.844
09/07/2013  12:16:00       17.710       33.208        6.722       46.171       26.611       27.274     2131.756      708.146      743.894        0.252        0.179       37.635       20.652        0.301      347.311       26.188      861.819
09/07/2013  12:17:00       16.074      -31.818        6.136       48.843       47.018       21.586     2385.663     2210.666      465.952        0.318        0.253       35.648       16.616        0.217      347.115       25.850      861.809
09/07/2013  12:18:00       41.129      -15.821       14.516       38.076       45.405       26.428     1449.762     2061.655      698.442        0.318        0.210       44.067       14.509        0.108      346.935       25.540      861.791
09/07/2013  12:19:00       72.885       39.572       17.374       36.980       29.113       25.700     1367.527      847.560      660.516        0.503        0.144       82.935        6.385        0.006      347.298       26.165      861.772
09/07/2013  12:20:00       98.288       53.844       21.402       52.647       51.949       43.527     2771.656     2698.650     1894.586        1.019        0.368      112.070       24.192        0.047      347.532       26.571      861.757
09/07/2013  12:21:00       48.551       96.750        2.415       68.243       92.815       51.207     4657.125     8614.649     2622.185        1.381        0.795      108.249       49.083        0.206      347.709       26.874      861.729
09/07/2013  12:22:00      -24.689       89.887       -5.332       23.828       59.293       32.227      567.788     3515.610     1038.596        0.692        0.256       93.216       16.992        0.033      347.784       27.005      861.734
09/07/2013  12:23:00      -49.545       14.698      -10.984       31.552       44.347       19.174      995.553     1966.671      367.656        0.306        0.166       51.679       12.463        0.058      347.390       26.326      861.716
09/07/2013  12:24:00      -26.307       -6.231       -0.705       21.430       24.021       17.956      459.266      577.010      322.409        0.104        0.068       27.035       14.397        0.284      347.676       26.819      861.708
09/07/2013  12:25:00      -26.052       57.582        4.865       37.412       48.781       28.141     1399.645     2379.577      791.912        0.429        0.229       63.201       30.014        0.226      348.008       27.393      861.697
09/07/2013  12:26:00      -10.396       70.443       -5.115       42.596       35.506       31.543     1814.426     1260.656      994.962        0.458        0.204       71.206       22.035        0.096      347.781       27.000      861.689
09/07/2013  12:27:00      110.220       46.357       41.050       75.757       52.342       45.812     5739.083     2739.700     2098.723        1.328        0.529      119.572       37.484        0.098      347.910       27.221      861.669
09/07/2013  12:28:00      140.591       80.757       58.546       71.134       67.372       50.535     5060.027     4538.927     2553.776        2.093        0.608      162.134       38.958        0.058      347.758       26.958      861.653
09/07/2013  12:29:00       79.764      -19.054       21.281       62.083       87.751       55.996     3854.356     7700.220     3135.498        1.093        0.735       82.008       40.250        0.241      348.060       27.480      861.633
09/07/2013  12:30:00       13.046       43.759       88.782       44.356       66.433       47.783     1967.445     4413.282     2283.199        0.931        0.433       45.662       43.954        0.927      348.210       27.740      861.625
09/07/2013  12:31:00       69.606      -71.114       43.369       64.773       90.746       53.603     4195.542     8234.895     2873.274        1.354        0.765       99.510       45.159        0.206      347.969       27.324      861.608
09/07/2013  12:32:00       96.867      -30.729       32.902       74.607       85.504       55.626     5566.265     7310.962     3094.306        1.369        0.799      101.624       48.927        0.232      347.841       27.101      861.610
09/07/2013  12:33:00       89.420       46.740       83.861       84.960      114.527       85.033     7218.151    13116.539     7230.551        2.238        1.378      100.899       91.283        0.818      347.952       27.295      861.605
09/07/2013  12:34:00       79.080       55.753       98.672       96.576      161.640       95.384     9326.844    26127.340     9098.115        3.182        2.228       96.758      108.944        1.268      347.924       27.243      861.588
09/07/2013  12:35:00      122.301     -103.892        7.307       67.627       81.281       54.204     4573.440     6606.644     2938.104        1.996        0.706      160.471       42.471        0.070      347.588       26.664      861.601
09/07/2013  12:36:00       43.284      -38.690       39.139       51.330       77.409       49.806     2634.750     5992.097     2480.667        0.800        0.555       58.055       44.526        0.588      347.982       27.346      861.570
09/07/2013  12:37:00       37.335        5.118       56.381       55.659       98.015       66.686     3097.975     9606.950     4447.003        1.087        0.858       37.684       67.429        3.202      348.141       27.620      861.554
09/07/2013  12:38:00       67.702     -188.386       14.344      105.871      149.726       83.804    11208.658    22417.988     7023.121        4.046        2.032      200.182       81.083        0.164      347.736       26.920      861.525
09/07/2013  12:39:00      124.904     -168.851      -19.680       85.011       82.849       61.799     7226.841     6863.922     3819.132        3.120        0.895      210.028       62.657        0.089      347.663       26.794      861.537
09/07/2013  12:40:00      147.294     -204.166      -50.324       74.891       71.529       45.949     5608.705     5116.365     2111.303        3.937        0.642      251.752       44.991        0.032      347.588       26.660      861.524
09/07/2013  12:41:00      113.661     -129.007       -0.463       66.770       82.216       33.079     4458.296     6759.465     1094.246        2.093        0.616      171.935       47.482        0.076      347.508       26.527      861.517
09/07/2013  12:42:00       58.792      -29.529       50.882       80.001       65.413       49.933     6400.199     4278.808     2493.330        1.004        0.659       65.791       35.074        0.284      348.170       27.670      861.499
09/07/2013  12:43:00       66.095      -24.837       52.794       59.000       62.196       49.219     3480.967     3868.281     2422.494        0.877        0.489       70.608       46.200        0.428      347.938       27.270      861.498
09/07/2013  12:44:00       30.702      -49.129       17.621       37.365       57.622       45.301     1396.159     3320.328     2052.189        0.522        0.338       57.933       42.584        0.540      347.866       27.145      861.475
09/07/2013  12:45:00       38.260      -33.761       33.585       43.289       65.643       34.460     1873.977     4309.067     1187.469        0.555        0.369       51.025       36.399        0.509      347.951       27.294      861.437
09/07/2013  12:46:00      118.207       60.833       94.748       94.830       61.005       48.811     8992.738     3721.635     2382.545        2.087        0.755      132.942       33.600        0.064      347.597       26.681      861.407
09/07/2013  12:47:00      173.511      108.145      112.081      118.452       94.048       76.874    14030.829     8845.010     5909.667        4.157        1.439      204.453       67.877        0.110      347.789       27.009      861.384
09/07/2013  12:48:00      131.956      138.944      118.579       92.297       87.012       74.055     8518.665     7571.023     5484.078        3.617        1.079      191.619       59.517        0.096      347.593       26.670      861.391
09/07/2013  12:49:00       92.651       94.526      103.369       61.502       75.695       57.809     3782.504     5729.689     3341.858        2.053        0.643      132.360       50.524        0.146      347.383       26.311      861.393
09/07/2013  12:50:00       40.902       91.978      103.191       64.678       67.635       58.446     4183.263     4574.469     3415.936        1.648        0.609      100.662       48.845        0.235      347.793       27.018      861.353
09/07/2013  12:51:00      177.955      102.079       51.340       80.304       47.650       56.204     6448.663     2270.489     3158.853        2.830        0.594      205.154       38.100        0.034      347.696       26.849      861.351
09/07/2013  12:52:00       95.980       45.466       20.498       50.915       33.662       34.130     2592.320     1133.119     1164.860        0.829        0.245      106.204       21.500        0.041      347.897       27.200      861.339
09/07/2013  12:53:00      118.018       32.102       28.103      106.447       80.902       54.525    11330.894     6545.212     2972.969        1.829        1.042      122.306       18.802        0.024      348.066       27.491      861.321
09/07/2013  12:54:00      110.493       54.480       81.525      134.950       90.939       66.281    18211.528     8269.825     4393.114        2.634        1.544      123.194       73.550        0.356      348.043       27.450      861.301
09/07/2013  12:55:00      149.621     -129.507       18.157       87.827      120.017       76.368     7713.663    14404.037     5832.113        3.371        1.397      197.885       81.928        0.171      348.225       27.763      861.304
09/07/2013  12:56:00      189.093      -19.421       73.554      120.623      119.359       71.175    14549.892    14246.521     5065.814        3.770        1.693      190.087       84.612        0.198      348.109       27.562      861.292
09/07/2013  12:57:00      168.917       59.968       66.047       89.519       75.820       59.792     8013.589     5748.699     3575.053        2.691        0.867      179.246       54.890        0.094      347.860       27.134      861.289
09/07/2013  12:58:00      105.924       41.069       37.920       96.708       51.376       60.543     9352.521     2639.472     3665.451        1.500        0.783      113.607       28.663        0.064      347.900       27.203      861.262
09/07/2013  12:59:00      151.577      101.055       60.840       83.248       73.856       62.429     6930.271     5454.707     3897.381        2.658        0.814      182.175       39.137        0.046      348.022       27.413      861.261
09/07/2013  13:00:00      131.633       64.568       23.957       93.096       64.743       44.747     8666.788     4191.681     2002.334        1.846        0.743      146.616       38.771        0.070      348.032       27.431      861.254
09/07/2013  13:01:00      126.698       59.903       17.961       84.780       39.693       39.078     7187.692     1575.570     1527.099        1.512        0.515      140.146       29.559        0.044      348.112       27.569      861.249
09/07/2013  13:02:00      -10.866       26.564       11.670       41.646       56.373       26.149     1734.361     3177.961      683.755        0.328        0.280       28.700       21.236        0.547      348.493       28.229      861.235
09/07/2013  13:03:00      -29.970      -10.699       23.414       27.579       59.557       29.133      760.589     3547.058      848.729        0.336        0.258       31.822       29.163        0.840      348.847       28.843      861.215
09/07/2013  13:04:00       60.380       70.024       28.384       51.826       31.282       42.701     2685.952      978.588     1823.358        0.742        0.274       92.461       22.420        0.059      348.203       27.727      861.200
09/07/2013  13:05:00       42.720      -46.430       19.978       52.133       58.396       35.512     2717.875     3410.041     1261.100        0.588        0.369       63.094       25.699        0.166      348.332       27.950      861.172
09/07/2013  13:06:00       51.086       -6.987       27.273       52.576       38.578       36.150     2764.268     1488.241     1306.843        0.448        0.278       51.562       26.817        0.271      348.246       27.803      861.158
09/07/2013  13:07:00      114.242      -31.259       33.409       70.649       97.473       50.728     4991.276     9500.979     2573.350        1.610        0.853      118.441       53.671        0.205      348.338       27.961      861.136
09/07/2013  13:08:00        8.982      -22.635       20.483       91.766       87.836       58.923     8420.976     7715.142     3471.936        1.031        0.980       24.352       49.882        4.196      348.369       28.014      861.126
09/07/2013  13:09:00      107.156     -211.166      -29.607       72.127       67.896       44.163     5202.270     4609.847     1950.372        3.435        0.588      236.798       18.273        0.006      348.041       27.446      861.129
09/07/2013  13:10:00       25.566      -86.673       14.012       75.836       99.731       62.314     5751.131     9946.370     3882.977        1.397        0.979       90.365       68.466        0.574      348.459       28.169      861.130
09/07/2013  13:11:00      -46.028      -12.435       16.299       65.837       73.030       38.763     4334.566     5333.429     1502.566        0.685        0.559       47.678       44.631        0.876      348.179       27.686      861.122
09/07/2013  13:12:00        2.070       29.261       22.161       23.716       23.633       21.172      562.457      558.507      448.257        0.146        0.078       29.334       16.608        0.321      348.196       27.718      861.115
09/07/2013  13:13:00       36.981       19.364        6.862       34.095       15.659       23.955     1162.462      245.220      573.852        0.189        0.099       41.744        5.909        0.020      348.431       28.123      861.098
09/07/2013  13:14:00       14.389       34.468       48.083       67.674       72.540       41.257     4579.787     5262.056     1702.112        0.762        0.577       37.351       43.902        1.382      348.648       28.499      861.067
09/07/2013  13:15:00       88.669       72.607       38.945       81.219       50.664       53.072     6596.475     2566.801     2816.670        1.331        0.599      114.603       48.256        0.177      348.517       28.270      861.043
09/07/2013  13:16:00       59.463      -37.353       38.258       64.302       86.917       54.379     4134.721     7554.497     2957.041        1.052        0.732       70.222       50.844        0.524      348.407       28.081      861.033
09/07/2013  13:17:00      139.729      -64.789       49.778      111.159      137.133       76.571    12356.282    18805.404     5863.163        3.160        1.851      154.019       91.413        0.352      348.463       28.176      861.011
09/07/2013  13:18:00      177.644      -93.106       19.934       80.640       85.833       57.614     6502.832     7367.389     3319.424        2.890        0.859      200.564       50.511        0.063      348.245       27.799      860.999
09/07/2013  13:19:00      198.172     -246.842      -43.677       81.076      110.934       44.575     6573.378    12306.425     1986.901        6.148        1.043      316.549       32.252        0.010      348.347       27.972      860.952
09/07/2013  13:20:00      259.648     -241.079      -21.233      108.141      107.421       52.317    11694.582    11539.227     2737.094        7.597        1.299      354.311       50.429        0.020      348.246       27.799      860.950
09/07/2013  13:21:00      127.584      -14.414       89.503      126.776      142.525       93.345    16072.141    20313.510     8713.285        3.479        2.255      128.396      104.706        0.665      348.690       28.567      860.950
09/07/2013  13:22:00      185.311     -118.261       41.751      107.239      112.086       80.450    11500.236    12563.189     6472.123        4.030        1.527      219.831       88.170        0.161      348.388       28.045      860.945
09/07/2013  13:23:00      106.635      -15.989      110.611      130.500      183.584       94.175    17030.339    33703.261     8868.862        4.172        2.980      107.827      125.637        1.358      348.519       28.272      860.935
09/07/2013  13:24:00       57.657       78.125       95.629       52.785       50.136       33.319     2786.285     2513.668     1110.146        1.249        0.321       97.097       22.201        0.052      348.109       27.565      860.967
09/07/2013  13:25:00       82.130       68.576       84.304       47.966       47.454       33.453     2300.770     2251.900     1119.071        1.211        0.284      106.995       21.808        0.042      347.964       27.314      860.945
09/07/2013  13:26:00       97.816     -100.208       11.417       76.988       85.821       47.767     5927.153     7365.305     2281.643        1.765        0.779      140.034       45.212        0.104      348.332       27.950      860.905
09/07/2013  13:27:00       82.331      -58.665       33.485       66.242      117.771       53.359     4388.011    13869.908     2847.141        1.622        1.055      101.094       70.826        0.491      348.114       27.573      860.921
09/07/2013  13:28:00       49.908       55.004       16.140       47.630       42.476       38.135     2268.640     1804.183     1454.281        0.565        0.276       74.272       31.194        0.176      348.170       27.670      860.905
09/07/2013  13:29:00       10.152       40.706        3.723       23.305       39.267       29.504      543.107     1541.934      870.507        0.236        0.148       41.953       23.067        0.302      348.474       28.196      860.895
09/07/2013  13:30:00        3.059       -3.941       21.766       15.656        8.973        8.092      245.108       80.520       65.487        0.044        0.020        4.989        2.679        0.288      349.129       29.331      860.870
09/07/2013  13:31:00       -0.121        0.131       12.383       13.214       25.687       24.857      174.600      659.842      617.894        0.080        0.073        0.178       23.508    17457.637      348.694       28.578      860.835
09/07/2013  13:32:00       55.574       23.238        3.019       56.689       44.914       32.176     3213.641     2017.258     1035.321        0.495        0.313       60.237       25.903        0.185      348.021       27.414      860.818
09/07/2013  13:33:00       36.669       20.315       45.957       42.854       57.391       35.969     1836.427     3293.741     1293.800        0.515        0.321       41.920       36.773        0.770      348.444       28.145      860.801
09/07/2013  13:34:00      167.234      149.353      132.924       97.665       91.465       71.033     9538.448     8365.773     5045.637        4.544        1.147      224.218       66.663        0.088      348.443       28.140      860.795
09/07/2013  13:35:00      127.495      153.623      159.343      119.195      111.837       91.122    14207.371    12507.449     8303.264        5.012        1.751      199.637       85.646        0.184      348.149       27.631      860.778
09/07/2013  13:36:00      115.226      102.755       73.333       87.580       69.785       79.753     7670.287     4869.952     6360.551        2.405        0.945      154.388       68.805        0.199      348.555       28.334      860.792
09/07/2013  13:37:00      197.834      139.798       18.321      119.022       78.030       56.240    14166.344     6088.713     3162.931        4.121        1.171      242.243       41.750        0.030      348.415       28.091      860.788
09/07/2013  13:38:00      184.832      104.264       29.276       84.022       81.533       58.629     7059.736     6647.612     3437.327        3.151        0.857      212.212       47.936        0.051      348.438       28.131      860.776
09/07/2013  13:39:00      151.576       97.854       31.123       84.808       74.448       58.391     7192.428     5542.573     3409.555        2.483        0.807      180.418       40.009        0.049      348.469       28.187      860.777
09/07/2013  13:40:00      128.020       47.368       82.721       84.428      107.130       64.771     7128.108    11476.833     4195.253        2.413        1.140      136.502       69.388        0.258      348.463       28.176      860.769
09/07/2013  13:41:00      135.559       27.222       97.582      106.681       90.507       67.821    11380.749     8191.490     4599.680        2.640        1.209      138.265       71.448        0.267      348.455       28.158      860.764
09/07/2013  13:42:00      100.756      -59.935       26.803       73.763       55.673       42.217     5441.001     3099.488     1782.292        1.239        0.516      117.235       42.273        0.130      348.490       28.225      860.753
09/07/2013  13:43:00       74.765       79.154       31.424       73.384       49.654       48.828     5385.237     2465.509     2384.141        1.154        0.512      108.881       16.232        0.022      348.510       28.258      860.736
09/07/2013  13:44:00      219.919       97.057       19.935      107.433       74.778       67.513    11541.850     5591.798     4557.975        3.993        1.085      240.383       43.536        0.033      348.467       28.180      860.714
09/07/2013  13:45:00       24.552       82.780       -0.281       51.160       76.277       43.642     2617.391     5818.240     1904.643        0.890        0.517       86.345       42.837        0.246      348.551       28.328      860.691
09/07/2013  13:46:00      -11.473      143.784        6.220       53.830       75.338       40.053     2897.632     5675.825     1604.268        1.551        0.509      144.241       36.108        0.063      348.710       28.603      860.672
09/07/2013  13:47:00       49.938       10.262       36.306       60.849       88.457       59.595     3702.548     7824.598     3551.513        0.949        0.754       50.981       52.596        1.064      348.630       28.467      860.689
09/07/2013  13:48:00       94.549      -15.282       58.607      132.641      136.802       78.372    17593.565    18714.909     6142.171        2.752        2.123       95.776      104.804        1.197      348.545       28.318      860.696
09/07/2013  13:49:00      133.995      -71.020       54.359       79.514      159.621       86.160     6322.530    25478.971     7423.482        3.258        1.961      151.652      104.604        0.476      348.738       28.651      860.679
09/07/2013  13:50:00      177.084       95.090       52.005       74.344       45.601       44.889     5527.101     2079.480     2015.056        2.636        0.481      201.000       30.839        0.024      348.262       27.826      860.682
09/07/2013  13:51:00      106.503       15.619       58.214       67.742       63.841       53.520     4588.932     4075.612     2864.362        1.325        0.576      107.642       50.448        0.220      348.323       27.936      860.673
09/07/2013  13:52:00       89.826       59.868       62.029       77.552       60.957       57.227     6014.364     3715.804     3274.946        1.425        0.650      107.948       37.548        0.121      348.697       28.580      860.637
09/07/2013  13:53:00       76.400       29.199       30.867       59.914       69.837       58.037     3589.641     4877.151     3368.344        0.974        0.592       81.790       41.336        0.255      348.881       28.900      860.628
09/07/2013  13:54:00      112.690       67.542       59.692       79.168       96.184       59.837     6267.569     9251.456     3580.512        1.996        0.955      131.381       50.513        0.148      349.041       29.176      860.595
09/07/2013  13:55:00      123.146       17.035       14.416      110.246       76.352       65.912    12154.285     5829.658     4344.409        1.899        1.116      124.319       29.542        0.056      348.956       29.028      860.585
09/07/2013  13:56:00      200.152      146.547       51.456      122.120       88.057       55.995    14913.315     7754.103     3135.436        4.499        1.290      248.066       47.652        0.037      348.747       28.667      860.568
09/07/2013  13:57:00      142.940       64.448       71.414       85.886       75.368       67.906     7376.368     5680.385     4611.226        2.367        0.883      156.797       48.808        0.097      348.803       28.764      860.571
09/07/2013  13:58:00       36.533       27.040       29.564       58.131       48.921       36.799     3379.228     2393.261     1354.131        0.503        0.356       45.452       35.703        0.617      348.850       28.847      860.554
09/07/2013  13:59:00       76.173       45.518       52.866       72.511       36.456       43.159     5257.908     1329.075     1862.716        0.956        0.422       88.736       36.805        0.172      349.137       29.344      860.524
09/07/2013  14:00:00      120.399       90.968       71.410       81.248       72.998       56.766     6601.261     5328.690     3222.425        2.151        0.758      150.901       47.154        0.098      348.804       28.766      860.527
09/07/2013  14:01:00       56.608     -115.296       -9.608       73.926       73.209       41.603     5465.090     5359.517     1730.847        1.457        0.628      128.443       48.944        0.145      348.697       28.580      860.526
09/07/2013  14:02:00      128.025      -86.425       30.502       68.402      115.564       71.777     4678.894    13355.045     5151.908        2.398        1.159      154.466       85.575        0.307      348.567       28.355      860.514
09/07/2013  14:03:00      -26.567      -32.315       87.693       51.561      140.119       78.551     2658.575    19633.319     6170.202        1.895        1.423       41.834       92.299        4.868      348.994       29.095      860.476
09/07/2013  14:04:00      -33.208     -123.789        8.248       60.139       80.940       41.096     3616.758     6551.229     1688.879        1.417        0.593      128.166       36.826        0.083      348.848       28.842      860.493
09/07/2013  14:05:00       74.745      -17.096       45.269      106.112       76.795       46.097    11259.685     5897.497     2124.891        1.360        0.964       76.675       40.237        0.275      348.821       28.796      860.499
09/07/2013  14:06:00      126.677     -113.049       20.163      112.732      126.849       61.710    12708.534    16090.744     3808.136        3.091        1.630      169.786       63.390        0.139      349.058       29.205      860.485
09/07/2013  14:07:00       94.291      -35.663       41.334       62.462      107.566       52.944     3901.485    11570.483     2803.092        1.507        0.914      100.810       54.665        0.294      348.540       28.310      860.468
09/07/2013  14:08:00      143.664     -284.454      -39.706      114.546      124.213       74.948    13120.701    15428.763     5617.139        6.864        1.708      318.674       61.520        0.037      348.592       28.396      860.463
09/07/2013  14:09:00       86.782     -222.672      -31.518       81.532      101.589       68.911     6647.432    10320.286     4748.722        3.991        1.086      238.985       45.178        0.036      348.486       28.215      860.470
09/07/2013  14:10:00      -57.311     -161.642       12.543       71.577       91.760       51.554     5123.255     8419.880     2657.788        2.288        0.810      171.501       51.783        0.091      348.669       28.532      860.458
09/07/2013  14:11:00       38.168      -30.524       44.693       61.432      109.185       75.887     3773.845    11921.404     5758.897        1.292        1.073       48.872       70.724        2.094      348.912       28.954      860.447
09/07/2013  14:12:00       25.956      -27.014       73.453       65.001      104.316       69.564     4225.096    10881.843     4839.191        1.337        0.997       37.463       76.026        4.118      348.764       28.698      860.425
09/07/2013  14:13:00      125.434     -122.165        4.435       95.779      162.857       95.724     9173.623    26522.476     9163.177        3.776        2.243      175.094      118.533        0.458      348.610       28.429      860.408
09/07/2013  14:14:00       70.353      -66.175       29.879       51.398       90.795       46.123     2641.703     8243.674     2127.375        1.161        0.651       96.585       48.209        0.249      348.839       28.827      860.398
09/07/2013  14:15:00       54.669     -101.511      -11.402       65.742       75.730       62.910     4322.076     5735.083     3957.705        1.372        0.701      115.296       33.504        0.084      348.394       28.058      860.384
09/07/2013  14:16:00      191.920     -194.659      -40.038      100.212      111.365       61.209    10042.453    12402.207     3746.547        5.125        1.310      273.360       70.476        0.066      348.567       28.354      860.367
09/07/2013  14:17:00       55.951        4.537       46.399       67.416       90.418       65.029     4544.914     8175.472     4228.774        1.112        0.847       56.135       73.439        1.712      348.865       28.873      860.368
09/07/2013  14:18:00       31.896       -1.594       35.878       39.371       24.504       23.830     1550.047      600.467      567.861        0.251        0.136       31.936       20.881        0.428      348.867       28.875      860.358
09/07/2013  14:19:00       35.940      -62.195       15.199       41.925       56.111       36.763     1757.698     3148.413     1351.521        0.582        0.313       71.832       30.181        0.177      348.963       29.044      860.345
09/07/2013  14:20:00       76.246      -63.333      -15.014       59.454       55.486       42.267     3534.805     3078.686     1786.488        0.922        0.420       99.119       38.999        0.155      348.832       28.816      860.320
09/07/2013  14:21:00       -0.200        3.352       20.676       54.140       54.847       46.107     2931.160     3008.243     2125.825        0.425        0.403        3.358       36.900      120.769      348.974       29.061      860.310
09/07/2013  14:22:00       12.387        3.531       38.486       41.447       54.208       31.804     1717.839     2938.492     1011.522        0.366        0.283       12.881       30.212        5.501      349.044       29.182      860.304
09/07/2013  14:23:00       44.941       43.263       54.022       76.838       48.164       40.620     5904.146     2319.811     1650.013        0.834        0.494       62.381       37.602        0.363      348.817       28.792      860.297
09/07/2013  14:24:00       50.381       26.493       47.773       60.641       63.285       44.092     3677.279     4005.015     1944.136        0.757        0.481       56.922       43.290        0.578      348.609       28.431      860.288
09/07/2013  14:25:00       -5.729       41.817        1.111       32.128       38.476       37.645     1032.205     1480.381     1417.169        0.286        0.196       42.207       30.095        0.508      348.611       28.432      860.269
09/07/2013  14:26:00      -32.868       42.467       -0.217       30.402       22.198       22.848      924.291      492.735      522.030        0.241        0.097       53.701       11.250        0.044      349.060       29.210      860.254
09/07/2013  14:27:00      -57.780       41.882        3.092       24.354       20.469       22.062      593.141      418.991      486.727        0.330        0.075       71.363       14.289        0.040      349.092       29.265      860.242
09/07/2013  14:28:00      -38.493       34.189        2.703       39.867       25.308       28.867     1589.400      640.490      833.311        0.286        0.153       51.484       29.222        0.322      349.337       29.691      860.246
09/07/2013  14:29:00       -8.300       27.832        8.841       68.051       30.191       30.612     4630.940      911.485      937.123        0.370        0.324       29.043       34.909        1.445      349.211       29.472      860.245
09/07/2013  14:30:00      -90.528       35.586        3.808      121.550       49.970       46.144    14774.405     2497.011     2129.308        1.443        0.970       97.271       51.323        0.278      348.933       28.988      860.232
09/07/2013  14:31:00      -60.313      -10.188       -7.986       70.930       52.209       41.303     5030.994     2725.793     1705.930        0.663        0.473       61.167       42.579        0.485      348.793       28.747      860.241
09/07/2013  14:32:00       65.138      -74.664       10.973       51.617       62.195       37.136     2664.346     3868.258     1379.099        0.892        0.396       99.084       38.138        0.148      348.919       28.967      860.234
09/07/2013  14:33:00       69.981       -3.451       38.110       49.663       52.121       30.576     2466.421     2716.590      934.864        0.624        0.306       70.066       30.068        0.184      348.886       28.909      860.233
09/07/2013  14:34:00       59.649       51.083       11.714       36.850       45.744       37.169     1357.904     2092.512     1381.552        0.557        0.242       78.533       30.235        0.148      348.496       28.235      860.198
09/07/2013  14:35:00      -43.630       -0.913       -9.621       49.103       37.715       27.443     2411.086     1422.456      753.119        0.329        0.229       43.639       26.940        0.381      348.945       29.012      860.160
09/07/2013  14:36:00      -42.756      -21.947      -29.977       38.869       33.670       28.934     1510.800     1133.696      837.152        0.334        0.174       48.060       20.689        0.185      348.924       28.977      860.126
09/07/2013  14:37:00       28.124      -30.553       -3.362       26.482       47.478       25.505      701.321     2254.135      650.529        0.267        0.180       41.526       15.040        0.131      348.656       28.511      860.113
09/07/2013  14:38:00      -12.045      -43.728       -1.675       29.537       45.082       33.389      872.453     2032.352     1114.838        0.304        0.201       45.357       29.432        0.421      348.889       28.915      860.100
09/07/2013  14:39:00       19.989      -13.272       10.427       22.277       31.148       23.475      496.268      970.176      551.092        0.135        0.101       23.994       14.661        0.373      349.076       29.238      860.091
09/07/2013  14:40:00      -10.149     -127.596      -18.085       70.163       91.086       55.481     4922.800     8296.599     3078.142        1.650        0.815      127.999       55.219        0.186      349.191       29.437      860.066
09/07/2013  14:41:00      -79.176     -127.659       18.023       85.453       90.623       46.536     7302.291     8212.453     2165.627        2.028        0.884      150.219       58.106        0.150      349.108       29.292      860.081
09/07/2013  14:42:00     -127.369     -101.914        4.805       92.086       73.852       46.961     8479.872     5454.060     2205.290        2.138        0.807      163.123       50.000        0.094      349.237       29.516      860.061
09/07/2013  14:43:00     -122.646     -119.757       10.636       70.356       75.984       50.149     4949.942     5773.529     2514.873        2.136        0.662      171.417       43.224        0.064      348.967       29.047      860.045
09/07/2013  14:44:00      -41.909      -41.423      -15.185       41.643       55.336       26.896     1734.154     3062.065      723.390        0.461        0.276       58.926       19.983        0.115      349.218       29.485      860.047
09/07/2013  14:45:00      -59.984      -35.734       15.373       44.013       36.382       24.713     1937.177     1323.652      610.711        0.449        0.194       69.821       23.126        0.110      349.345       29.704      860.032
09/07/2013  14:46:00      -50.847      -24.785       17.390       66.065       48.266       26.923     4364.574     2329.643      724.870        0.546        0.371       56.566       33.376        0.348      349.341       29.698      860.036
09/07/2013  14:47:00      -42.697      -32.718        6.650       56.990       41.415       24.704     3247.885     1715.186      610.302        0.425        0.279       53.792       14.673        0.074      349.447       29.882      860.028
09/07/2013  14:48:00      -76.477      -46.766        8.426       82.915       51.102       34.596     6874.893     2611.381     1196.878        0.939        0.534       89.643       33.608        0.141      349.521       30.009      860.028
09/07/2013  14:49:00       67.843      -57.551       31.490       67.323       82.576       48.459     4532.453     6818.837     2348.265        1.130        0.685       88.966       49.010        0.303      349.341       29.697      860.040
09/07/2013  14:50:00      -31.168      -60.023       14.007       64.425       69.091       44.715     4150.606     4773.602     1999.473        0.784        0.546       67.633       50.042        0.547      349.308       29.641      860.026
09/07/2013  14:51:00      -59.622      -39.283       -4.968       49.804       45.178       28.288     2480.430     2041.082      800.207        0.522        0.266       71.400       25.473        0.127      349.097       29.275      860.023
09/07/2013  14:52:00      -68.526      -50.081       -3.412       61.034       39.219       27.425     3725.146     1538.154      752.124        0.661        0.301       84.876       29.739        0.123      349.109       29.296      860.007
09/07/2013  14:53:00     -116.516      -86.508       14.832      100.100       77.061       43.943    10019.941     5938.467     1931.006        1.958        0.894      145.120       32.126        0.049      349.147       29.360      859.991
09/07/2013  14:54:00      -48.322      -98.717        0.359       75.134       68.766       39.216     5645.139     4728.789     1537.931        1.199        0.596      109.909       25.994        0.056      349.124       29.321      859.992
09/07/2013  14:55:00     -135.076     -106.725        6.412      104.618       67.747       46.013    10944.836     4589.707     2117.164        2.366        0.883      172.150       42.045        0.060      349.222       29.490      859.983
09/07/2013  14:56:00     -119.901     -105.106      -10.025      101.847       32.274       31.081    10372.868     1041.599      966.039        1.895        0.619      159.448       40.426        0.064      348.843       28.832      859.979
09/07/2013  14:57:00      -40.399      -34.855        4.497       55.703       43.651       29.796     3102.798     1905.382      887.795        0.438        0.295       53.357       21.480        0.162      349.231       29.508      859.969
09/07/2013  14:58:00      -18.305      -22.796       11.805       26.529       35.552       22.087      703.771     1263.957      487.842        0.172        0.123       29.236       21.672        0.549      349.566       30.089      859.978
09/07/2013  14:59:00       51.118      -30.055       23.635       59.305       45.732       43.467     3517.078     2091.402     1889.379        0.578        0.375       59.299       19.675        0.110      349.033       29.164      859.961
09/07/2013  15:00:00       25.756       -0.969       29.750       42.436       28.264       25.965     1800.775      798.857      674.162        0.241        0.164       25.775       13.920        0.292      349.162       29.387      859.941
09/07/2013  15:01:00       62.081      -81.861        0.195       53.224       74.356       44.757     2832.827     5528.823     2003.213        1.046        0.518      102.739       40.473        0.155      349.170       29.402      859.935
09/07/2013  15:02:00       -5.629      -65.037       20.242       84.122       93.993       65.373     7076.435     8834.613     4273.603        1.242        1.009       65.281       56.724        0.755      349.440       29.868      859.904
09/07/2013  15:03:00      171.293     -289.059      -62.533      126.789      115.648       76.490    16075.449    13374.535     5850.761        7.605        1.765      336.001       62.878        0.035      349.002       29.107      859.890
09/07/2013  15:04:00       76.694     -131.285      -12.298      104.241      140.426       96.176    10866.274    19719.347     9249.821        3.154        1.992      152.045       89.715        0.348      349.104       29.286      859.914
09/07/2013  15:05:00       -0.658      -99.111      -11.043       63.904       59.611       51.732     4083.680     3553.478     2676.156        1.013        0.516       99.113       37.479        0.143      349.006       29.116      859.913
09/07/2013  15:06:00       68.901     -204.595      -23.889       63.889       97.974       46.537     4081.830     9598.882     2165.710        3.151        0.792      215.885       32.921        0.023      348.975       29.061      859.917
09/07/2013  15:07:00      134.195     -134.748      -36.164      132.550      147.961       84.565    17569.599    21892.489     7151.265        4.203        2.331      190.172      100.720        0.281      349.027       29.152      859.894
09/07/2013  15:08:00       71.550       11.917       97.661       98.396      203.060      112.309     9681.867    41233.338    12613.219        3.915        3.176       72.536      143.077        3.891      348.983       29.074      859.856
09/07/2013  15:09:00       39.128      -77.786       10.181       71.469       88.109       67.856     5107.797     7763.169     4604.388        1.258        0.874       87.073       67.517        0.601      349.170       29.400      859.866
09/07/2013  15:10:00       28.649     -123.024      -16.005       73.248       69.688       47.151     5365.245     4856.469     2223.190        1.433        0.622      126.316       49.502        0.154      349.297       29.620      859.861
09/07/2013  15:11:00     -108.399      -88.301       -7.271       72.216       55.307       37.424     5215.139     3058.892     1400.525        1.464        0.484      139.812       26.965        0.037      349.251       29.542      859.856
09/07/2013  15:12:00      -30.736      -40.041       -5.733       32.691       39.641       29.426     1068.730     1571.440      865.881        0.304        0.175       50.477       12.934        0.066      349.516       30.001      859.846
09/07/2013  15:13:00      -17.981      -54.335       -8.570       27.431       44.890       21.471      752.436     2015.091      460.996        0.329        0.161       57.233       16.585        0.084      349.713       30.342      859.840
09/07/2013  15:14:00      -18.029      -50.035        3.249       30.297       59.141       36.367      917.888     3497.681     1322.529        0.429        0.287       53.184       39.555        0.553      349.521       30.011      859.836
09/07/2013  15:15:00       20.961     -110.749       -8.295      100.600      135.194       52.725    10120.284    18277.416     2779.886        2.197        1.559      112.715       61.128        0.294      349.004       29.113      859.831
09/07/2013  15:16:00     -150.124     -155.678       -9.441       82.127       87.391       45.085     6744.889     7637.203     2032.669        3.164        0.821      216.270       33.612        0.024      349.203       29.455      859.838
09/07/2013  15:17:00     -119.607      -74.170        6.475       65.897       46.732       38.235     4342.445     2183.841     1461.881        1.392        0.399      140.738       28.419        0.041      349.182       29.421      859.832
09/07/2013  15:18:00     -112.184      -30.213       -2.148       56.828       32.963       21.546     3229.391     1086.563      464.229        0.914        0.239      116.181       21.418        0.034      349.134       29.338      859.806
09/07/2013  15:19:00      -38.042       13.536       16.330       34.183       31.082       23.622     1168.450      966.113      557.993        0.229        0.135       40.378       17.063        0.179      349.482       29.942      859.785
09/07/2013  15:20:00       27.727      -37.385       13.476       28.440       44.816       31.921      808.812     2008.474     1018.957        0.309        0.192       46.545       31.099        0.446      349.284       29.600      859.773
09/07/2013  15:21:00       25.351      -39.600        9.113       32.766       54.144       29.441     1073.631     2931.602      866.762        0.358        0.244       47.020       22.649        0.232      349.168       29.399      859.744
09/07/2013  15:22:00       33.840       -8.169       17.399       23.628       21.579       23.610      558.271      465.654      557.422        0.155        0.079       34.812       15.918        0.209      348.943       29.008      859.736
09/07/2013  15:23:00       41.901        5.403       -3.844       22.410       26.042       21.033      502.197      678.168      442.385        0.171        0.081       42.248       15.356        0.132      348.274       27.851      859.725
09/07/2013  15:24:00       14.941       21.353        3.453       27.226       33.577       17.516      741.245     1127.416      306.797        0.143        0.109       26.061        6.229        0.057      348.899       28.931      859.720
09/07/2013  15:25:00       45.544        0.535        2.790       25.743       18.924       21.102      662.677      358.110      445.302        0.177        0.073       45.547        5.467        0.014      348.419       28.100      859.715
09/07/2013  15:26:00       71.355       44.130        8.667       63.141       57.435       45.486     3986.835     3298.787     2069.006        0.823        0.468       83.898       34.593        0.170      348.712       28.608      859.701
09/07/2013  15:27:00       20.755      -34.850       13.229       36.256       48.548       27.679     1314.520     2356.889      766.135        0.313        0.222       40.562       22.539        0.309      349.287       29.605      859.684
09/07/2013  15:28:00       62.537       41.182       38.279       61.482       41.009       35.768     3780.073     1681.776     1279.360        0.691        0.337       74.879       25.051        0.112      349.137       29.344      859.642
09/07/2013  15:29:00       86.437       38.512       45.603       57.083       50.803       49.884     3258.424     2580.959     2488.403        0.968        0.416       94.628       37.429        0.156      348.868       28.879      859.622
09/07/2013  15:30:00       72.317       36.774       65.179       82.714      119.115       60.634     6841.650    14188.370     3676.526        1.776        1.235       81.129       67.252        0.687      349.257       29.551      859.627
09/07/2013  15:31:00       71.220     -123.522        7.418       98.930      137.624       73.585     9787.193    18940.419     5414.776        2.726        1.707      142.583       77.758        0.297      349.372       29.749      859.603
09/07/2013  15:32:00       30.542      -93.718       -6.922       80.902       84.360       49.183     6545.080     7116.616     2418.920        1.292        0.804       98.569       37.413        0.144      349.509       29.989      859.593
09/07/2013  15:33:00       34.152        8.170        1.846       52.930       48.009       42.811     2801.556     2304.858     1832.822        0.409        0.347       35.115       41.584        1.402      348.784       28.733      859.581
09/07/2013  15:34:00       26.477      -78.149       19.684       56.552       84.786       42.301     3198.157     7188.669     1789.342        0.968        0.609       82.512       43.151        0.273      349.217       29.483      859.574
09/07/2013  15:35:00       95.631       49.533       70.005       86.727      101.910       63.721     7521.652    10385.623     4060.414        1.923        1.098      107.698       56.840        0.279      349.133       29.336      859.560
09/07/2013  15:36:00       93.338       65.518        3.952       46.113       34.271       25.950     2126.427     1174.471      673.388        0.850        0.199      114.038       20.275        0.032      349.092       29.266      859.570
09/07/2013  15:37:00      107.462       37.677       31.179       92.356       98.837       64.196     8529.656     9768.731     4121.184        1.818        1.121      113.876       64.815        0.324      348.758       28.688      859.570
09/07/2013  15:38:00      176.000       37.471       13.890       96.918       93.291       61.381     9393.034     8703.162     3767.676        2.721        1.093      179.944       45.673        0.064      349.375       29.754      859.556
09/07/2013  15:39:00       56.138      -72.462       20.481       48.158       89.134       50.231     2319.233     7944.837     2523.173        1.080        0.639       91.664       45.610        0.248      349.408       29.814      859.572
09/07/2013  15:40:00      123.095     -140.525       -1.453       56.530       75.771       45.099     3195.686     5741.303     2033.892        2.293        0.549      186.814       48.903        0.069      349.264       29.562      859.581
09/07/2013  15:41:00       66.103      -76.748       -8.074       32.550       56.293       23.417     1059.512     3168.941      548.364        0.755        0.239      101.291       12.222        0.015      348.986       29.083      859.585
09/07/2013  15:42:00       58.952      -86.139        0.052       47.054       91.267       32.060     2214.046     8329.601     1027.845        1.123        0.579      104.380       39.842        0.146      349.156       29.377      859.590
09/07/2013  15:43:00       43.083      -49.047        3.163       65.266       62.822       46.279     4259.594     3946.608     2141.791        0.731        0.517       65.283       41.413        0.402      349.377       29.759      859.601
09/07/2013  15:44:00      -89.416      -37.908       -7.297       57.672       43.279       30.847     3326.091     1873.067      951.529        0.782        0.308       97.120       24.029        0.061      349.644       30.224      859.606
09/07/2013  15:45:00      -22.098      -59.365        0.574       52.469      125.152       44.092     2752.996    15662.905     1944.064        1.218        1.018       63.344       43.857        0.479      349.144       29.357      859.616
09/07/2013  15:46:00       65.623      -83.921        3.687       54.612       92.489       34.575     2982.479     8554.159     1195.462        1.204        0.637      106.532       32.060        0.091      349.155       29.373      859.629
09/07/2013  15:47:00       33.255        3.793       30.435       56.494       40.941       29.821     3191.536     1676.204      889.296        0.390        0.288       33.471       31.490        0.885      348.913       28.955      859.619
09/07/2013  15:48:00        9.332      -78.086       -2.517       98.498       56.254       29.970     9701.762     3164.510      898.221        0.997        0.688       78.642       25.219        0.103      349.361       29.734      859.638
09/07/2013  15:49:00       19.142       16.283       39.580       27.636       28.195       26.963      763.745      794.955      726.995        0.224        0.114       25.131       15.522        0.381      349.400       29.802      859.634
09/07/2013  15:50:00        7.206      -78.250        6.299       45.984       57.892       33.718     2114.569     3351.480     1136.872        0.641        0.330       78.581       27.486        0.122      349.514       29.998      859.649
09/07/2013  15:51:00      -48.477     -137.640      -11.701      101.715      100.160       51.787    10346.032    10032.021     2681.937        2.224        1.153      145.927       50.997        0.122      349.360       29.729      859.640
09/07/2013  15:52:00     -281.951     -250.841        4.307      179.693      121.873       79.941    32289.451    14853.066     6390.544        9.797        2.677      377.382       88.503        0.055      349.419       29.831      859.599
09/07/2013  15:53:00     -245.891     -166.970      -10.304      137.580      113.876       73.250    18928.220    12967.669     5365.540        6.285        1.863      297.222       79.244        0.071      349.530       30.021      859.595
09/07/2013  15:54:00     -182.040     -148.664      -25.624       69.921       64.807       35.351     4888.986     4199.972     1249.705        3.312        0.517      235.031       28.645        0.015      349.512       29.990      859.594
09/07/2013  15:55:00     -255.306     -151.798      -12.126       97.929       86.676       54.644     9590.154     7512.651     2985.984        5.423        1.004      297.025       50.289        0.029      349.540       30.039      859.568
09/07/2013  15:56:00     -304.132     -185.607       -7.744      177.889      123.092       74.138    31644.488    15151.595     5496.420        8.964        2.615      356.295       71.470        0.040      349.428       29.845      859.556
09/07/2013  15:57:00      -64.341     -274.032        4.866       60.627      132.885       44.145     3675.681    17658.390     1948.762        5.127        1.164      281.485       30.994        0.012      349.340       29.693      859.513
09/07/2013  15:58:00      -71.032      -66.424        8.581      131.687      104.032       51.109    17341.391    10822.655     2612.154        2.015        1.539       97.250       53.773        0.306      349.728       30.369      859.496
09/07/2013  15:59:00     -183.385      -42.464      -12.242      103.188       77.447       43.658    10647.756     5997.993     1906.037        2.706        0.928      188.238       49.845        0.070      349.616       30.173      859.504
09/07/2013  16:00:00      -63.494      -23.557       11.484       56.216       39.020       37.390     3160.189     1522.555     1398.023        0.540        0.304       67.723       34.561        0.260      349.784       30.469      859.477
09/07/2013  16:01:00      -22.411        6.431       16.258       47.346       63.949       37.752     2241.601     4089.471     1425.225        0.428        0.388       23.316       31.749        1.854      349.773       30.447      859.462
09/07/2013  16:02:00      -35.074      -45.513       27.345       66.759       93.412       44.270     4456.804     8725.757     1959.812        0.959        0.757       57.460       39.751        0.479      349.892       30.654      859.447
09/07/2013  16:03:00     -326.800     -163.109      -10.192      210.508      150.267       91.832    44313.495    22580.210     8433.057       10.440        3.766      365.243       99.486        0.074      349.658       30.244      859.423
09/07/2013  16:04:00     -346.858     -112.917      -21.731      158.658       97.274       66.395    25172.438     9462.281     4408.251        8.628        1.952      364.775       77.679        0.045      349.677       30.276      859.432
09/07/2013  16:05:00     -340.093      -84.397        1.645      172.843      105.216       69.043    29874.532    11070.326     4766.954        8.424        2.286      350.409       73.545        0.044      349.810       30.508      859.424
09/07/2013  16:06:00     -284.900      -55.994       -1.241      124.870      119.960       66.271    15592.548    14390.370     4391.865        5.933        1.719      290.350       65.943        0.052      349.880       30.631      859.442
09/07/2013  16:07:00     -361.856     -139.362       -1.787      186.954      152.219       81.241    34951.838    23170.628     6600.068       10.753        3.236      387.765       90.546        0.055      349.654       30.237      859.417
09/07/2013  16:08:00     -195.087     -109.884       -2.594      131.720      101.485       57.528    17350.167    10299.233     3309.422        4.054        1.548      223.905       53.395        0.057      349.777       30.451      859.421
09/07/2013  16:09:00     -259.837     -139.769        7.118      204.571      208.116       94.423    41849.207    43312.231     8915.765        9.057        4.704      295.044      102.609        0.121      349.721       30.355      859.381
09/07/2013  16:10:00     -471.599      -37.818      -18.344      177.057      170.284       72.810    31349.268    28996.606     5301.251       14.490        3.282      473.113       67.714        0.020      349.599       30.141      859.401
09/07/2013  16:11:00     -428.542       -6.496      -26.362      199.542      164.511       82.780    39817.034    27063.887     6852.458       12.904        3.687      428.591       89.743        0.044      349.705       30.325      859.411
09/07/2013  16:12:00     -367.195     -123.053      -21.070      180.213      147.533       80.819    32476.579    21766.028     6531.781       10.558        3.039      387.265       75.190        0.038      349.625       30.186      859.394
09/07/2013  16:13:00     -319.755      -81.989      -14.622      213.807      137.036       71.949    45713.472    18778.953     5176.673        8.941        3.483      330.099       94.638        0.082      349.615       30.170      859.403
09/07/2013  16:14:00     -323.045     -100.488       -9.216      142.978      109.781       50.751    20442.581    12051.892     2575.630        7.480        1.754      338.313       47.880        0.020      349.731       30.371      859.382
09/07/2013  16:15:00     -319.197     -109.509       -9.200      142.002      127.628       74.964    20164.630    16288.930     5619.567        7.801        2.104      337.459       68.495        0.041      349.751       30.405      859.390
09/07/2013  16:16:00     -501.682     -136.541      -18.016      130.050      125.737       70.186    16912.981    15809.766     4926.031       15.414        1.882      519.931       62.779        0.015      349.448       29.881      859.379
09/07/2013  16:17:00     -433.971     -130.970      -12.988      140.062      101.160       62.178    19617.486    10233.406     3866.121       11.968        1.686      453.303       67.148        0.022      349.449       29.880      859.358
09/07/2013  16:18:00     -160.886      -69.655        7.114      105.240       66.106       46.133    11075.473     4370.008     2128.254        2.418        0.879      175.318       38.015        0.047      349.763       30.430      859.361
09/07/2013  16:19:00     -272.356     -167.572        7.284      210.841      126.562       83.254    44453.839    16017.949     6931.189        8.484        3.370      319.778       99.432        0.097      349.535       30.031      859.326
09/07/2013  16:20:00     -162.814      -54.429       -6.832      128.385       74.623       48.368    16482.763     5568.631     2339.461        2.695        1.220      171.670       61.221        0.127      349.686       30.294      859.305
09/07/2013  16:21:00     -207.548      -28.413       -1.210      149.242      117.206       71.392    22273.299    13737.332     5096.816        4.249        2.055      209.483       78.474        0.140      349.901       30.668      859.315
09/07/2013  16:22:00     -295.658       -1.246      -19.634      243.356      120.311       59.023    59222.174    14474.682     3483.723        8.247        3.859      295.660       81.374        0.076      349.844       30.567      859.305
09/07/2013  16:23:00     -449.576     -113.971       -8.779      203.984      150.860       95.211    41609.657    22758.596     9065.098       14.429        3.672      463.797      106.492        0.053      349.671       30.267      859.281
09/07/2013  16:24:00     -387.322      -63.594        5.366      177.080      114.056       80.247    31357.242    13008.761     6439.534       10.244        2.540      392.508       91.970        0.055      349.715       30.342      859.285
09/07/2013  16:25:00     -418.591      -41.691      -16.001      122.776       85.096       60.206    15073.970     7241.297     3624.708       10.157        1.297      420.662       62.509        0.022      349.593       30.130      859.281
09/07/2013  16:26:00     -196.084       -9.008        7.004      122.026       91.051       56.405    14890.245     8290.205     3181.550        3.247        1.318      196.290       66.666        0.115      349.705       30.328      859.270
09/07/2013  16:27:00     -301.899      -26.622      -16.622       99.628       95.780       53.453     9925.644     9173.731     2857.247        5.704        1.098      303.070       54.497        0.032      349.607       30.157      859.264
09/07/2013  16:28:00     -197.337      -39.513        2.667       99.561       81.296       46.792     9912.400     6608.997     2189.446        2.961        0.936      201.254       40.409        0.040      349.881       30.631      859.248
09/07/2013  16:29:00      -46.921      -41.543        7.076      130.956      100.526       49.449    17149.481    10105.426     2445.174        1.683        1.485       62.668       49.077        0.613      349.799       30.492      859.225
09/07/2013  16:30:00     -183.713      -71.135      -11.323       76.345       86.208       45.454     5828.553     7431.791     2066.090        2.713        0.766      197.004       37.836        0.037      350.008       30.852      859.234
09/07/2013  16:31:00      -64.971      -67.929       26.871      104.672       87.760       48.626    10956.317     7701.884     2364.503        1.529        1.051       93.998       53.003        0.318      349.995       30.833      859.224
09/07/2013  16:32:00     -220.429      -50.996        6.621      130.250      110.361       59.677    16965.117    12179.441     3561.365        4.196        1.635      226.251       64.759        0.082      349.917       30.695      859.252
09/07/2013  16:33:00     -373.691      -63.954        3.293      191.657      105.936       78.595    36732.476    11222.496     6177.140        9.893        2.707      379.124       83.107        0.048      349.779       30.456      859.271
09/07/2013  16:34:00     -300.250      -44.154       15.169      246.834      105.941       85.801    60926.996    11223.563     7361.838        8.591        3.976      303.479      126.051        0.173      349.690       30.302      859.267
09/07/2013  16:35:00     -402.824     -148.317      -20.007      194.432      178.384       90.080    37803.687    31821.000     8114.326       13.119        3.887      429.261       92.858        0.047      349.636       30.206      859.279
09/07/2013  16:36:00     -445.494     -106.401        0.283      187.387      108.703       76.361    35113.823    11816.278     5831.042       13.126        2.638      458.025       90.746        0.039      349.545       30.047      859.268
09/07/2013  16:37:00     -308.375      -86.145       15.869      183.471      134.851       81.736    33661.559    18184.726     6680.713        8.064        2.926      320.182       88.857        0.077      349.601       30.146      859.274
09/07/2013  16:38:00     -297.448     -132.663       -1.025      152.866      140.687       71.786    23367.896    19792.880     5153.285        7.719        2.416      325.691       84.357        0.067      349.393       29.783      859.252
09/07/2013  16:39:00     -310.327     -222.561       -7.278      176.611      202.736       76.237    31191.472    41101.703     5812.133       11.198        3.905      381.885       84.763        0.049      349.500       29.970      859.248
09/07/2013  16:40:00     -524.457     -333.967      -39.138      222.793      137.918       82.156    49636.629    19021.295     6749.650       23.175        3.770      621.763       83.872        0.018      349.380       29.761      859.226
09/07/2013  16:41:00     -469.919     -124.563      -15.781      221.077      144.736       86.109    48875.157    20948.511     7414.764       15.690        3.862      486.148       96.562        0.039      349.508       29.985      859.248
09/07/2013  16:42:00     -480.138     -118.529      -16.180      181.109      147.509       70.160    32800.546    21758.883     4922.439       15.215        2.974      494.552       69.967        0.020      349.418       29.828      859.230
09/07/2013  16:43:00     -405.861      -66.102      -29.866      209.187      135.762       78.985    43759.087    18431.420     6238.694       11.919        3.421      411.208       76.528        0.035      349.536       30.032      859.240
09/07/2013  16:44:00     -623.396       57.453      -29.770      233.243      216.563      101.358    54402.108    46899.686    10273.436       25.217        5.579      626.038       98.671        0.025      349.487       29.946      859.223
09/07/2013  16:45:00     -289.433     -111.018       -7.577      124.358      133.601       62.629    15464.929    17849.240     3922.389        6.669        1.862      309.995       62.021        0.040      349.703       30.323      859.247
09/07/2013  16:46:00     -400.298       91.745      -32.794      221.509      160.444       77.830    49066.307    25742.388     6057.458       12.528        4.043      410.677       81.303        0.039      349.626       30.187      859.234
09/07/2013  16:47:00     -264.338      -39.497       -4.907      176.916      121.315       60.108    31299.185    14717.336     3613.027        6.053        2.481      267.272       68.117        0.065      349.734       30.378      859.257
09/07/2013  16:48:00     -232.629      -70.576      -12.055      161.346      171.371       84.340    26032.614    29367.894     7113.247        6.087        3.126      243.099       80.518        0.110      349.620       30.180      859.269
09/07/2013  16:49:00     -325.044     -125.028      -15.237      211.851      130.528       64.461    44881.022    17037.539     4155.227        9.378        3.304      348.261       76.040        0.048      349.465       29.909      859.259
09/07/2013  16:50:00     -228.788     -135.709      -10.911      101.914       80.395       55.741    10386.496     6463.388     3107.105        4.541        0.998      266.009       54.088        0.041      349.533       30.026      859.277
09/07/2013  16:51:00     -131.523       -7.058        9.121       59.842       72.396       43.022     3581.095     5241.201     1850.899        1.405        0.534      131.712       24.999        0.036      349.716       30.346      859.262
09/07/2013  16:52:00     -240.145      -38.466      -13.037      189.458      104.668       58.605    35894.241    10955.303     3434.547        5.479        2.514      243.206       76.920        0.100      349.780       30.457      859.277
09/07/2013  16:53:00     -223.101       -7.503      -11.978      133.727      117.400       60.193    17882.922    13782.798     3623.233        4.262        1.764      223.228       57.067        0.065      349.606       30.153      859.254
09/07/2013  16:54:00     -291.938     -202.781        6.989      175.653      162.586       93.907    30854.043    26434.110     8818.519        9.624        3.305      355.455      101.613        0.082      349.497       29.964      859.243
09/07/2013  16:55:00     -217.440     -155.435        6.783      181.378      158.077       88.128    32897.969    24988.431     7766.545        6.856        3.283      267.283      100.766        0.142      349.453       29.888      859.229
09/07/2013  16:56:00     -413.198     -185.761      -31.387      205.119      171.003       84.441    42073.732    29241.982     7130.365       14.232        3.922      453.033       93.419        0.043      349.464       29.907      859.228
09/07/2013  16:57:00     -315.006     -209.311        6.944      222.729      149.887      111.195    49608.001    22466.002    12364.425       11.375        4.222      378.207      134.059        0.126      349.468       29.916      859.225
09/07/2013  16:58:00     -197.744      -50.322       30.000      167.544      135.174       77.624    28071.124    18272.142     6025.538        4.744        2.618      204.046       94.666        0.215      349.643       30.219      859.259
09/07/2013  16:59:00     -199.607     -185.107      -15.862      165.921      136.266       79.001    27529.738    18568.533     6241.080        6.334        2.617      272.227       86.469        0.101      349.464       29.909      859.274
09/07/2013  17:00:00     -250.896      -86.375       -2.580      142.047      104.392       56.194    20177.344    10897.723     3157.777        5.232        1.712      265.348       57.207        0.046      349.569       30.091      859.265
09/07/2013  17:01:00     -196.902     -102.403        1.805      159.816      134.438       72.257    25541.130    18073.631     5221.068        4.904        2.442      221.939       76.013        0.117      349.524       30.013      859.272
09/07/2013  17:02:00     -318.789     -202.159      -18.936      174.882      165.113       84.594    30583.874    27262.144     7156.200       10.391        3.250      377.485       89.607        0.056      349.465       29.909      859.250
09/07/2013  17:03:00     -326.622     -261.743        0.959      243.201      216.030      118.055    59146.557    46669.118    13937.087       14.745        5.988      418.558      145.636        0.121      349.380       29.760      859.246
09/07/2013  17:04:00     -256.775      -94.133      -14.964      246.802      133.297       92.882    60911.310    17768.045     8627.129        8.114        4.365      273.486      119.229        0.190      349.420       29.832      859.264
09/07/2013  17:05:00      -71.770      -88.557       19.644      155.896       91.985       73.998    24303.433     8461.214     5475.650        2.580        1.912      113.988       76.854        0.455      349.567       30.088      859.268
09/07/2013  17:06:00     -292.735     -168.079       -8.882      206.676      161.516       80.745    42714.934    26087.544     6519.826        9.466        3.766      337.556       95.676        0.080      349.455       29.892      859.285
09/07/2013  17:07:00     -423.498     -199.008       -7.679      158.162      174.508       72.855    25015.365    30452.869     5307.890       13.988        3.039      467.925       75.589        0.026      349.368       29.740      859.264
09/07/2013  17:08:00     -198.391     -154.236       11.682      162.007      121.867       62.450    26246.294    14851.602     3899.957        5.413        2.250      251.292       80.827        0.103      349.546       30.052      859.281
09/07/2013  17:09:00     -471.355      -75.283      -24.586      225.106      171.186       90.071    50672.615    29304.660     8112.704       15.825        4.404      477.329       97.997        0.042      349.419       29.831      859.296
09/07/2013  17:10:00     -505.964      -92.189      -25.767      197.312      118.724       88.409    38932.174    14095.379     7816.127       16.299        3.042      514.294       94.516        0.034      349.348       29.706      859.271
09/07/2013  17:11:00     -286.355      -66.666        0.178      166.629      114.819       72.077    27765.146    13183.457     5195.028        6.628        2.307      294.013       81.940        0.078      349.402       29.800      859.284
09/07/2013  17:12:00     -397.910       33.426      -22.348      129.079      121.301       63.048    16661.409    14714.032     3975.079        9.764        1.768      399.312       61.303        0.024      349.369       29.742      859.311
09/07/2013  17:13:00     -351.687      -11.835      -24.036      169.386      113.284       62.051    28691.713    12833.194     3850.318        8.488        2.269      351.886       69.703        0.039      349.358       29.723      859.318
09/07/2013  17:14:00     -216.024      -44.573      -14.940       92.468       73.734       49.586     8550.373     5436.729     2458.747        3.266        0.822      220.575       45.318        0.042      349.504       29.976      859.334
09/07/2013  17:15:00     -231.578     -140.924        2.462      161.042       93.590       63.056    25934.384     8759.099     3976.057        5.607        1.933      271.087       68.730        0.064      349.432       29.852      859.322
09/07/2013  17:16:00     -504.195       26.582      -31.923      180.821      149.206       80.601    32696.122    22262.575     6496.502       15.868        3.073      504.895       83.759        0.028      349.282       29.591      859.311
09/07/2013  17:17:00     -485.545      -98.453      -46.687      207.493      168.364       76.723    43053.526    28346.396     5886.456       16.244        3.864      495.426       84.344        0.029      349.431       29.851      859.284
09/07/2013  17:18:00     -576.032     -105.721      -23.231      184.798      140.261       87.909    34150.172    19673.022     7728.032       20.253        3.078      585.653       97.451        0.028      349.287       29.600      859.330
09/07/2013  17:19:00     -502.459      -45.018      -16.181      183.380      129.854       88.218    33628.104    16862.173     7782.441       15.650        2.914      504.472       99.749        0.039      349.302       29.626      859.369
09/07/2013  17:20:00     -446.265      -67.318      -20.579      191.314      144.779       77.913    36601.134    20961.067     6070.402       13.386        3.182      451.314       80.021        0.031      349.219       29.482      859.365
09/07/2013  17:21:00     -440.802     -107.896      -15.685      194.870      114.341       81.762    37974.360    13073.853     6685.016       13.195        2.887      453.815       83.094        0.034      349.197       29.446      859.332
09/07/2013  17:22:00     -336.240      -64.275      -22.569      136.207      127.365       65.063    18552.259    16221.821     4233.159        7.834        1.950      342.328       60.913        0.032      349.294       29.612      859.356
09/07/2013  17:23:00     -337.293      -81.131       -5.073      117.075      125.386       58.156    13706.605    15721.742     3382.115        7.659        1.641      346.913       60.173        0.030      349.332       29.678      859.341
09/07/2013  17:24:00     -254.424      -55.803        6.552      170.671      114.578       66.140    29128.706    13128.135     4374.490        5.725        2.332      260.472       84.748        0.106      349.325       29.668      859.334
09/07/2013  17:25:00     -214.734      -62.740        6.819      104.670       94.485       51.963    10955.864     8927.394     2700.160        3.633        1.129      223.712       49.389        0.049      349.360       29.729      859.336
09/07/2013  17:26:00     -248.620      -58.406        3.603      164.154      107.759       73.196    26946.531    11612.000     5357.721        5.457        2.196      255.388       84.431        0.109      349.341       29.696      859.337
09/07/2013  17:27:00     -414.712      -84.109      -30.406      163.094      158.637       67.357    26599.504    25165.834     4536.908       11.813        2.815      423.155       65.935        0.024      349.285       29.597      859.332
09/07/2013  17:28:00     -387.166      -17.731       -7.098      152.164      146.030       76.751    23153.903    21324.777     5890.686       10.031        2.518      387.572       80.520        0.043      349.301       29.625      859.353
09/07/2013  17:29:00     -291.857       -8.718       -7.349      142.544      123.138       57.605    20318.846    15162.984     3318.313        6.205        1.940      291.987       62.113        0.045      349.282       29.593      859.352
09/07/2013  17:30:00     -221.915      -90.635       -6.591      108.952       92.212       52.895    11870.477     8503.054     2797.908        4.033        1.159      239.710       44.057        0.034      349.307       29.635      859.338
09/07/2013  17:31:00     -389.483      -63.832      -25.034      168.290      147.758       64.487    28321.624    21832.385     4158.563       10.534        2.716      394.679       59.032        0.022      349.277       29.583      859.340
09/07/2013  17:32:00     -319.917      -66.048       -4.131      114.681      108.085       61.541    13151.649    11682.357     3787.317        6.767        1.431      326.664       63.103        0.037      349.268       29.567      859.360
09/07/2013  17:33:00     -342.561      -85.866       -1.556      118.859      111.265       58.020    14127.498    12379.790     3366.349        7.729        1.494      353.158       62.403        0.031      349.239       29.518      859.370
09/07/2013  17:34:00     -189.458     -173.758        3.990      156.399      134.471       84.383    24460.774    18082.549     7120.491        5.787        2.483      257.072       86.705        0.114      349.233       29.509      859.351
09/07/2013  17:35:00     -192.707     -208.354        0.866      172.474      138.242       90.959    29747.394    19110.717     8273.491        6.883        2.857      283.809       90.452        0.102      349.196       29.444      859.362
09/07/2013  17:36:00     -196.916     -109.206       27.619      223.566      170.771       84.551    49981.785    29162.789     7148.913        6.886        4.315      225.171      107.684        0.229      349.156       29.374      859.348
09/07/2013  17:37:00     -329.655     -134.010       -6.539      200.758      158.606       66.374    40303.661    25155.887     4405.558        9.826        3.493      355.852       67.631        0.036      349.188       29.428      859.358
09/07/2013  17:38:00     -351.982      -44.872      -26.548      179.601      161.979       63.719    32256.658    26237.075     4060.114        9.457        3.128      354.830       65.804        0.034      349.199       29.447      859.355
09/07/2013  17:39:00     -449.138     -141.140      -15.162      249.603      160.230       87.905    62301.907    25673.679     7727.353       15.877        4.785      470.793      108.228        0.053      349.136       29.341      859.336
09/07/2013  17:40:00     -348.142       -7.737      -23.069      130.910      141.596       60.227    17137.321    20049.327     3627.284        8.130        2.041      348.228       51.290        0.022      349.181       29.415      859.326
09/07/2013  17:41:00     -325.458     -140.033       -0.914      159.205      143.934       82.366    25346.243    20717.081     6784.108        8.918        2.642      354.305       81.900        0.053      349.145       29.354      859.279
09/07/2013  17:42:00     -406.845     -111.150      -16.107      206.331      169.237       81.684    42572.560    28641.194     6672.353       12.800        3.894      421.755       84.724        0.040      349.159       29.378      859.288
09/07/2013  17:43:00     -522.879      -83.606      -21.170      206.259      150.553       80.427    42542.847    22666.108     6468.510       17.624        3.584      529.521       88.792        0.028      349.130       29.328      859.274
09/07/2013  17:44:00     -506.698     -111.894      -32.476      218.189      163.643       85.574    47606.257    26778.937     7322.929       17.600        4.085      518.906       90.274        0.030      349.099       29.274      859.301
09/07/2013  17:45:00     -461.417     -144.797      -26.633      176.683      188.372       83.831    31216.939    35483.827     7027.598       15.414        3.686      483.602       78.051        0.026      349.062       29.211      859.330
09/07/2013  17:46:00     -296.570      -15.715      -11.199      165.968      110.361       63.200    27545.538    12179.655     3994.205        6.601        2.186      296.987       60.799        0.042      349.176       29.408      859.349
09/07/2013  17:47:00     -397.371      -94.840      -16.564      161.847      124.523       78.403    26194.587    15505.991     6147.046       10.750        2.392      408.531       79.501        0.038      349.033       29.161      859.353
09/07/2013  17:48:00     -396.269     -108.541      -15.814      186.345      208.857       94.159    34724.293    43621.219     8865.931       12.812        4.361      410.865      117.589        0.082      349.055       29.198      859.359
09/07/2013  17:49:00     -428.235      -87.301      -32.567      139.547      154.809       73.125    19473.415    23965.845     5347.232       12.042        2.439      437.043       72.657        0.028      348.993       29.091      859.351
09/07/2013  17:50:00     -339.245     -155.359        4.072      179.066      138.232       77.938    32064.692    19107.986     6074.327        9.823        2.862      373.127       84.485        0.051      348.976       29.062      859.337
09/07/2013  17:51:00     -358.567      -74.389      -17.622      152.973      116.673       74.047    23400.818    13612.525     5482.959        8.845        2.125      366.202       79.492        0.047      349.036       29.165      859.334
09/07/2013  17:52:00     -332.599       43.885      -31.015      120.759      113.749       62.640    14582.651    12938.775     3923.739        7.247        1.572      335.481       56.628        0.028      349.027       29.152      859.347
09/07/2013  17:53:00     -350.808        9.419      -24.448      190.363       99.234       67.607    36237.890     9847.379     4570.748        8.719        2.533      350.935       93.753        0.071      349.046       29.183      859.332
09/07/2013  17:54:00     -196.851      -64.440        0.358      136.410       96.065       55.818    18607.822     9228.461     3115.654        3.692        1.548      207.129       66.234        0.102      349.127       29.325      859.345
09/07/2013  17:55:00     -439.331      -45.591      -32.211      127.978      131.317       62.416    16378.488    17244.140     3895.770       11.682        1.876      441.690       61.625        0.019      349.035       29.164      859.341
09/07/2013  17:56:00     -406.007      -89.843      -31.188      154.357      132.137       77.989    23826.162    17460.244     6082.242       11.062        2.368      415.828       82.607        0.039      349.029       29.153      859.331
09/07/2013  17:57:00     -380.102      -64.942      -32.279      155.930      130.179       72.698    24314.257    16946.610     5285.025        9.813        2.327      385.610       69.727        0.033      349.032       29.161      859.344
09/07/2013  17:58:00     -309.165       -4.351       -4.940      155.386      128.302       64.664    24144.944    16461.512     4181.398        7.020        2.239      309.196       63.548        0.042      349.096       29.269      859.363
09/07/2013  17:59:00     -461.960      -82.559      -15.375      202.256      188.013       91.776    40907.569    35348.972     8422.853       15.255        4.234      469.279       91.989        0.038      348.982       29.070      859.350
09/07/2013  18:00:00     -321.721      -38.456      -21.795      180.708      194.669       87.805    32655.516    37895.932     7709.771        9.184        3.913      324.011       96.592        0.089      348.956       29.027      859.355
09/07/2013  18:01:00     -235.335      -59.365        2.034      178.874      106.861       80.544    31996.057    11419.289     6487.390        5.440        2.495      242.707       99.334        0.168      348.959       29.034      859.373
09/07/2013  18:02:00     -173.920      -53.110        6.120       98.950       99.894       51.267     9791.130     9978.806     2628.273        2.775        1.120      181.848       48.664        0.072      349.031       29.159      859.386
09/07/2013  18:03:00     -284.898      -12.419      -10.392      134.205       98.591       70.263    18010.877     9720.206     4936.855        5.704        1.633      285.169       72.140        0.064      348.970       29.053      859.397
09/07/2013  18:04:00     -368.894      -19.957      -27.345      135.423      154.739       69.180    18339.401    23944.113     4785.839        9.214        2.353      369.434       66.947        0.033      348.909       28.946      859.405
09/07/2013  18:05:00     -261.284      -48.920       -8.540       98.627      109.263       54.284     9727.260    11938.301     2946.747        4.767        1.231      265.824       46.113        0.030      348.933       28.987      859.402
09/07/2013  18:06:00     -289.577     -107.350        6.601      186.798      130.404       74.070    34893.525    17005.264     5486.373        7.639        2.869      308.835       93.453        0.092      348.854       28.850      859.381
09/07/2013  18:07:00     -308.077       -2.835       -2.497      184.598      138.133       74.301    34076.523    19080.850     5520.581        7.679        2.934      308.090       90.842        0.087      348.857       28.856      859.407
09/07/2013  18:08:00     -522.088       28.631      -43.140      187.242      145.892       84.706    35059.537    21284.424     7175.048       16.937        3.176      522.872       83.261        0.025      348.803       28.762      859.410
09/07/2013  18:09:00     -479.879      -83.983      -20.317      200.802      154.124       85.578    40321.272    23754.170     7323.627       15.456        3.570      487.173       99.646        0.042      348.777       28.717      859.387
09/07/2013  18:10:00     -498.411      -77.175      -29.429      151.787      150.828       74.736    23039.316    22748.957     5585.418       15.329        2.569      504.350       80.177        0.025      348.774       28.711      859.383
09/07/2013  18:11:00     -346.179      -93.065       -6.583      147.742      110.588       71.945    21827.561    12229.792     5176.036        8.388        1.962      358.470       73.173        0.042      348.800       28.757      859.404
09/07/2013  18:12:00     -243.884      -94.847        0.710      148.308       92.877       53.471    21995.172     8626.060     2859.189        5.097        1.674      261.678       48.254        0.034      348.808       28.773      859.410
09/07/2013  18:13:00     -414.338      -68.918      -22.387      134.323      133.093       64.590    18042.721    17713.757     4171.841       10.842        1.996      420.031       66.050        0.025      348.752       28.673      859.409
09/07/2013  18:14:00     -314.671      -45.661       -8.042      195.626      141.452       67.612    38269.438    20008.610     4571.347        8.200        3.142      317.967       85.357        0.072      348.758       28.686      859.400
09/07/2013  18:15:00     -442.444     -118.148      -12.615      178.210      111.033       65.532    31758.819    12328.420     4294.407       12.912        2.419      457.947       76.612        0.028      348.738       28.650      859.409
09/07/2013  18:16:00     -346.364     -114.926       -6.609      140.535       93.502       65.495    19750.157     8742.626     4289.536        8.299        1.639      364.933       61.897        0.029      348.747       28.666      859.413
09/07/2013  18:17:00     -347.326      -85.437       -6.928      149.230      109.854       68.379    22269.631    12067.943     4675.714        8.349        1.951      357.680       74.081        0.043      348.724       28.626      859.389
09/07/2013  18:18:00     -253.580      -67.922       -9.288       96.733       98.759       48.324     9357.281     9753.352     2335.217        4.522        1.072      262.519       27.382        0.011      348.810       28.774      859.400
09/07/2013  18:19:00     -245.697      -95.210        2.525      125.620      120.128       61.072    15780.502    14430.814     3729.751        5.168        1.697      263.499       58.664        0.050      348.739       28.652      859.415
09/07/2013  18:20:00     -193.740      -72.585       12.504      153.579       85.971       69.070    23586.649     7390.995     4770.649        3.935        1.787      206.890       87.577        0.179      348.745       28.664      859.410
09/07/2013  18:21:00     -259.527      -55.894       -5.595      124.472       87.489       49.701    15493.162     7654.239     2470.163        4.806        1.281      265.478       38.316        0.021      348.745       28.663      859.425
09/07/2013  18:22:00     -150.771      -54.947       -1.864      115.744       75.521       46.010    13396.590     5703.404     2116.913        2.348        1.061      160.471       39.064        0.059      348.747       28.669      859.418
09/07/2013  18:23:00     -214.410      -54.051       -5.385       99.177       78.931       50.594     9836.151     6230.178     2559.801        3.377        0.931      221.118       36.744        0.028      348.696       28.578      859.425
09/07/2013  18:24:00     -380.446     -109.574       -5.775      149.211      105.102       72.722    22264.014    11046.446     5288.544        9.768        1.930      395.912       76.186        0.037      348.649       28.496      859.421
09/07/2013  18:25:00     -267.504      -83.995       13.019      145.459      100.958       62.944    21158.275    10192.429     3961.937        5.704        1.766      280.381       73.695        0.069      348.652       28.500      859.427
09/07/2013  18:26:00     -173.448      -89.912       -4.080      131.580       94.782       53.384    17313.222     8983.564     2849.871        3.366        1.457      195.368       62.703        0.103      348.632       28.467      859.423
09/07/2013  18:27:00     -301.328     -115.694      -10.932      152.922      111.183       64.739    23385.019    12361.620     4191.139        7.211        1.997      322.775       68.988        0.046      348.642       28.484      859.418
09/07/2013  18:28:00     -328.120      -84.778      -16.674      206.598      127.235       66.227    42682.861    16188.686     4386.031        8.918        3.163      338.895       64.426        0.036      348.631       28.466      859.423
09/07/2013  18:29:00     -441.612     -112.911      -23.870      178.563      147.426       76.281    31884.750    21734.423     5818.769       13.388        2.972      455.818       89.771        0.039      348.580       28.375      859.421
09/07/2013  18:30:00     -441.716     -103.985      -34.102      193.822      136.573       73.575    37567.128    18652.263     5413.333       13.435        3.082      453.791       89.216        0.039      348.573       28.363      859.411
09/07/2013  18:31:00     -277.463     -110.043       -4.321      166.755      104.941       80.144    27807.334    11012.683     6422.995        6.717        2.262      298.488       95.155        0.102      348.564       28.348      859.416
09/07/2013  18:32:00     -411.663      -79.960      -16.970      146.778      108.035       76.347    21543.822    11671.623     5828.906       10.759        1.952      419.357       77.856        0.034      348.555       28.332      859.428
09/07/2013  18:33:00     -332.587      -31.698      -14.795      126.138      110.951       60.728    15910.780    12310.217     3687.839        7.187        1.595      334.094       62.210        0.035      348.539       28.306      859.449
09/07/2013  18:34:00     -347.822     -191.998      -21.582      193.110      126.205       75.341    37291.497    15927.681     5676.231       10.859        2.945      397.295       80.101        0.041      348.551       28.326      859.458
09/07/2013  18:35:00     -328.179      -79.560       -9.975      178.267      110.157       70.026    31779.054    12134.656     4903.640        8.146        2.441      337.685       83.087        0.061      348.523       28.279      859.487
09/07/2013  18:36:00     -327.930      -33.144      -20.370      111.329      144.891       64.570    12394.187    20993.420     4169.263        7.330        1.878      329.601       60.904        0.034      348.505       28.246      859.501
09/07/2013  18:37:00     -332.987      -45.707      -16.086      141.450      128.032       71.923    20007.966    16392.154     5172.933        7.739        2.079      336.109       74.738        0.049      348.486       28.214      859.506
09/07/2013  18:38:00     -265.092       -7.155        0.333      132.439       94.714       61.937    17539.971     8970.785     3836.210        5.033        1.517      265.189       61.509        0.054      348.504       28.246      859.520
09/07/2013  18:39:00     -262.026      -93.402      -15.571      123.388      124.409       61.610    15224.591    15477.603     3795.751        5.605        1.725      278.176       60.475        0.047      348.498       28.237      859.527
09/07/2013  18:40:00     -237.850     -119.806      -15.780      128.148       85.102       55.282    16421.860     7242.308     3056.096        4.894        1.336      266.320       46.524        0.031      348.471       28.189      859.538
09/07/2013  18:41:00     -291.018      -42.817       -9.730      165.386      113.577       64.907    27352.542    12899.828     4212.877        6.553        2.223      294.151       75.191        0.065      348.434       28.124      859.542
09/07/2013  18:42:00     -343.467      -20.616      -13.319      148.191      111.781       59.919    21960.571    12495.078     3590.242        7.830        1.902      344.085       62.213        0.033      348.428       28.114      859.538
09/07/2013  18:43:00     -332.335      -61.956      -10.481      190.361      131.048       68.903    36237.169    17173.480     4747.619        8.626        2.908      338.060       83.189        0.061      348.420       28.100      859.535
09/07/2013  18:44:00     -179.025     -100.307       -7.615      110.467      122.317       66.096    12203.015    14961.370     4368.708        3.684        1.577      205.211       47.854        0.054      348.385       28.040      859.521
09/07/2013  18:45:00     -383.568      -37.653       -4.017      180.518      126.960       75.060    32586.756    16118.966     5634.039       10.144        2.717      385.412       82.432        0.046      348.382       28.035      859.529
09/07/2013  18:46:00     -302.646      -64.641      -10.417      134.677      111.532       65.578    18137.947    12439.416     4300.484        6.537        1.744      309.472       71.578        0.053      348.350       27.979      859.540
09/07/2013  18:47:00     -369.082      -56.328       -5.040      126.488      112.621       67.553    15999.180    12683.410     4563.370        8.633        1.662      373.356       70.897        0.036      348.333       27.946      859.540
09/07/2013  18:48:00     -240.257     -107.411       -3.874       98.321       96.035       54.346     9667.088     9222.652     2953.447        4.556        1.092      263.174       43.099        0.027      348.336       27.954      859.534
09/07/2013  18:49:00     -315.100      -45.308       -7.057      100.942       83.508       51.949    10189.209     6973.503     2698.683        6.062        0.993      318.341       55.473        0.030      348.298       27.887      859.534
09/07/2013  18:50:00     -241.804      -78.852       -5.125      123.792       88.366       50.924    15324.564     7808.520     2593.242        4.521        1.286      254.336       55.783        0.048      348.235       27.781      859.546
09/07/2013  18:51:00     -215.288      -39.723        3.061      117.179       93.628       48.493    13730.971     8766.196     2351.563        3.639        1.242      218.922       55.006        0.063      348.186       27.694      859.558
09/07/2013  18:52:00     -181.695      -19.202       13.351      136.633      108.392       55.687    18668.603    11748.782     3101.017        3.353        1.676      182.707       70.782        0.150      348.160       27.650      859.562
09/07/2013  18:53:00     -243.523      -70.604      -10.298      116.825      107.928       48.959    13648.004    11648.560     2397.004        4.604        1.385      253.552       54.754        0.047      348.176       27.677      859.569
09/07/2013  18:54:00     -229.298      -72.428      -10.784      129.446       88.189       50.279    16756.233     7777.366     2527.986        4.250        1.353      240.465       60.517        0.063      348.191       27.704      859.584
09/07/2013  18:55:00     -279.272      -27.444       -6.864      140.957       96.403       56.394    19868.768     9293.548     3180.277        5.556        1.617      280.617       67.650        0.058      348.139       27.615      859.602
09/07/2013  18:56:00     -298.216      -28.660      -11.417      191.664      152.590       80.643    36735.012    23283.574     6503.243        7.819        3.326      299.590       90.820        0.092      348.113       27.570      859.603
09/07/2013  18:57:00     -262.699      -21.190       -7.355      140.199       87.919       71.192    19655.659     7729.737     5068.346        5.098        1.623      263.552       70.081        0.071      348.150       27.634      859.605
09/07/2013  18:58:00     -335.715     -104.908       -5.085      151.799      105.148       62.403    23043.046    11056.133     3894.149        8.086        1.900      351.724       63.543        0.033      348.131       27.601      859.634
09/07/2013  18:59:00     -297.215      -41.606      -16.709      129.226      103.807       63.414    16699.480    10775.878     4021.299        6.092        1.575      300.113       62.022        0.043      348.118       27.579      859.626
09/07/2013  19:00:00     -401.221      -42.736       -9.510      123.991      129.470       69.136    15373.663    16762.516     4779.757        9.990        1.846      403.491       66.000        0.027      348.101       27.547      859.623
09/07/2013  19:01:00     -315.172      -45.084      -11.624      132.490      119.519       70.221    17553.660    14284.864     4931.015        6.913        1.838      318.380       77.000        0.058      348.047       27.454      859.631
09/07/2013  19:02:00     -374.790      -22.127      -19.480      116.957      106.652       70.294    13678.964    11374.743     4941.310        8.566        1.500      375.442       68.837        0.034      348.051       27.461      859.642
09/07/2013  19:03:00     -280.224      -74.781      -10.157      121.718       89.706       54.727    14815.185     8047.191     2995.011        5.503        1.293      290.031       58.556        0.041      348.027       27.419      859.643
09/07/2013  19:04:00     -259.635      -73.982        1.971      158.266      107.520       68.447    25048.231    11560.556     4684.962        5.708        2.065      269.969       82.022        0.092      347.939       27.269      859.649
09/07/2013  19:05:00     -250.904      -79.650        4.383      139.166       99.268       66.223    19367.232     9854.123     4385.453        5.145        1.680      263.243       73.902        0.079      347.955       27.298      859.662
09/07/2013  19:06:00     -258.211     -100.075       -2.804      165.917      122.909       68.771    27528.327    15106.715     4729.516        6.202        2.368      276.926       71.681        0.067      347.961       27.307      859.664
09/07/2013  19:07:00     -375.136      -80.282      -17.203      171.623      180.942       75.273    29454.400    32740.179     5666.069       10.765        3.393      383.630       71.446        0.035      347.951       27.288      859.668
09/07/2013  19:08:00     -391.112      -71.268      -24.727      184.392      100.747       70.387    34000.339    10149.948     4954.336       10.387        2.455      397.552       78.195        0.039      347.983       27.345      859.685
09/07/2013  19:09:00     -243.490     -101.830        5.443      128.661      112.908       74.485    16553.699    12748.212     5547.957        5.226        1.742      263.925       73.998        0.079      347.901       27.202      859.681
09/07/2013  19:10:00     -290.884     -131.779      -11.824      146.883       99.285       61.069    21574.726     9857.498     3729.469        6.863        1.758      319.342       70.435        0.049      347.901       27.205      859.687
09/07/2013  19:11:00     -221.402      -77.706      -12.822      121.106       94.926       59.405    14666.570     9010.949     3529.008        4.121        1.360      234.643       49.313        0.044      347.922       27.239      859.689
09/07/2013  19:12:00     -229.098      -62.409       -4.360      146.679       78.360       59.180    21514.611     6140.349     3502.259        4.377        1.558      237.447       69.425        0.085      347.850       27.114      859.700
09/07/2013  19:13:00     -252.749     -122.077       -3.750      122.494      127.264       57.127    15004.901    16196.209     3263.442        5.662        1.723      280.687       59.525        0.045      347.861       27.133      859.697
09/07/2013  19:14:00     -327.949     -197.874      -17.615      141.796      116.758       51.128    20106.081    13632.483     2614.023        9.168        1.818      383.021       49.485        0.017      347.859       27.130      859.708
09/07/2013  19:15:00     -332.808     -160.562      -12.561      119.782       91.203       68.114    14347.677     8317.984     4639.458        8.200        1.365      369.515       67.554        0.033      347.817       27.057      859.716
09/07/2013  19:16:00     -262.345      -91.902        3.863      147.115       90.294       53.565    21642.813     8153.032     2869.252        5.497        1.633      277.977       71.064        0.065      347.739       26.923      859.730
09/07/2013  19:17:00     -261.283     -102.610       -2.993      149.287      125.568       67.844    22286.605    15767.303     4602.781        6.072        2.133      280.709       74.390        0.070      347.732       26.911      859.736
09/07/2013  19:18:00     -165.222      -61.352       -0.419      127.659      109.541       69.635    16296.880    11999.196     4849.045        3.210        1.657      176.245       63.426        0.130      347.698       26.853      859.738
09/07/2013  19:19:00     -328.490     -145.590      -13.927      162.166      143.220       76.796    26297.835    20511.995     5897.685        9.099        2.635      359.308       90.875        0.064      347.720       26.890      859.747
09/07/2013  19:20:00     -210.145     -100.569        3.947      125.039      116.485       63.072    15634.631    13568.735     3978.133        4.373        1.659      232.970       69.024        0.088      347.679       26.819      859.769
09/07/2013  19:21:00     -290.334      -86.772      -13.299      114.588      116.468       60.753    13130.481    13564.767     3690.885        6.119        1.519      303.023       55.700        0.034      347.718       26.886      859.776
09/07/2013  19:22:00     -234.348     -103.099       -1.619      118.223       95.994       53.297    13976.683     9214.905     2840.612        4.579        1.302      256.025       48.585        0.036      347.687       26.833      859.796
09/07/2013  19:23:00     -145.111      -71.374        8.658      133.777      101.548       68.985    17896.260    10312.013     4758.934        2.959        1.648      161.714       71.704        0.197      347.570       26.632      859.822
09/07/2013  19:24:00     -187.479      -45.425        5.504      136.339       91.381       64.588    18588.293     8350.427     4171.625        3.417        1.556      192.904       77.836        0.163      347.586       26.661      859.845
09/07/2013  19:25:00     -286.475     -129.754      -10.951      117.910       94.332       57.039    13902.765     8898.537     3253.421        6.253        1.303      314.490       57.060        0.033      347.613       26.706      859.867
09/07/2013  19:26:00     -290.999      -71.122      -14.586      117.869       86.413       45.531    13893.005     7467.146     2073.074        5.669        1.172      299.564       44.543        0.022      347.636       26.744      859.889
09/07/2013  19:27:00     -206.754      -94.034       -2.693       98.706       59.686       54.512     9742.788     3562.416     2971.587        3.393        0.814      227.134       59.788        0.069      347.568       26.629      859.900
09/07/2013  19:28:00     -233.327      -90.147      -14.671       93.735       79.090       46.080     8786.187     6255.195     2123.330        3.997        0.858      250.136       40.399        0.026      347.573       26.639      859.917
09/07/2013  19:29:00     -188.506      -79.853        9.882       95.878       87.215       51.021     9192.543     7606.375     2603.098        3.070        0.970      204.722       51.765        0.064      347.477       26.472      859.946
09/07/2013  19:30:00     -205.442      -61.860        0.319      105.839       79.726       51.096    11201.846     6356.262     2610.767        3.310        1.008      214.553       54.679        0.065      347.443       26.412      859.954
09/07/2013  19:31:00     -221.823      -56.426        0.601       77.057       77.779       44.210     5937.815     6049.559     1954.555        3.316        0.697      228.887       37.839        0.027      347.465       26.451      859.965
09/07/2013  19:32:00     -150.167      -79.345       -0.880       70.638       73.842       42.417     4989.660     5452.683     1799.167        2.054        0.612      169.841       26.298        0.024      347.424       26.380      859.979
09/07/2013  19:33:00     -205.284      -68.864        1.595      101.126       85.411       52.721    10226.488     7294.991     2779.459        3.359        1.015      216.526       52.821        0.060      347.383       26.309      859.999
09/07/2013  19:34:00     -223.566      -58.383       -0.989      113.314       77.110       48.780    12840.121     5945.977     2379.494        3.727        1.058      231.063       57.196        0.061      347.357       26.264      860.018
09/07/2013  19:35:00     -239.884      -62.019       -1.971       94.176       78.567       41.488     8869.183     6172.782     1721.277        3.908        0.838      247.771       38.167        0.024      347.331       26.220      860.028
09/07/2013  19:36:00     -228.868      -70.453       -1.017       95.663       81.955       53.637     9151.446     6716.565     2876.953        3.804        0.937      239.466       58.041        0.059      347.306       26.177      860.043
09/07/2013  19:37:00     -230.967     -100.561       -1.654       77.579       88.754       44.332     6018.449     7877.313     1965.359        3.966        0.793      251.909       44.732        0.032      347.309       26.181      860.053
09/07/2013  19:38:00     -256.410      -74.862        2.720      101.787       81.159       45.629    10360.648     6586.863     2082.002        4.519        0.951      267.115       49.229        0.034      347.269       26.113      860.062
09/07/2013  19:39:00     -258.585      -98.264       -3.429      113.525      102.779       41.296    12887.980    10563.550     1705.319        5.084        1.258      276.626       50.181        0.033      347.264       26.101      860.069
09/07/2013  19:40:00     -285.396      -58.953       -5.700      157.387       85.125       57.037    24770.671     7246.219     3253.178        6.011        1.764      291.421       75.642        0.067      347.283       26.136      860.078
09/07/2013  19:41:00     -233.188      -45.655       -2.033      117.090       79.471       49.712    13709.978     6315.718     2471.324        3.948        1.125      237.615       58.659        0.061      347.217       26.025      860.089
09/07/2013  19:42:00     -279.561      -20.009       -9.553      106.573       72.741       53.250    11357.702     5291.313     2835.540        4.906        0.974      280.276       52.322        0.035      347.210       26.009      860.099
09/07/2013  19:43:00     -231.259      -69.973       -3.162       91.220       69.417       47.835     8321.158     4818.722     2288.196        3.690        0.771      241.613       45.918        0.036      347.161       25.926      860.101
09/07/2013  19:44:00     -254.527      -71.718       -1.660       96.548       78.150       44.627     9321.428     6107.480     1991.561        4.367        0.871      264.439       44.374        0.028      347.119       25.854      860.110
09/07/2013  19:45:00     -240.281      -72.817       -0.802      112.539       94.305       46.782    12665.055     8893.344     2188.538        4.339        1.187      251.072       47.196        0.035      347.102       25.825      860.119
09/07/2013  19:46:00     -273.867      -48.176      -11.474      101.124       86.633       47.176    10226.157     7505.269     2225.553        4.870        0.998      278.072       50.674        0.033      347.086       25.796      860.127
09/07/2013  19:47:00     -250.881      -64.860       -0.707      116.644       85.955       48.068    13605.857     7388.301     2310.519        4.522        1.165      259.130       52.167        0.041      347.062       25.755      860.135
09/07/2013  19:48:00     -258.894      -67.884       -4.255      117.105       66.355       42.917    13713.470     4402.939     1841.873        4.580        0.998      267.646       50.821        0.036      347.029       25.699      860.157
09/07/2013  19:49:00     -289.976      -73.527       -5.776      109.708       87.059       52.060    12035.923     7579.275     2710.213        5.592        1.116      299.152       54.184        0.033      347.024       25.691      860.167
09/07/2013  19:50:00     -302.984      -40.352       -2.593      113.062       85.940       58.185    12783.066     7385.726     3385.530        5.849        1.178      305.659       53.984        0.031      346.985       25.623      860.190
09/07/2013  19:51:00     -263.617      -95.966       -0.512      150.378      108.508       67.062    22613.656    11773.936     4497.373        5.879        1.944      280.542       73.199        0.068      346.949       25.562      860.205
09/07/2013  19:52:00     -311.687      -68.673      -11.486      124.131       86.364       54.132    15408.614     7458.770     2930.302        6.389        1.290      319.163       61.567        0.037      346.984       25.622      860.228
09/07/2013  19:53:00     -388.754      -57.610      -10.886      111.839       80.564       59.350    12508.036     6490.618     3522.407        8.854        1.126      393.000       58.764        0.022      346.986       25.624      860.256
09/07/2013  19:54:00     -287.184      -70.811        1.842      104.276       77.164       52.158    10873.407     5954.355     2720.437        5.352        0.977      295.785       49.768        0.028      346.895       25.468      860.272
09/07/2013  19:55:00     -306.338      -87.554       -2.530      119.792       75.341       48.999    14350.105     5676.316     2400.855        6.197        1.121      318.604       53.363        0.028      346.903       25.482      860.298
09/07/2013  19:56:00     -335.205      -81.925      -11.675      103.105       81.242       49.476    10630.640     6600.255     2447.920        6.944        0.984      345.071       53.275        0.024      346.910       25.495      860.310
09/07/2013  19:57:00     -300.678      -60.047       -1.303      137.031       98.396       59.841    18777.627     9681.787     3580.940        6.302        1.602      306.615       65.050        0.045      346.908       25.489      860.321
09/07/2013  19:58:00     -351.220      -79.948      -18.258      117.636      109.898       48.647    13838.339    12077.604     2366.528        7.918        1.414      360.204       39.211        0.012      346.947       25.558      860.332
09/07/2013  19:59:00     -288.697      -83.970        2.745      143.932      108.694       59.961    20716.341    11814.356     3595.377        6.326        1.806      300.661       69.983        0.054      346.900       25.476      860.332
09/07/2013  20:00:00     -243.062     -101.939        5.606      128.925       97.201       57.327    16621.575     9448.017     3286.359        4.942        1.468      263.573       49.031        0.035      346.887       25.455      860.339
09/07/2013  20:01:00     -282.342      -54.728      -11.936      137.154       85.374       51.644    18811.255     7288.799     2667.100        5.581        1.438      287.597       51.952        0.033      346.857       25.403      860.341
09/07/2013  20:02:00     -242.936      -96.548        6.134       98.144      102.357       51.506     9632.302    10477.057     2652.913        4.556        1.138      261.418       47.488        0.033      346.852       25.393      860.354
09/07/2013  20:03:00     -341.392      -92.079       -4.825      116.034       93.921       56.027    13464.003     8821.087     3138.991        7.523        1.271      353.592       58.601        0.027      346.830       25.358      860.355
09/07/2013  20:04:00     -377.284     -111.913      -10.040       89.196       84.571       45.997     7955.950     7152.189     2115.759        8.609        0.861      393.532       43.022        0.012      346.852       25.394      860.357
09/07/2013  20:05:00     -327.715     -109.043       -7.642      113.713       77.989       54.090    12930.624     6082.278     2925.701        7.064        1.097      345.380       50.159        0.021      346.819       25.338      860.367
09/07/2013  20:06:00     -296.514     -108.501        3.447      113.362       89.550       57.215    12850.848     8019.288     3273.555        6.192        1.207      315.742       56.349        0.032      346.786       25.280      860.373
09/07/2013  20:07:00     -351.752     -101.597       -4.778      108.499       74.046       53.011    11772.117     5482.804     2810.151        7.707        1.003      366.130       58.980        0.026      346.774       25.261      860.397
09/07/2013  20:08:00     -357.682      -84.235       -8.045      138.361       85.226       51.799    19143.669     7263.428     2683.166        8.209        1.455      367.467       60.112        0.027      346.808       25.317      860.408
09/07/2013  20:09:00     -277.868      -84.232        6.602      106.130       82.904       54.037    11263.540     6873.080     2920.049        5.270        1.053      290.355       49.767        0.029      346.779       25.268      860.427
09/07/2013  20:10:00     -239.197      -47.900       -8.610      136.150       84.341       53.542    18536.769     7113.472     2866.797        4.404        1.426      243.946       63.253        0.067      346.739       25.199      860.446
09/07/2013  20:11:00     -222.027      -78.124       -1.215       81.669       78.118       45.894     6669.866     6102.479     2106.286        3.514        0.744      235.370       44.679        0.036      346.697       25.126      860.473
09/07/2013  20:12:00     -299.266     -110.413      -16.175       90.979       85.173       43.328     8277.257     7254.505     1877.322        5.971        0.870      318.985       29.718        0.009      346.772       25.255      860.489
09/07/2013  20:13:00     -240.049      -68.492        3.261       86.785       71.470       44.379     7531.664     5107.895     1969.459        3.846        0.730      249.629       40.461        0.026      346.695       25.122      860.516
09/07/2013  20:14:00     -312.774      -82.171      -11.114       95.450       73.064       47.950     9110.749     5338.398     2299.219        6.072        0.837      323.388       43.568        0.018      346.715       25.157      860.521
09/07/2013  20:15:00     -317.084      -31.536      -24.524      100.033       90.679       48.021    10006.525     8222.612     2305.995        6.133        1.027      318.649       47.339        0.022      346.740       25.200      860.529
09/07/2013  20:16:00     -316.536      -46.276      -20.651      101.802       83.525       52.482    10363.742     6976.428     2754.335        6.142        1.005      319.901       54.480        0.029      346.699       25.131      860.551
09/07/2013  20:17:00     -271.478      -69.411      -20.479      101.687       84.399       53.068    10340.202     7123.228     2816.191        4.960        1.014      280.211       47.495        0.029      346.722       25.170      860.542
09/07/2013  20:18:00     -277.223     -101.925       -7.501      144.862      126.718       61.405    20984.943    16057.415     3770.624        6.405        2.041      295.367       56.666        0.037      346.764       25.242      860.557
09/07/2013  20:19:00     -285.274      -90.074      -19.570      111.202      101.148       49.727    12365.839    10231.012     2472.824        5.747        1.253      299.157       45.356        0.023      346.760       25.236      860.562
09/07/2013  20:20:00     -288.033      -50.951       -5.360      110.667      110.039       51.987    12247.155    12108.551     2702.670        5.632        1.353      292.505       48.436        0.027      346.720       25.167      860.576
09/07/2013  20:21:00     -278.173      -39.198      -16.763      122.620       84.293       56.150    15035.686     7105.243     3152.801        5.224        1.265      280.921       59.126        0.044      346.671       25.082      860.593
09/07/2013  20:22:00     -219.219      -91.173        1.413      101.474       99.495       49.488    10297.020     9899.354     2449.094        3.950        1.132      237.422       54.309        0.052      346.629       25.011      860.590
09/07/2013  20:23:00     -156.438      -63.811        4.812       93.138       99.779       49.954     8674.672     9955.753     2495.395        2.484        1.056      168.952       49.262        0.085      346.634       25.021      860.613
09/07/2013  20:24:00     -231.917      -59.983       -7.042      119.460       85.948       46.502    14270.592     7387.122     2162.402        4.062        1.191      239.549       53.796        0.050      346.651       25.050      860.609
09/07/2013  20:25:00     -268.548      -44.281      -16.695      120.823       89.537       48.320    14598.311     8016.827     2334.784        4.965        1.247      272.174       52.021        0.037      346.674       25.088      860.628
09/07/2013  20:26:00     -306.378      -37.664      -12.946      111.710       85.027       56.885    12479.169     7229.614     3235.932        5.919        1.147      308.684       58.944        0.036      346.693       25.119      860.635
09/07/2013  20:27:00     -321.666      -76.137      -19.768      105.632       80.588       45.567    11158.079     6494.420     2076.379        6.469        0.986      330.554       49.393        0.022      346.689       25.113      860.652
09/07/2013  20:28:00     -291.479      -80.781      -13.167      109.043       71.626       50.362    11890.455     5130.354     2536.358        5.560        0.978      302.466       46.453        0.024      346.690       25.115      860.661
09/07/2013  20:29:00     -261.819      -31.019      -15.766      122.175      100.739       57.103    14926.612    10148.317     3260.734        4.904        1.417      263.651       60.760        0.053      346.617       24.988      860.679
09/07/2013  20:30:00     -224.263      -40.050      -12.626      101.555       89.593       56.382    10313.378     8026.974     3178.923        3.678        1.076      227.811       58.320        0.066      346.618       24.991      860.690
09/07/2013  20:31:00     -174.853      -51.570       12.799      124.946      101.452       59.736    15611.442    10292.450     3568.427        3.143        1.474      182.299       62.443        0.117      346.544       24.864      860.689
09/07/2013  20:32:00     -259.161     -130.102       -8.543      136.669      111.103       72.239    18678.282    12343.819     5218.472        6.019        1.812      289.984       81.024        0.078      346.633       25.017      860.706
09/07/2013  20:33:00     -179.454      -81.945       -2.184      105.101       70.899       56.377    11046.134     5026.709     3178.338        2.908        0.963      197.278       58.819        0.089      346.597       24.956      860.729
09/07/2013  20:34:00     -189.186      -36.183      -15.527       94.043       92.985       42.139     8844.159     8646.197     1775.715        2.830        0.963      192.615       30.264        0.025      346.616       24.989      860.747
09/07/2013  20:35:00     -249.066      -15.926       -4.633       79.016       79.871       52.419     6243.601     6379.404     2747.710        3.884        0.769      249.574       47.196        0.036      346.563       24.897      860.778
09/07/2013  20:36:00     -197.211      -54.436      -10.629       82.653       86.148       43.589     6831.554     7421.553     1899.994        2.906        0.808      204.586       46.277        0.051      346.539       24.857      860.803
09/07/2013  20:37:00     -194.870      -11.225       -6.990       91.676       67.188       44.592     8404.481     4514.175     1988.476        2.653        0.745      195.193       46.362        0.056      346.540       24.859      860.826
09/07/2013  20:38:00     -220.405      -60.996      -17.866      115.276       98.032       50.965    13288.551     9610.209     2597.457        3.905        1.275      228.690       55.574        0.059      346.548       24.873      860.836
09/07/2013  20:39:00     -146.635      -28.927       -1.220       63.614       58.721       31.426     4046.734     3448.189      987.605        1.541        0.424      149.461       28.315        0.036      346.459       24.722      860.870
09/07/2013  20:40:00     -194.303      -69.454       -5.697       94.216       64.534       49.759     8876.584     4164.701     2475.922        2.906        0.776      206.343       52.969        0.066      346.525       24.832      860.882
09/07/2013  20:41:00     -206.284      -57.922        0.455      127.247       78.549       58.748    16191.841     6169.962     3451.358        3.586        1.291      214.262       68.366        0.102      346.502       24.792      860.903
09/07/2013  20:42:00     -249.181      -33.625      -11.906       78.460       71.018       38.809     6155.948     5043.491     1506.163        3.803        0.635      251.440       23.264        0.009      346.528       24.836      860.927
09/07/2013  20:43:00     -194.399      -41.112      -14.685       65.195       63.944       35.748     4250.405     4088.825     1277.885        2.466        0.481      198.699       29.883        0.023      346.536       24.852      860.965
09/07/2013  20:44:00     -229.604      -23.614      -17.310       86.425       84.293       34.450     7469.249     7105.350     1186.822        3.467        0.788      230.815       21.345        0.009      346.558       24.890      860.986
09/07/2013  20:45:00     -143.772      -13.644       10.826       86.460       86.076       39.555     7475.269     7409.137     1564.562        1.871        0.822      144.418       41.891        0.084      346.484       24.764      861.008
09/07/2013  20:46:00      -95.596      -51.728      -10.216       58.489       48.331       33.350     3420.984     2335.863     1112.190        0.939        0.343      108.693       27.623        0.065      346.497       24.787      861.044
09/07/2013  20:47:00     -121.239      -44.223        2.122       52.970       41.987       26.021     2805.776     1762.940      677.091        1.095        0.262      129.053       27.049        0.044      346.453       24.713      861.067
09/07/2013  20:48:00      -52.505        0.671        8.479       27.396       20.397       19.222      750.547      416.050      369.472        0.218        0.077       52.509       19.853        0.143      346.354       24.542      861.088
09/07/2013  20:49:00      -39.102        1.468        4.262       19.561       18.176       10.261      382.620      330.362      105.289        0.118        0.041       39.129       10.186        0.068      346.369       24.565      861.100
09/07/2013  20:50:00      -79.473       22.033       -0.423       33.119       36.157       20.867     1096.835     1307.303      435.422        0.482        0.142       82.470       17.321        0.044      346.394       24.609      861.118
09/07/2013  20:51:00      -72.414      -13.243       -3.033       28.328       29.857       17.557      802.499      891.448      308.256        0.371        0.100       73.615        7.735        0.011      346.386       24.596      861.149
09/07/2013  20:52:00      -14.436       -8.600        1.774       23.444       19.785       10.231      549.633      391.444      104.665        0.067        0.052       16.803       10.041        0.357      346.364       24.557      861.155
09/07/2013  20:53:00      -27.639        9.606        1.286       35.127       15.953       13.721     1233.913      254.506      188.271        0.127        0.084       29.261       10.810        0.136      346.260       24.382      861.164
09/07/2013  20:54:00       -5.690       20.756        5.238       19.952       10.215       10.449      398.069      104.336      109.177        0.055        0.031       21.522        6.632        0.095      346.203       24.282      861.189
09/07/2013  20:55:00      -31.608       37.749       -3.215       35.400       18.908       16.519     1253.173      357.497      272.885        0.216        0.094       49.235       13.538        0.076      346.325       24.492      861.209
09/07/2013  20:56:00      -13.632       18.744       21.272       43.684       54.322       38.450     1908.316     2950.874     1478.397        0.366        0.317       23.177       30.848        1.771      346.320       24.484      861.216
09/07/2013  20:57:00       -3.286        4.690       -2.420       19.066       17.101       13.482      363.520      292.453      181.755        0.044        0.042        5.727       13.050        5.193      346.179       24.239      861.241
09/07/2013  20:58:00       21.132       -0.995        2.060       30.226       13.211       13.716      913.590      174.533      188.121        0.086        0.064       21.155       10.425        0.243      346.009       23.948      861.263
09/07/2013  20:59:00       48.035       12.980        6.328       15.410       13.108       13.280      237.467      171.827      176.354        0.155        0.029       49.758        5.543        0.012      345.573       23.201      861.268
09/07/2013  21:00:00       71.817       48.328        7.496       22.331       19.377       18.562      498.665      375.461      344.564        0.438        0.061       86.564       10.169        0.014      345.890       23.745      861.276
09/07/2013  21:01:00       79.779       -2.464        8.610       20.619       16.957       23.331      425.154      287.539      544.333        0.385        0.063       79.817        9.603        0.014      345.303       22.738      861.286
09/07/2013  21:02:00       48.874        2.784        0.574       15.398       15.507       10.741      237.107      240.480      115.371        0.149        0.030       48.953        6.283        0.016      345.179       22.525      861.291
09/07/2013  21:03:00       51.604        8.221       -5.103       14.773       13.883       13.026      218.252      192.742      169.683        0.167        0.029       52.255        8.539        0.027      345.233       22.618      861.310
09/07/2013  21:04:00       62.011       25.967       -6.151       16.422       27.544       20.508      269.669      758.697      420.579        0.300        0.072       67.228        8.113        0.015      345.432       22.958      861.312
09/07/2013  21:05:00       41.657      -11.784        0.455       21.375       28.717       19.800      456.892      824.690      392.030        0.177        0.084       43.292        5.483        0.016      345.325       22.775      861.333
09/07/2013  21:06:00       61.080      -14.463       10.368       39.615       27.039       25.743     1569.326      731.125      662.711        0.350        0.148       62.769       14.230        0.051      345.166       22.503      861.353
09/07/2013  21:07:00       51.810        6.899        5.248       26.821       19.479       23.671      719.375      379.431      560.335        0.221        0.083       52.267       13.871        0.070      345.074       22.345      861.355
09/07/2013  21:08:00       83.068       -1.889       23.134       24.173       16.000       20.822      584.337      255.999      433.549        0.436        0.064       83.089       12.970        0.024      345.052       22.309      861.374
09/07/2013  21:09:00       37.589       -2.326       28.063       38.271       25.472       22.069     1464.675      648.823      487.029        0.240        0.130       37.661       16.641        0.195      344.593       21.521      861.389
09/07/2013  21:10:00       44.552       -4.553       28.050       35.838       34.029       27.724     1284.371     1157.963      768.634        0.300        0.161       44.784       22.975        0.263      344.616       21.561      861.396
09/07/2013  21:11:00       66.129      -19.312       24.706       34.355       25.759       23.961     1180.273      663.528      574.108        0.389        0.121       68.891       16.392        0.057      344.414       21.216      861.413
09/07/2013  21:12:00       57.846      -10.035       31.926       23.804       21.241       24.438      566.647      451.180      597.197        0.304        0.081       58.710       11.824        0.041      344.673       21.659      861.428
09/07/2013  21:13:00       34.128      -11.026       25.780       24.491       21.239       15.973      599.787      451.101      255.136        0.163        0.065       35.865       13.843        0.149      344.732       21.760      861.445
09/07/2013  21:14:00       35.367        6.596       11.678       17.227       17.739       17.270      296.757      314.666      298.253        0.117        0.045       35.977       11.427        0.101      345.116       22.416      861.458
09/07/2013  21:15:00       36.123       13.841       12.887       32.996       27.546       22.640     1088.718      758.798      512.578        0.201        0.118       38.684        7.524        0.038      344.718       21.734      861.466
09/07/2013  21:16:00       45.935        5.122       39.701       38.868       21.059       21.436     1510.731      443.479      459.495        0.306        0.121       46.220       16.161        0.122      344.544       21.438      861.462
09/07/2013  21:17:00       63.489      -16.294       24.583       32.428       28.107       25.158     1051.560      790.017      632.925        0.369        0.124       65.546       21.674        0.109      344.685       21.681      861.467
09/07/2013  21:18:00      103.309      -26.500       -7.971       31.515       25.300       28.424      993.214      640.110      807.933        0.694        0.122      106.654       21.585        0.041      344.687       21.683      861.453
09/07/2013  21:19:00       81.142      -14.522        8.130       42.883       41.709       38.400     1838.941     1739.616     1474.551        0.596        0.253       82.431       30.423        0.136      344.222       20.888      861.441
09/07/2013  21:20:00       58.368      -25.180        7.394       37.372       28.787       32.781     1396.630      828.717     1074.611        0.370        0.165       63.568       26.795        0.178      344.120       20.714      861.445
09/07/2013  21:21:00       64.304      -26.538       11.300       48.999       41.724       34.511     2400.935     1740.915     1191.013        0.515        0.267       69.564       30.921        0.198      344.261       20.954      861.447
09/07/2013  21:22:00       35.527       -7.724       19.789       37.510       31.934       25.565     1407.014     1019.796      653.561        0.240        0.154       36.357       23.021        0.401      344.468       21.308      861.465
09/07/2013  21:23:00       -4.828        5.060       24.429       20.880       33.432       13.902      435.955     1117.683      193.256        0.120        0.087        6.994       16.231        5.386      344.643       21.608      861.471
09/07/2013  21:24:00       15.508       25.613       28.446       23.613       15.323       18.121      557.557      234.792      328.359        0.141        0.056       29.942       15.051        0.253      344.477       21.323      861.481
09/07/2013  21:25:00       51.459        2.432       30.676       20.226       13.890       14.680      409.102      192.936      215.496        0.221        0.041       51.517        8.519        0.027      344.907       22.059      861.485
09/07/2013  21:26:00       60.872       -0.162       21.719       29.859       19.482       25.897      891.536      379.537      670.649        0.306        0.097       60.872       18.900        0.096      344.655       21.627      861.486
09/07/2013  21:27:00       29.421       -6.384       20.541       23.351       26.462       15.880      545.262      700.258      252.170        0.141        0.075       30.106       17.226        0.327      344.849       21.961      861.515
09/07/2013  21:28:00       35.266       -8.583       16.635       22.810       13.940       23.601      520.274      194.322      557.029        0.143        0.064       36.295       12.095        0.111      344.938       22.113      861.520
09/07/2013  21:29:00       58.605      -32.567        3.382       19.981       24.558       20.168      399.234      603.082      406.754        0.296        0.070       67.046       14.194        0.045      345.139       22.457      861.520
09/07/2013  21:30:00       59.370      -25.348       16.212       25.319       21.576       18.552      641.072      465.536      344.167        0.294        0.073       64.555       13.833        0.046      345.382       22.873      861.526
09/07/2013  21:31:00       63.657       -3.757       38.840       20.363       13.727       16.603      414.647      188.441      275.662        0.323        0.044       63.768        6.947        0.012      345.222       22.599      861.534
09/07/2013  21:32:00       44.331       19.596       29.274       36.554       45.358       25.156     1336.189     2057.346      632.818        0.362        0.201       48.468       23.624        0.238      344.904       22.054      861.520
09/07/2013  21:33:00      112.299       61.107       24.687       38.177       29.288       32.631     1457.485      857.787     1064.756        1.017        0.169      127.848       20.416        0.026      345.016       22.247      861.512
09/07/2013  21:34:00       99.984       86.871       36.810       55.007       22.877       34.212     3025.785      523.368     1170.435        1.181        0.236      132.451       20.729        0.024      345.135       22.450      861.512
09/07/2013  21:35:00       26.909       41.070       37.071       33.625       24.070       22.311     1130.637      579.387      497.798        0.300        0.110       49.100       14.634        0.089      344.730       21.756      861.529
09/07/2013  21:36:00       35.597      -24.598       -0.282       18.898       34.031       26.773      357.142     1158.121      716.801        0.205        0.112       43.269       23.005        0.283      344.378       21.154      861.551
09/07/2013  21:37:00        4.566       -9.657       16.498       21.284       25.372       21.633      453.029      643.740      467.979        0.098        0.078       10.682        6.954        0.424      344.340       21.090      861.569
09/07/2013  21:38:00       25.920      -39.063        1.595       30.881       32.766       20.445      953.630     1073.579      417.987        0.232        0.122       46.880       16.016        0.117      344.489       21.344      861.589
09/07/2013  21:39:00       76.867      -31.315        2.870       31.733       32.003       29.694     1006.969     1024.187      881.739        0.490        0.146       83.001       20.667        0.062      344.462       21.297      861.601
09/07/2013  21:40:00       20.515      -59.492       13.151       29.803       24.353       18.155      888.202      593.049      329.619        0.297        0.091       62.930        9.446        0.023      345.245       22.637      861.629
09/07/2013  21:41:00       13.476      -65.821       12.379       21.978       47.894       19.561      483.020     2293.877      382.639        0.391        0.158       67.186       23.366        0.121      345.365       22.843      861.649
09/07/2013  21:42:00        0.257       -5.324       28.988       26.773       42.874       29.362      716.811     1838.220      862.122        0.214        0.171        5.330       30.152       32.002      344.893       22.034      861.662
09/07/2013  21:43:00       39.109      -37.608       13.683       46.203       57.525       36.695     2134.694     3309.160     1346.545        0.496        0.340       54.258       30.664        0.319      344.990       22.200      861.658
09/07/2013  21:44:00       10.093       16.775       50.543       24.291       43.239       22.860      590.071     1869.649      522.593        0.296        0.149       19.577        6.066        0.096      344.497       21.359      861.649
09/07/2013  21:45:00       45.491       10.668       28.127       39.606       51.140       33.886     1568.629     2615.315     1148.254        0.415        0.267       46.725       19.560        0.175      344.484       21.335      861.631
09/07/2013  21:46:00       59.100      -37.263        9.404       51.552       36.123       33.457     2657.628     1304.869     1119.400        0.502        0.254       69.866        9.624        0.019      344.432       21.246      861.636
09/07/2013  21:47:00      -16.521        0.603        8.246       24.157       21.152       19.878      583.541      447.421      395.153        0.088        0.071       16.532       16.401        0.984      344.824       21.917      861.638
09/07/2013  21:48:00       14.140       22.587       11.761       19.003       18.542       17.535      361.102      343.807      307.470        0.093        0.051       26.648       12.388        0.216      344.993       22.206      861.663
09/07/2013  21:49:00      -78.010       56.461      -19.208       28.822       23.653       15.290      830.704      559.475      233.795        0.563        0.081       96.299       20.764        0.046      345.050       22.305      861.679
09/07/2013  21:50:00      -57.519       43.214      -10.020       19.627       27.369       19.353      385.232      749.085      374.549        0.339        0.075       71.944       19.850        0.076      345.199       22.558      861.675
09/07/2013  21:51:00        5.841       37.771       13.790       28.623       25.558       21.409      819.249      653.218      458.364        0.179        0.097       38.220       22.621        0.350      345.084       22.363      861.693
09/07/2013  21:52:00       30.834      -37.289        4.127       25.411       38.499       27.971      645.718     1482.174      782.349        0.263        0.146       48.386       18.339        0.144      344.570       21.484      861.700
09/07/2013  21:53:00       34.248      -13.204       12.940       29.667       29.017       25.151      880.150      842.011      632.596        0.193        0.118       36.705       24.454        0.444      344.710       21.723      861.705
09/07/2013  21:54:00       -2.868      -34.843       12.222       20.307       21.959       14.730      412.383      482.213      216.971        0.124        0.056       34.961       11.314        0.105      344.947       22.126      861.711
09/07/2013  21:55:00      -13.879      -38.126        2.682       39.798       39.999       24.113     1583.888     1599.942      581.451        0.271        0.188       40.574       19.043        0.220      345.485       23.050      861.721
09/07/2013  21:56:00      -64.840     -107.427       -1.627       40.376       41.117       34.858     1630.216     1690.603     1215.057        1.014        0.227      125.479       23.714        0.036      345.780       23.556      861.740
09/07/2013  21:57:00      -60.784      -69.688        6.503       35.477       60.984       31.941     1258.620     3719.005     1020.205        0.729        0.300       92.472       33.165        0.129      345.710       23.436      861.752
09/07/2013  21:58:00        1.662       -5.286       13.859       50.868       37.692       26.017     2587.530     1420.671      676.882        0.245        0.234        5.541       22.574       16.598      345.553       23.167      861.779
09/07/2013  21:59:00      -21.205      -15.881       -5.339       44.491       30.024       15.661     1979.426      901.439      245.256        0.193        0.156       26.493        8.131        0.094      345.683       23.390      861.798
09/07/2013  22:00:00     -156.146      -65.417       -0.937       51.992       32.939       21.625     2703.145     1084.986      467.657        1.646        0.213      169.295       21.577        0.016      345.427       22.950      861.806
09/07/2013  22:01:00     -185.287      -59.992       -7.448       33.093       28.196       19.451     1095.123      795.000      378.323        2.013        0.113      194.757       12.310        0.004      345.649       23.330      861.821
09/07/2013  22:02:00     -119.544      -58.929       -4.324       67.623       35.681       22.035     4572.863     1273.099      485.529        1.206        0.317      133.279       28.528        0.046      345.673       23.373      861.823
09/07/2013  22:03:00      -64.622      -35.757        2.051       23.473       20.224       12.206      550.987      409.028      148.991        0.328        0.055       73.855       11.465        0.024      345.804       23.595      861.821
09/07/2013  22:04:00      -90.455      -21.755       -2.798       27.824       24.798       10.592      774.179      614.955      112.199        0.508        0.075       93.034       11.873        0.016      345.599       23.245      861.814
09/07/2013  22:05:00      -75.151      -15.824        3.549       34.314       29.977       15.497     1177.451      898.644      240.159        0.411        0.116       76.799       15.006        0.038      345.279       22.696      861.814
09/07/2013  22:06:00      -93.535      -22.229       -0.916       35.929       24.534       18.767     1290.886      601.896      352.216        0.574        0.112       96.140       14.135        0.022      345.353       22.821      861.819
09/07/2013  22:07:00     -104.483       18.311       -2.714       31.686       22.032       17.273     1004.029      485.411      298.341        0.652        0.089      106.076       14.791        0.019      345.255       22.654      861.827
09/07/2013  22:08:00      -61.246        8.580       -5.777       39.615       21.172       15.132     1569.384      448.252      228.975        0.305        0.112       61.844       16.287        0.069      345.100       22.389      861.828
09/07/2013  22:09:00     -121.558      -15.722      -11.008       29.325       25.967       15.049      859.936      674.280      226.460        0.845        0.088      122.571       11.217        0.008      345.327       22.778      861.819
09/07/2013  22:10:00      -97.885        5.751       -4.679       36.328       27.133       15.044     1319.750      736.178      226.325        0.596        0.114       98.054       17.342        0.031      345.174       22.517      861.807
09/07/2013  22:11:00     -111.522        1.855       -5.930       37.383       34.573       18.949     1397.463     1195.293      359.047        0.771        0.148      111.537       20.938        0.035      345.168       22.506      861.809
09/07/2013  22:12:00     -162.087      -55.991       -0.836       58.831       45.724       29.813     3461.088     2090.683      888.786        1.792        0.322      171.485       29.886        0.030      345.092       22.374      861.825
09/07/2013  22:13:00     -190.724      -61.042        0.613       86.282       60.776       32.549     7444.555     3693.776     1059.448        2.615        0.610      200.255       37.120        0.034      345.412       22.920      861.833
09/07/2013  22:14:00     -171.371      -18.639       -7.236       46.757       32.980       23.938     2186.207     1087.654      573.009        1.681        0.192      172.382       22.645        0.017      345.535       23.135      861.839
09/07/2013  22:15:00      -65.098       71.863      -13.551       47.287       34.851       20.100     2236.064     1214.613      404.017        0.672        0.193       96.964       19.752        0.041      345.876       23.721      861.827
09/07/2013  22:16:00       -6.751        1.828        4.771      106.937       54.121       35.627    11435.547     2929.044     1269.285        0.785        0.782        6.994       37.431       28.642      345.467       23.020      861.754
09/07/2013  22:17:00     -136.910       28.399      -19.291       48.266       72.140       28.812     2329.585     5204.234      830.152        1.414        0.418      139.825       21.391        0.023      345.503       23.080      861.810
09/07/2013  22:18:00      -91.366      -51.130        2.318       52.212       31.924       27.589     2726.086     1019.146      761.173        0.774        0.225      104.700       19.189        0.034      345.387       22.881      861.823
09/07/2013  22:19:00      -90.707      -67.726        3.202       54.304       44.704       21.965     2948.931     1998.404      482.449        0.913        0.271      113.201       23.794        0.044      345.565       23.187      861.826
09/07/2013  22:20:00     -103.051       -3.543       -6.752       96.157       54.880       28.639     9246.230     3011.827      820.179        1.188        0.654      103.112       31.641        0.094      345.339       22.797      861.830
09/07/2013  22:21:00     -294.200      -69.254       -5.538       79.422       68.485       39.222     6307.795     4690.171     1538.349        5.196        0.627      302.241       34.316        0.013      345.156       22.481      861.846
09/07/2013  22:22:00     -233.101      -84.319       -2.887       84.077       88.691       42.728     7068.920     7866.089     1825.653        3.910        0.838      247.883       40.535        0.027      345.126       22.431      861.848
09/07/2013  22:23:00     -203.634      -63.105        7.845       94.790       71.343       49.908     8985.186     5089.777     2490.839        3.103        0.828      213.188       47.316        0.049      345.223       22.597      861.852
09/07/2013  22:24:00     -216.651      -81.835       -2.684       86.999       82.065       42.149     7568.821     6734.659     1776.552        3.486        0.804      231.592       39.472        0.029      345.292       22.714      861.856
09/07/2013  22:25:00     -191.530      -62.855       -9.976       96.751       90.785       54.181     9360.841     8241.855     2935.619        3.063        1.027      201.580       55.422        0.076      345.591       23.229      861.851
09/07/2013  22:26:00     -211.724      -62.852       -6.206      112.155       92.551       44.284    12578.707     8565.639     1961.097        3.596        1.155      220.856       33.772        0.023      345.872       23.709      861.856
09/07/2013  22:27:00     -324.891      -93.459      -11.274      189.814      101.261       51.925    36029.478    10253.757     2696.159        8.169        2.449      338.067       53.786        0.025      345.968       23.874      861.858
09/07/2013  22:28:00     -349.162      -82.804       -8.202      160.456      106.413       68.184    25746.182    11323.735     4649.041        8.527        2.086      358.846       78.933        0.048      346.108       24.114      861.864
09/07/2013  22:29:00     -216.870     -140.309       -2.293      104.016       81.276       48.335    10819.293     6605.859     2336.280        4.324        0.988      258.301       51.479        0.040      346.042       24.001      861.852
09/07/2013  22:30:00     -212.118      -75.942        0.674      120.161       97.595       54.522    14438.711     9524.854     2972.696        3.884        1.347      225.302       54.079        0.058      345.910       23.774      861.855
09/07/2013  22:31:00     -222.111      -53.331      -10.348      117.929       96.688       51.932    13907.312     9348.496     2696.913        3.911        1.298      228.424       65.717        0.083      345.874       23.715      861.863
09/07/2013  22:32:00     -340.486      -68.681      -18.883      125.237       74.709       52.283    15684.256     5581.449     2733.487        7.250        1.200      347.344       60.189        0.030      345.878       23.719      861.867
09/07/2013  22:33:00     -151.450      -88.731        2.664       83.529       70.622       42.069     6977.060     4987.443     1769.829        2.227        0.687      175.529       35.064        0.040      345.779       23.551      861.866
09/07/2013  22:34:00     -115.649      -97.113       11.797       97.206       84.349       58.976     9448.938     7114.698     3478.182        2.149        1.002      151.015       61.015        0.163      345.766       23.529      861.847
09/07/2013  22:35:00     -290.660      -60.338       -1.827      138.244      123.710       61.024    19111.295    15304.148     3723.885        6.313        1.907      296.857       63.507        0.046      345.855       23.680      861.839
09/07/2013  22:36:00     -238.293     -122.945       -6.818       89.826       92.054       53.070     8068.772     8473.859     2816.406        4.565        0.968      268.140       37.014        0.019      345.937       23.821      861.829
09/07/2013  22:37:00     -140.459      -99.803        0.592       79.432       83.331       41.966     6309.469     6944.020     1761.187        2.235        0.751      172.307       37.620        0.048      345.947       23.840      861.835
09/07/2013  22:38:00     -110.684      -64.034       -2.004       65.828       74.622       39.332     4333.278     5568.486     1547.002        1.390        0.572      127.872       34.526        0.073      345.904       23.766      861.841
09/07/2013  22:39:00     -101.854       -5.125        2.074       60.270       54.661       33.508     3632.512     2987.874     1122.771        0.907        0.387      101.983       38.990        0.146      345.777       23.550      861.854
09/07/2013  22:40:00     -119.176      -26.549        1.363       61.748       51.608       28.242     3812.869     2663.414      797.614        1.109        0.364      122.097       34.686        0.081      345.792       23.577      861.840
09/07/2013  22:41:00     -164.950      -33.733       -1.400       69.875       60.268       34.506     4882.447     3632.206     1190.656        1.902        0.485      168.364       35.642        0.045      345.784       23.559      861.834
09/07/2013  22:42:00     -101.915      -14.197       -5.573       64.244       42.583       27.274     4127.257     1813.273      743.889        0.865        0.334      102.899       28.687        0.078      345.724       23.458      861.834
09/07/2013  22:43:00     -149.387       10.096      -10.972       76.754       42.035       31.308     5891.162     1766.913      980.191        1.559        0.432      149.727       35.461        0.056      345.601       23.247      861.842
09/07/2013  22:44:00     -246.993      -57.933      -18.147       95.267       71.403       45.348     9075.831     5098.372     2056.408        4.046        0.812      253.696       47.244        0.035      345.647       23.323      861.841
09/07/2013  22:45:00     -243.852      -89.932      -18.893      130.523       64.536       39.706    17036.123     4164.906     1576.602        4.534        1.139      259.907       49.772        0.037      345.657       23.341      861.826
09/07/2013  22:46:00     -148.834      -28.228        2.511       77.036       65.977       39.400     5934.556     4352.978     1552.379        1.739        0.592      151.487       41.516        0.075      345.589       23.227      861.820
09/07/2013  22:47:00     -110.627       70.830      -13.650       45.344       46.850       22.857     2056.034     2194.909      522.441        1.111        0.239      131.359       16.663        0.016      345.449       22.988      861.849
09/07/2013  22:48:00     -107.502       37.110        1.012       64.547       58.441       30.945     4166.317     3415.349      957.605        1.074        0.427      113.727       32.248        0.080      345.325       22.774      861.847
09/07/2013  22:49:00     -104.311      -32.918       -2.962       66.376       43.302       33.227     4405.798     1875.106     1104.009        0.968        0.369      109.382       33.250        0.092      345.353       22.821      861.850
09/07/2013  22:50:00      -78.489      -42.379       -4.306       39.905       33.110       22.363     1592.446     1096.295      500.121        0.558        0.159       89.200       13.557        0.023      345.347       22.814      861.855
09/07/2013  22:51:00     -138.991       -1.663      -12.747       43.440       42.130       26.611     1887.061     1774.951      708.145        1.193        0.219      139.001       21.285        0.023      345.340       22.800      861.871
09/07/2013  22:52:00     -114.591      -14.920       -0.145       63.898       46.569       26.943     4083.000     2168.655      725.947        1.016        0.349      115.558       30.182        0.068      345.269       22.676      861.876
09/07/2013  22:53:00     -169.484      -20.164      -20.725       73.562       44.840       27.766     5411.427     2010.617      770.966        1.888        0.410      170.679       28.004        0.027      345.219       22.592      861.875
09/07/2013  22:54:00     -191.342        6.450      -18.416       66.748       46.272       27.903     4455.346     2141.108      778.550        2.218        0.369      191.451       32.506        0.029      345.229       22.607      861.880
09/07/2013  22:55:00      -97.017       78.554       -5.076       51.747       34.494       31.939     2677.740     1189.850     1020.081        1.025        0.244      124.832       27.758        0.049      345.164       22.500      861.880
09/07/2013  22:56:00      -38.074       88.144      -12.643       24.003       20.397       16.073      576.140      416.054      258.339        0.531        0.063       96.015        9.306        0.009      345.125       22.433      861.874
09/07/2013  22:57:00       -6.143       95.412      -10.986       14.085       22.144       16.743      198.375      490.354      280.333        0.512        0.048       95.609       14.937        0.024      345.147       22.470      861.870
09/07/2013  22:58:00      -47.967       69.765      -11.779       24.700       64.929       15.508      610.102     4215.746      240.495        0.619        0.253       84.664       15.934        0.035      345.071       22.340      861.870
09/07/2013  22:59:00      -48.458       40.661       -8.999       27.754       22.409       18.946      770.290      502.185      358.955        0.286        0.082       63.257       19.948        0.099      344.955       22.141      861.878
09/07/2013  23:00:00      -57.702       71.060      -11.629       26.631       29.997       15.150      709.192      899.842      229.534        0.518        0.092       91.537       17.141        0.035      344.974       22.173      861.884
09/07/2013  23:01:00      -93.754       74.846      -14.678       27.852       35.477       16.060      775.747     1258.632      257.932        0.845        0.115      119.966       17.462        0.021      345.178       22.522      861.898
09/07/2013  23:02:00     -101.554       28.612      -13.183       20.781       20.249       13.923      431.858      410.033      193.861        0.617        0.052      105.507       10.436        0.010      345.082       22.359      861.912
09/07/2013  23:03:00      -98.266       -6.468      -14.280       31.205       28.575       15.210      973.721      816.530      231.335        0.596        0.101       98.479       14.625        0.022      345.092       22.377      861.913
09/07/2013  23:04:00      -73.407      -11.417       -4.560       25.986       24.380       17.392      675.270      594.406      302.499        0.356        0.079       74.289       16.315        0.048      345.013       22.242      861.904
09/07/2013  23:05:00     -111.776      -22.601      -11.915       30.616       24.828       18.120      937.316      616.416      328.338        0.751        0.094      114.038       15.961        0.020      344.938       22.114      861.911
09/07/2013  23:06:00     -135.814      -32.262      -12.339       36.921       27.682       19.313     1363.147      766.307      373.003        1.107        0.125      139.593       17.804        0.016      344.800       21.876      861.918
09/07/2013  23:07:00     -136.867      -29.149       -7.220       28.249       30.344       15.941      798.027      920.777      254.106        1.080        0.099      139.936        9.829        0.005      344.857       21.972      861.926
09/07/2013  23:08:00     -115.956       35.237       -5.642       32.915       25.375       18.257     1083.400      643.912      333.305        0.839        0.103      121.192       19.347        0.025      345.023       22.257      861.920
09/07/2013  23:09:00     -129.268       -3.227      -18.499       21.337       25.256       15.272      455.279      637.841      233.232        0.919        0.066      129.309       12.881        0.010      345.048       22.300      861.918
09/07/2013  23:10:00      -92.122      -56.278       -4.321       37.992       29.093       16.890     1443.417      846.397      285.258        0.712        0.129      107.952       10.022        0.009      344.866       21.989      861.917
09/07/2013  23:11:00     -111.008      -36.178       -3.855       29.553       32.230       19.993      873.407     1038.805      399.710        0.798        0.116      116.754       18.760        0.026      344.888       22.026      861.907
09/07/2013  23:12:00     -111.336        1.762       -8.639       21.643       17.917       14.212      468.422      321.025      201.990        0.673        0.050      111.350       11.272        0.010      344.894       22.037      861.900
09/07/2013  23:13:00      -98.232        0.147       -7.307       25.817       18.799       11.847      666.533      353.417      140.345        0.543        0.058       98.232       10.639        0.012      344.794       21.865      861.911
09/07/2013  23:14:00      -76.356      -11.544       -2.282       38.174       29.708       17.405     1457.245      882.564      302.919        0.431        0.132       77.224       16.240        0.044      344.724       21.746      861.912
09/07/2013  23:15:00     -128.863       21.309       -7.511       22.251       20.923       11.816      495.114      437.785      139.615        0.909        0.054      130.613        9.433        0.005      344.946       22.126      861.909
09/07/2013  23:16:00     -201.622       20.572      -25.047       84.825       63.851       32.452     7195.287     4076.917     1053.135        2.701        0.616      202.669       34.183        0.028      344.988       22.194      861.908
09/07/2013  23:17:00     -149.337      -53.576       -8.319       48.895       39.517       25.837     2390.739     1561.598      667.529        1.493        0.231      158.657       22.105        0.019      345.066       22.332      861.917
09/07/2013  23:18:00     -154.078      -34.398        7.337       92.281       91.153       44.556     8515.745     8308.826     1985.266        2.189        0.940      157.871       54.019        0.117      345.120       22.421      861.925
09/07/2013  23:19:00     -181.002      -27.289      -16.056       96.826       61.767       36.306     9375.296     3815.208     1318.119        2.413        0.725      183.047       42.185        0.053      344.967       22.159      861.938
09/07/2013  23:20:00      -79.913      -24.122        4.576       46.022       31.715       22.008     2118.032     1005.867      484.368        0.530        0.180       83.475       22.230        0.071      344.918       22.077      861.943
09/07/2013  23:21:00     -113.016      -42.790       -1.773       27.980       25.355       17.674      782.908      642.887      312.387        0.817        0.087      120.846       14.193        0.014      345.035       22.278      861.957
09/07/2013  23:22:00      -76.035      -47.838        2.597       38.709       33.285       20.042     1498.403     1107.872      401.666        0.554        0.150       89.832       20.620        0.053      345.041       22.289      861.971
09/07/2013  23:23:00     -142.633      -46.065        2.554       43.349       37.995       24.181     1879.147     1443.622      584.703        1.319        0.195      149.888       20.845        0.019      345.055       22.313      861.988
09/07/2013  23:24:00     -162.181      -29.803       -6.375       80.036       40.488       28.855     6405.698     1639.257      832.605        1.805        0.444      164.896       39.590        0.058      345.113       22.410      861.993
09/07/2013  23:25:00      -69.794      -19.623        1.449       40.031       33.117       23.355     1602.508     1096.757      545.443        0.425        0.162       72.500       19.215        0.070      344.958       22.146      862.014
09/07/2013  23:26:00       19.436      -49.066       -5.216       41.293       35.376       24.681     1705.152     1251.464      609.162        0.319        0.178       52.775       15.438        0.086      344.016       20.535      862.028
09/07/2013  23:27:00        8.686      -18.320       -2.301       23.260       16.942       20.512      541.037      287.033      420.749        0.083        0.062       20.275        9.053        0.199      344.123       20.718      862.037
09/07/2013  23:28:00       29.770       -1.877        0.944       35.809       26.346       18.913     1282.317      694.098      357.700        0.161        0.117       29.829       10.687        0.128      344.120       20.714      862.049
09/07/2013  23:29:00       43.215        7.785       15.914       28.053       23.495       19.545      786.957      552.032      381.995        0.195        0.086       43.910       13.246        0.091      344.200       20.850      862.065
09/07/2013  23:30:00       35.111        1.584       13.303       20.946       19.206       21.366      438.729      368.852      456.493        0.134        0.063       35.147        9.450        0.072      344.029       20.557      862.092
09/07/2013  23:31:00       85.453       43.497       17.972       37.517       28.751       25.902     1407.492      826.597      670.926        0.621        0.145       95.886       13.747        0.021      344.200       20.850      862.104
09/07/2013  23:32:00      115.467       77.538       10.900       32.137       19.502       22.631     1032.787      380.321      512.164        1.069        0.096      139.085       20.085        0.021      344.238       20.915      862.100
09/07/2013  23:33:00      121.733       74.884       38.298       48.361       36.166       31.457     2338.741     1307.958      989.523        1.326        0.232      142.921       20.873        0.021      344.213       20.873      862.099
09/07/2013  23:34:00       89.742       66.410       32.720       42.546       31.922       32.319     1810.173     1018.993     1044.497        0.870        0.194      111.642       19.799        0.031      344.282       20.989      862.107
09/07/2013  23:35:00       84.884       55.826       26.080       27.811       24.954       22.737      773.472      622.692      516.957        0.646        0.096      101.596       14.207        0.020      344.216       20.878      862.119
09/07/2013  23:36:00       62.231       52.313       14.208       31.470       35.140       33.801      990.352     1234.826     1142.480        0.509        0.168       81.298       17.936        0.049      343.894       20.330      862.117
09/07/2013  23:37:00       92.783       68.280       27.263       33.115       26.264       27.637     1096.575      689.821      763.806        0.828        0.128      115.199       12.223        0.011      344.254       20.942      862.115
09/07/2013  23:38:00       83.797       50.887       23.070       36.969       29.432       29.128     1366.744      866.242      848.416        0.661        0.154       98.038       20.956        0.046      344.622       21.571      862.114
09/07/2013  23:39:00       99.517       62.228       27.675       33.072       20.945       24.450     1093.783      438.672      597.781        0.834        0.107      117.371       16.897        0.021      344.685       21.680      862.097
09/07/2013  23:40:00       72.441       53.015       14.762       37.017       33.851       29.301     1370.235     1145.921      858.549        0.582        0.169       89.767       12.983        0.021      344.061       20.613      862.102
09/07/2013  23:41:00       15.375       29.555        6.399       32.969       20.926       15.147     1086.928      437.896      229.422        0.145        0.088       33.315       12.750        0.146      344.205       20.860      862.095
09/07/2013  23:42:00      -30.070       91.027      -13.817       17.039       16.259       12.267      290.319      264.362      150.481        0.504        0.035       95.865        5.019        0.003      344.692       21.691      862.085
09/07/2013  23:43:00      -27.314       69.702      -11.557       13.634       23.580       11.714      185.890      556.011      137.209        0.331        0.044       74.862       12.475        0.028      344.688       21.683      862.072
09/07/2013  23:44:00      -49.978       23.479       -5.036       15.331       28.239       11.485      235.029      797.424      131.912        0.212        0.058       55.219       10.720        0.038      344.369       21.138      862.065
09/07/2013  23:45:00      -82.247      -13.186       -0.746       29.482       20.117       14.167      869.206      404.679      200.696        0.421        0.074       83.297       15.562        0.035      344.264       20.959      862.052
09/07/2013  23:46:00      -88.015      -18.967      -11.769       29.376       21.047       12.452      862.974      442.983      155.050        0.485        0.073       90.035       13.109        0.021      344.232       20.905      862.055
09/07/2013  23:47:00      -60.513      -49.930        2.595       22.207       20.718       16.191      493.144      429.253      262.136        0.367        0.059       78.453       11.584        0.022      344.218       20.879      862.057
09/07/2013  23:48:00      -73.026      -48.966       -0.006       26.669       17.945       12.378      711.261      322.028      153.216        0.446        0.059       87.923       10.357        0.014      344.237       20.912      862.059
09/07/2013  23:49:00      -73.950      -55.319       -0.183       20.530       15.472       15.315      421.500      239.375      234.543        0.471        0.045       92.351       12.865        0.019      344.314       21.046      862.070
09/07/2013  23:50:00      -58.962      -28.465       -0.056       13.081       12.456        6.597      171.116      155.155       43.516        0.233        0.018       65.474        5.601        0.007      344.402       21.196      862.071
09/07/2013  23:51:00      -34.341      -12.834       -0.144        9.410        6.830        4.544       88.547       46.642       20.646        0.075        0.008       36.661        2.990        0.007      344.451       21.278      862.061
09/07/2013  23:52:00      -32.710       -4.479       -1.800        9.785        5.543        5.846       95.754       30.728       34.180        0.063        0.008       33.015        5.887        0.032      344.488       21.344      862.066
09/07/2013  23:53:00      -64.498       -4.922       -6.685       11.148        7.945        6.119      124.267       63.129       37.447        0.223        0.011       64.686        5.637        0.008      344.390       21.175      862.077
09/07/2013  23:54:00      -86.530      -13.566        0.823       22.497       17.091       13.708      506.093      292.113      187.907        0.433        0.049       87.587       11.033        0.016      344.206       20.862      862.073
09/07/2013  23:55:00      -96.260       -7.376       -5.123       34.893       22.278       16.749     1217.516      496.329      280.527        0.567        0.100       96.542       16.456        0.029      344.120       20.715      862.077
09/07/2013  23:56:00      -71.371       -0.248       -2.266       23.970       18.413       12.617      574.542      339.032      159.186        0.309        0.054       71.371        9.471        0.018      344.083       20.650      862.082
09/07/2013  23:57:00      -57.211       23.571       -2.818       19.919       13.346       12.593      396.767      178.110      158.573        0.228        0.037       61.876       11.740        0.036      344.033       20.564      862.068
09/07/2013  23:58:00      -30.667       14.315       -7.357       13.859       12.384        9.256      192.077      153.371       85.673        0.082        0.022       33.843        5.091        0.023      344.050       20.593      862.058
09/07/2013  23:59:00      -45.840        6.411       -7.445       13.504       14.729       11.301      182.359      216.929      127.708        0.136        0.026       46.286        7.534        0.026      344.146       20.757      862.066
